Date StartTime U_cm/s V_cm/s W_cm/s Ustd_cm/s Vstd_cm/s Wstd_cm/s Uvar_(cm/s)^2 Vvar_(cm/s)^2 Wvar_(cm/s)^2 KE_(m/s)^2 TurbulentKE_(m/s)^2 HorizWindSpeed_cm/s FrictionSpeec_cm/s DragCoef SpeedOfSound_m/s SonicTemperature_C Pressure_mb 
07/10/2013  00:00:00     -154.454      -69.804       -8.582       54.822       42.446       35.660     3005.471     1801.684     1271.670        1.744        0.304      169.495       33.800        0.040      345.701       23.419      865.436
07/10/2013  00:01:00      -65.271       -6.009       -2.773       36.696       32.078       23.395     1346.563     1028.978      547.304        0.361        0.146       65.547       17.066        0.068      345.691       23.404      865.406
07/10/2013  00:02:00     -121.883       -0.511      -14.041       33.190       52.656       23.620     1101.556     2772.678      557.889        0.974        0.222      121.884       22.701        0.035      345.808       23.605      865.395
07/10/2013  00:03:00      -51.742      -12.299        0.369       35.709       28.813       14.569     1275.152      830.187      212.243        0.257        0.116       53.184       10.707        0.041      345.763       23.527      865.403
07/10/2013  00:04:00      -80.208      -33.476        8.907       55.653       44.038       29.809     3097.302     1939.333      888.569        0.678        0.296       86.913       23.405        0.073      345.775       23.547      865.410
07/10/2013  00:05:00     -119.351      -29.733       -9.665       39.497       47.848       23.464     1560.031     2289.410      550.554        0.981        0.220      122.998       15.987        0.017      345.797       23.587      865.400
07/10/2013  00:06:00     -113.538       81.133      -25.057       66.805       65.758       41.642     4462.965     4324.157     1734.029        1.531        0.526      139.547       40.699        0.085      345.849       23.672      865.389
07/10/2013  00:07:00      -78.701       11.158       -6.271       53.310       44.278       24.478     2842.009     1960.562      599.179        0.588        0.270       79.489       24.085        0.092      345.731       23.471      865.389
07/10/2013  00:08:00     -174.913      -78.168      -24.141       59.293       67.973       36.129     3515.672     4620.344     1305.327        2.336        0.472      191.585       27.117        0.020      345.734       23.473      865.378
07/10/2013  00:09:00     -106.284       87.305      -33.716       49.505       54.279       26.766     2450.764     2946.217      716.423        1.308        0.306      137.544       25.651        0.035      345.835       23.650      865.367
07/10/2013  00:10:00      -82.454       31.718      -12.918       35.743       25.194       20.940     1277.567      634.716      438.479        0.516        0.118       88.345       11.383        0.017      345.760       23.521      865.377
07/10/2013  00:11:00      -80.884      -23.063       -6.039       43.652       25.645       18.616     1905.512      657.682      346.552        0.501        0.145       84.107       21.461        0.065      345.775       23.547      865.389
07/10/2013  00:12:00      -20.740      -22.622       -8.674       26.492       48.037       17.504      701.813     2307.574      306.394        0.217        0.166       30.691       18.221        0.352      345.736       23.481      865.381
07/10/2013  00:13:00     -102.378       83.566      -24.009       41.114       33.805       22.706     1690.332     1142.765      515.579        1.069        0.167      132.153       16.403        0.015      345.744       23.494      865.384
07/10/2013  00:14:00      -95.947       92.664      -15.174       44.425       48.316       28.191     1973.559     2334.481      794.707        1.156        0.255      133.388       23.355        0.031      345.727       23.464      865.390
07/10/2013  00:15:00      -62.374       69.690       -5.119       53.679       49.427       23.835     2881.397     2442.981      568.125        0.733        0.295       93.527       29.193        0.097      345.640       23.314      865.414
07/10/2013  00:16:00      -47.647       56.559      -10.862       34.430       49.319       21.840     1185.457     2432.397      476.986        0.484        0.205       73.953       15.315        0.043      345.564       23.185      865.416
07/10/2013  00:17:00      -53.541       35.550       -6.222       25.631       35.837       26.535      656.931     1284.277      704.117        0.341        0.132       64.268       16.577        0.067      345.638       23.310      865.424
07/10/2013  00:18:00      -88.450      109.893      -28.922       42.179       44.977       24.741     1779.068     2022.907      612.100        1.257        0.221      141.067       22.633        0.026      345.624       23.286      865.419
07/10/2013  00:19:00     -100.910       57.059      -15.267       71.869       29.418       20.310     5165.219      865.432      412.481        1.006        0.322      115.925       19.006        0.027      345.633       23.301      865.417
07/10/2013  00:20:00      -65.519      112.156      -17.123       56.336       60.237       31.132     3173.715     3628.486      969.196        1.247        0.389      129.891       34.489        0.071      345.597       23.241      865.412
07/10/2013  00:21:00        8.818      113.549       -5.557       53.554       57.473       36.872     2868.020     3303.172     1359.542        1.026        0.377      113.891       36.535        0.103      345.565       23.185      865.402
07/10/2013  00:22:00      -43.842       74.494        3.342       52.072       81.585       32.886     2711.454     6656.088     1081.469        0.896        0.522       86.438       22.929        0.070      345.521       23.109      865.399
07/10/2013  00:23:00      -61.983       49.081       -2.402       46.617       46.801       23.958     2173.120     2190.313      573.993        0.560        0.247       79.062       19.331        0.060      345.597       23.242      865.398
07/10/2013  00:24:00      -12.508      127.419      -14.379       45.080       44.169       25.135     2032.204     1950.863      631.775        1.061        0.231      128.032       25.691        0.040      345.549       23.157      865.380
07/10/2013  00:25:00       30.872      109.968      -10.683       40.278       57.080       32.749     1622.288     3258.085     1072.479        0.956        0.298      114.219       37.226        0.106      345.423       22.943      865.353
07/10/2013  00:26:00       20.671      126.907      -11.245       41.208       54.819       34.293     1698.137     3005.116     1176.003        1.127        0.294      128.579       33.894        0.069      345.369       22.849      865.347
07/10/2013  00:27:00       23.087      145.539      -17.479       47.281       49.481       28.581     2235.505     2448.358      816.854        1.376        0.275      147.359       31.804        0.047      345.357       22.829      865.342
07/10/2013  00:28:00        4.899      153.281      -20.704       36.233       40.579       24.041     1312.856     1646.696      577.989        1.374        0.177      153.359       17.762        0.013      345.312       22.751      865.348
07/10/2013  00:29:00       -5.083      139.612      -18.595       48.242       36.172       29.211     2327.326     1308.394      853.274        1.218        0.224      139.705       21.965        0.025      345.444       22.979      865.339
07/10/2013  00:30:00       32.556       86.910      -13.080       47.388       58.595       30.279     2245.618     3433.383      916.790        0.769        0.330       92.808       20.360        0.048      345.302       22.736      865.325
07/10/2013  00:31:00        8.254      138.840      -18.423       34.602       35.913       25.706     1197.310     1289.766      660.803        1.142        0.157      139.085       19.075        0.019      345.431       22.955      865.311
07/10/2013  00:32:00        7.003      135.986      -25.400       27.571       31.518       17.061      760.133      993.399      291.066        1.062        0.102      136.166       14.487        0.011      345.463       23.011      865.319
07/10/2013  00:33:00      -34.914       96.975       -5.178       37.628       42.371       27.841     1415.872     1795.302      775.107        0.732        0.199      103.068       27.811        0.073      345.436       22.966      865.345
07/10/2013  00:34:00      -79.149       68.315       -4.960       52.125       86.464       32.631     2717.041     7476.010     1064.793        1.110        0.563      104.554       21.677        0.043      345.491       23.059      865.351
07/10/2013  00:35:00      -24.471       76.190       -6.758       29.690       28.061       16.852      881.516      787.424      283.975        0.420        0.098       80.023       13.309        0.028      345.470       23.024      865.329
07/10/2013  00:36:00      -13.642       82.728      -18.206       17.691       18.523       11.519      312.972      343.107      132.678        0.407        0.039       83.845       10.608        0.016      345.413       22.923      865.311
07/10/2013  00:37:00        6.161       96.691      -18.935       12.456       18.651       10.733      155.158      347.853      115.199        0.518        0.031       96.887        6.914        0.005      345.399       22.901      865.305
07/10/2013  00:38:00      -18.113      116.870       -1.555       47.360       65.661       31.243     2242.960     4311.411      976.114        1.076        0.377      118.266       31.722        0.072      345.359       22.830      865.294
07/10/2013  00:39:00      -16.408       87.457      -15.903       22.124       19.376       14.936      489.468      375.424      223.084        0.463        0.054       88.983        7.380        0.007      345.400       22.904      865.285
07/10/2013  00:40:00      -40.645       64.783      -20.981       24.735       21.550       14.802      611.805      464.393      219.113        0.379        0.065       76.477       12.859        0.028      345.411       22.922      865.271
07/10/2013  00:41:00        1.768       28.710      -11.089       25.925       42.962       10.557      672.082     1845.715      111.461        0.179        0.131       28.764        9.311        0.105      345.305       22.739      865.255
07/10/2013  00:42:00       11.094       20.558       -2.881       20.944       27.481       15.741      438.660      755.217      247.767        0.100        0.072       23.361       15.521        0.441      345.261       22.664      865.246
07/10/2013  00:43:00       -9.111       32.384       -8.306       17.514       21.994        8.068      306.731      483.721       65.087        0.103        0.043       33.641        8.166        0.059      345.306       22.745      865.254
07/10/2013  00:44:00       -7.133        9.889       -0.621       10.238       12.524        8.913      104.819      156.849       79.440        0.025        0.017       12.193        6.460        0.281      345.269       22.678      865.266
07/10/2013  00:45:00      -10.955        8.268        6.733       14.874       10.687        9.901      221.235      114.221       98.033        0.033        0.022       13.725        4.164        0.092      345.227       22.607      865.245
07/10/2013  00:46:00       53.344       26.914        0.605       18.700       10.001       13.050      349.691      100.018      170.300        0.210        0.031       59.749        8.291        0.019      345.340       22.801      865.211
07/10/2013  00:47:00       70.554       19.968       21.694       21.153       19.775       18.582      447.470      391.063      345.302        0.352        0.059       73.325       14.795        0.041      345.194       22.550      865.173
07/10/2013  00:48:00      102.635       54.335       14.270       25.922       21.115       23.646      671.936      445.847      559.124        0.768        0.084      116.130       16.352        0.020      345.235       22.620      865.158
07/10/2013  00:49:00       72.192       46.895        3.878       30.528       25.238       20.841      931.956      636.978      434.327        0.471        0.100       86.087       12.875        0.022      345.181       22.527      865.158
07/10/2013  00:50:00       40.591       29.941       -8.656       22.084       13.752       20.071      487.720      189.117      402.845        0.185        0.054       50.439       10.947        0.047      345.078       22.351      865.175
07/10/2013  00:51:00       26.083       37.527       -8.693       10.584       16.764       12.207      112.026      281.048      149.020        0.135        0.027       45.702       11.062        0.059      345.192       22.547      865.186
07/10/2013  00:52:00       66.949       51.103       11.307       15.668       14.482       12.750      245.481      209.727      162.552        0.392        0.031       84.224        7.548        0.008      345.127       22.436      865.186
07/10/2013  00:53:00       94.999       57.168        7.301       21.883       21.282       16.394      478.857      452.943      268.769        0.677        0.060      110.874        6.759        0.004      345.070       22.338      865.158
07/10/2013  00:54:00       85.642       52.289       -0.515       22.892       26.009       13.963      524.034      676.477      194.967        0.573        0.070      100.343       11.270        0.013      344.949       22.131      865.132
07/10/2013  00:55:00       79.064       43.699        4.519       31.610       26.545       21.721      999.186      704.636      471.796        0.518        0.109       90.337       16.155        0.032      345.011       22.236      865.122
07/10/2013  00:56:00       87.576       48.491        2.002       30.706       19.743       18.461      942.846      389.767      340.809        0.585        0.084      100.105       12.031        0.014      345.026       22.263      865.111
07/10/2013  00:57:00      116.561       69.752        5.582       26.837       28.027       21.751      720.210      785.510      473.089        1.023        0.099      135.837       14.563        0.011      344.981       22.186      865.100
07/10/2013  00:58:00      115.317       55.343        3.421       30.551       30.773       21.592      933.375      946.993      466.227        0.936        0.117      127.910       17.415        0.019      344.982       22.188      865.073
07/10/2013  00:59:00       72.834       41.489       11.207       40.027       34.495       21.014     1602.137     1189.893      441.577        0.519        0.162       83.822       18.350        0.048      345.011       22.237      865.061
07/10/2013  01:00:00       78.328       38.301       10.768       45.440       28.025       20.075     2064.812      785.396      403.002        0.549        0.163       87.191        9.282        0.011      345.059       22.320      865.053
07/10/2013  01:01:00       37.274       17.361        2.468       26.458       18.571       14.392      700.024      344.895      207.125        0.147        0.063       41.119       11.108        0.073      344.945       22.125      865.067
07/10/2013  01:02:00       83.682       27.124        8.099       32.898       28.740       19.128     1082.288      825.997      365.874        0.504        0.114       87.968        8.436        0.009      345.094       22.379      865.068
07/10/2013  01:03:00       39.968       32.467       26.770       25.339       24.187       20.834      642.075      585.001      434.071        0.251        0.083       51.493       18.516        0.129      345.104       22.396      865.064
07/10/2013  01:04:00       80.027       36.325       20.530       38.697       22.261       24.760     1497.486      495.550      613.071        0.538        0.130       87.886       15.548        0.031      345.052       22.309      865.048
07/10/2013  01:05:00      104.335       42.944       19.625       23.862       15.095       19.969      569.376      227.862      398.763        0.716        0.060      112.827       12.126        0.012      345.008       22.232      865.022
07/10/2013  01:06:00      133.998       55.082       13.268       29.080       26.035       24.564      845.656      677.809      603.399        1.165        0.106      144.878       13.205        0.008      345.019       22.250      865.002
07/10/2013  01:07:00       63.478       36.795        6.239       30.751       19.170       20.162      945.608      367.503      406.489        0.357        0.086       73.372        9.546        0.017      344.874       22.003      865.018
07/10/2013  01:08:00       88.871       52.044        3.967       21.077       18.114       15.339      444.259      328.133      235.290        0.581        0.050      102.988       11.082        0.012      344.879       22.011      865.017
07/10/2013  01:09:00       23.112        7.951        8.809       45.048       32.830       18.073     2029.345     1077.816      326.636        0.205        0.172       24.441        8.138        0.111      344.858       21.975      865.012
07/10/2013  01:10:00        1.368      -25.598        2.305       19.842       26.645       12.712      393.702      709.982      161.593        0.096        0.063       25.634       12.860        0.252      344.887       22.025      865.023
07/10/2013  01:11:00       -6.386      -56.312       -9.085       29.025       19.190       15.278      842.445      368.272      233.417        0.237        0.072       56.673        8.631        0.023      344.919       22.081      865.032
07/10/2013  01:12:00      -29.036      -55.261      -15.129       24.792       20.251       15.954      614.634      410.109      254.522        0.270        0.064       62.425       13.238        0.045      344.904       22.055      865.033
07/10/2013  01:13:00       32.919      -18.402       11.431       25.389       25.972       22.855      644.613      674.544      522.357        0.170        0.092       37.714       18.092        0.230      344.854       21.967      865.025
07/10/2013  01:14:00       29.256       86.264      103.512       42.401       52.421       43.291     1797.852     2747.999     1874.080        1.271        0.321       91.090       47.401        0.271      344.808       21.890      864.975
07/10/2013  01:15:00      -13.037       48.816       85.582       30.068       66.061       64.762      904.098     4364.075     4194.057        0.967        0.473       50.527       59.894        1.405      344.784       21.848      864.946
07/10/2013  01:16:00     -115.299      -28.856      -11.225       53.444       43.102       26.988     2856.277     1857.797      728.375        0.985        0.272      118.855       15.472        0.017      344.659       21.634      865.000
07/10/2013  01:17:00     -178.228      -59.423        8.954       88.848       74.528       37.140     7894.034     5554.488     1379.406        2.510        0.741      187.873       32.401        0.030      344.558       21.459      865.066
07/10/2013  01:18:00      -85.571     -132.125        2.524       91.814       96.197       52.625     8429.850     9253.905     2769.341        2.262        1.023      157.414       64.967        0.170      344.738       21.767      865.087
07/10/2013  01:19:00      118.629       54.562       28.014      112.584      118.954       57.340    12675.162    14149.940     3287.867        2.397        1.506      130.575       35.084        0.072      345.140       22.455      865.050
07/10/2013  01:20:00      267.679      122.312       27.762      101.166       94.807       64.652    10234.642     8988.281     4179.849        5.539        1.170      294.299       56.563        0.037      345.456       22.995      864.926
07/10/2013  01:21:00      153.521       93.853       -5.625      118.212       54.131       49.948    13974.142     2930.185     2494.785        2.590        0.970      179.936       36.199        0.040      345.846       23.667      864.933
07/10/2013  01:22:00     -256.433       46.274      -22.267      188.226       89.101       48.877    35429.149     7939.047     2388.990        5.707        2.288      260.575       64.321        0.061      345.080       22.354      864.997
07/10/2013  01:23:00     -231.416     -110.437      -10.139      191.985       90.397       59.048    36858.361     8171.603     3486.643        5.717        2.426      256.417       84.544        0.109      344.751       21.790      865.029
07/10/2013  01:24:00       18.340     -149.965       26.177       79.322      120.932       41.181     6291.923    14624.536     1695.880        2.306        1.131      151.082       46.949        0.097      344.875       22.002      864.971
07/10/2013  01:25:00       14.136      -67.703       61.573       59.938       94.121       63.540     3592.559     8858.837     4037.394        1.253        0.824       69.163       51.811        0.561      345.049       22.302      864.881
07/10/2013  01:26:00      -37.325      -58.033       -6.806       78.156      105.941       50.834     6108.302    11223.421     2584.092        1.236        0.996       69.000       48.387        0.492      345.265       22.671      864.995
07/10/2013  01:27:00       54.115       65.895        6.501       33.364       35.563       34.156     1113.185     1264.722     1166.665        0.543        0.177       85.267       18.939        0.049      345.171       22.512      864.963
07/10/2013  01:28:00       -8.976       13.220      -11.911       64.157       28.482       20.758     4116.162      811.197      430.875        0.288        0.268       15.979       10.602        0.440      345.326       22.777      864.964
07/10/2013  01:29:00     -123.483      -67.945       -4.658       62.341       53.248       35.461     3886.362     2835.356     1257.484        1.393        0.399      140.942       32.037        0.052      345.130       22.440      865.025
07/10/2013  01:30:00      -71.621      -10.081        8.266       66.858       56.530       31.956     4469.998     3195.651     1021.218        0.699        0.434       72.327       34.997        0.234      344.865       21.988      865.047
07/10/2013  01:31:00        3.570      -94.037        2.554       26.745       51.716       23.754      715.288     2674.537      564.258        0.641        0.198       94.105       13.687        0.021      344.829       21.924      865.045
07/10/2013  01:32:00       26.972       44.967       52.081       35.204       42.207       26.410     1239.343     1781.413      697.466        0.459        0.186       52.435       25.572        0.238      344.666       21.645      864.987
07/10/2013  01:33:00      -13.325       52.836        8.735       27.665       29.767       25.540      765.363      886.084      652.298        0.267        0.115       54.491       15.128        0.077      344.562       21.469      864.999
07/10/2013  01:34:00       16.546       86.465        9.123       27.007       32.528       20.730      729.398     1058.098      429.735        0.502        0.111       88.034       19.791        0.051      344.600       21.534      865.019
07/10/2013  01:35:00      148.297       78.338       19.133       42.792       30.425       26.986     1831.142      925.680      728.253        1.599        0.174      167.716       14.674        0.008      344.779       21.839      864.973
07/10/2013  01:36:00      -15.305      -19.096       21.278       88.728       56.299       32.846     7872.634     3169.551     1078.860        0.658        0.606       24.473       26.159        1.143      344.793       21.863      864.966
07/10/2013  01:37:00      -65.437      -93.030       11.495       98.330       75.204       51.823     9668.736     5655.625     2685.666        1.554        0.901      113.739       48.735        0.184      344.597       21.528      865.001
07/10/2013  01:38:00       29.923      -19.604       19.926       56.667       88.835       33.533     3211.201     7891.739     1124.436        0.695        0.611       35.773       42.830        1.433      344.540       21.431      864.950
07/10/2013  01:39:00      140.515       73.684       15.861       38.036       36.346       34.522     1446.774     1321.002     1191.780        1.469        0.198      158.662        4.193        0.001      344.666       21.646      864.890
07/10/2013  01:40:00       31.908        1.522        6.681       57.068       49.146       33.982     3256.767     2415.374     1154.804        0.394        0.341       31.944       11.610        0.132      344.693       21.692      864.914
07/10/2013  01:41:00      -27.194      -42.791       30.671       86.821      102.519       45.495     7537.942    10510.111     2069.760        1.181        1.006       50.700       62.877        1.538      344.625       21.575      864.945
07/10/2013  01:42:00       -9.457     -137.795       -7.102       45.293      100.727       34.199     2051.480    10145.934     1169.539        1.624        0.668      138.120       31.637        0.052      344.796       21.867      864.926
07/10/2013  01:43:00      -10.103       53.014       67.106       32.089       41.149       47.068     1029.691     1693.210     2215.386        0.618        0.247       53.968       35.016        0.421      344.551       21.450      864.901
07/10/2013  01:44:00       65.516       67.098       38.457       46.976       24.869       36.793     2206.768      618.463     1353.722        0.723        0.209       93.779       30.486        0.106      344.594       21.524      864.904
07/10/2013  01:45:00      108.194       50.868       20.694       36.836       24.264       32.319     1356.923      588.733     1044.496        0.886        0.150      119.555       27.196        0.052      344.580       21.500      864.880
07/10/2013  01:46:00       58.842       17.060       14.210       36.201       26.167       17.084     1310.523      684.700      291.871        0.312        0.114       61.265        5.419        0.008      344.605       21.542      864.901
07/10/2013  01:47:00       35.174        0.482       30.909       29.440       34.270       23.094      866.693     1174.427      533.325        0.238        0.129       35.177       26.369        0.562      344.626       21.579      864.905
07/10/2013  01:48:00       40.204       71.130       78.111       49.364       45.777       30.110     2436.773     2095.494      906.625        0.911        0.272       81.705       30.077        0.136      344.610       21.551      864.862
07/10/2013  01:49:00        3.146      -38.087       21.599       25.584       71.324       44.306      654.563     5087.102     1963.024        0.481        0.385       38.217       49.216        1.658      344.627       21.580      864.879
07/10/2013  01:50:00        2.934        0.204       -0.886       10.337       22.575       10.811      106.846      509.617      116.875        0.037        0.037        2.942        6.565        4.981      344.630       21.584      864.895
07/10/2013  01:51:00        0.831       31.041        8.948       15.941       11.253       17.723      254.121      126.625      314.112        0.087        0.035       31.052       11.124        0.128      344.476       21.323      864.866
07/10/2013  01:52:00      -67.059       16.950      -11.971       32.482       28.602        9.753     1055.092      818.050       95.127        0.345        0.098       69.168       11.555        0.028      344.469       21.310      864.867
07/10/2013  01:53:00      -99.547      -58.579       -1.994       67.999       31.555       29.096     4623.803      995.693      846.584        0.990        0.323      115.504       32.070        0.077      344.514       21.387      864.879
07/10/2013  01:54:00      -44.605      -27.600      -10.720       59.689       23.389       22.038     3562.818      547.033      485.687        0.373        0.230       52.453       25.694        0.240      344.437       21.256      864.855
07/10/2013  01:55:00       41.346       37.195       16.303       28.081       72.082       30.396      788.539     5195.751      923.925        0.513        0.345       55.614       37.444        0.453      344.399       21.189      864.804
07/10/2013  01:56:00       -6.557      138.326      -16.931       17.700       21.238       12.210      313.284      451.053      149.086        1.019        0.046      138.482        8.922        0.004      344.302       21.024      864.799
07/10/2013  01:57:00      -19.562       46.658      -16.445       20.751       35.343        8.048      430.608     1249.152       64.775        0.229        0.087       50.593        4.135        0.007      344.386       21.168      864.795
07/10/2013  01:58:00        3.035       -2.215        5.918       21.864       33.825       19.400      478.030     1144.147      376.355        0.102        0.100        3.757       18.798       25.034      344.367       21.135      864.779
07/10/2013  01:59:00       20.263       10.473       17.344       16.331       20.045        9.783      266.704      401.817       95.699        0.079        0.038       22.809        6.768        0.088      344.286       20.997      864.766
07/10/2013  02:00:00       57.495       22.436        6.479       12.510       10.343       10.557      156.490      106.968      111.454        0.211        0.019       61.717        4.932        0.006      344.352       21.111      864.771
07/10/2013  02:01:00       12.205        5.329       -0.480       29.910       21.117        8.035      894.587      445.939       64.556        0.079        0.070       13.318        8.210        0.380      344.273       20.976      864.756
07/10/2013  02:02:00       10.647      -26.784        1.837       19.824       18.579       13.188      392.998      345.187      173.924        0.087        0.046       28.822        8.009        0.077      344.360       21.123      864.752
07/10/2013  02:03:00        9.088       -2.835       12.395       17.640       21.456       22.345      311.166      460.364      499.277        0.076        0.064        9.520       17.945        3.553      344.196       20.842      864.756
07/10/2013  02:04:00      -10.863       61.503       94.662       26.301       40.715       25.035      691.747     1657.686      626.741        0.792        0.149       62.454       26.195        0.176      344.083       20.649      864.741
07/10/2013  02:05:00       -3.368        4.227       40.931       27.289       58.641       50.717      744.691     3438.763     2572.225        0.423        0.338        5.405       49.082       82.469      344.159       20.779      864.775
07/10/2013  02:06:00      -87.934      -23.439        0.673       47.881       43.513       27.609     2292.634     1893.347      762.257        0.661        0.247       91.004       23.803        0.068      344.149       20.763      864.811
07/10/2013  02:07:00      -77.539       10.803       -4.469       22.491       21.239       17.271      505.841      451.095      298.298        0.370        0.063       78.288       11.177        0.020      344.076       20.638      864.802
07/10/2013  02:08:00      -36.650       -5.541       -0.745       23.593       19.936       11.911      556.613      397.430      141.882        0.123        0.055       37.067       11.338        0.094      344.136       20.740      864.797
07/10/2013  02:09:00        6.123       -4.705       12.002       15.538       14.021        7.980      241.430      196.581       63.686        0.035        0.025        7.722        7.395        0.917      344.117       20.707      864.791
07/10/2013  02:10:00       85.058       81.686       68.968       40.714       39.576       34.866     1657.610     1566.238     1215.624        1.155        0.222      117.930       29.551        0.063      344.411       21.210      864.772
07/10/2013  02:11:00      104.352       69.611       20.555       36.533       41.028       30.985     1334.666     1683.285      960.045        1.007        0.199      125.439       20.829        0.028      344.470       21.310      864.754
07/10/2013  02:12:00       51.998       58.833        0.550       51.104       34.478       27.969     2611.661     1188.701      782.258        0.537        0.229       78.518       17.740        0.051      344.163       20.787      864.761
07/10/2013  02:13:00       94.516       69.368        4.286       41.080       36.831       31.124     1687.571     1356.523      968.674        0.889        0.201      117.240       24.326        0.043      344.261       20.953      864.753
07/10/2013  02:14:00      121.976       36.753        3.340       30.480       27.772       22.512      929.022      771.312      506.796        0.922        0.110      127.393       15.769        0.015      344.295       21.013      864.759
07/10/2013  02:15:00       77.303       48.715       24.634       28.910       24.515       32.151      835.764      600.968     1033.719        0.571        0.124       91.372       23.278        0.065      344.302       21.025      864.756
07/10/2013  02:16:00       -7.005       51.216       78.427       21.704       36.252       24.048      471.068     1314.225      578.294        0.559        0.118       51.693       21.065        0.166      344.111       20.696      864.730
07/10/2013  02:17:00       -6.144       24.340       54.797       15.726       50.211       31.294      247.295     2521.148      979.339        0.369        0.187       25.103       34.119        1.847      344.113       20.701      864.732
07/10/2013  02:18:00       31.468      -87.301      -11.815       32.471       24.391       20.611     1054.334      594.935      424.806        0.541        0.104       92.799       21.159        0.052      344.265       20.963      864.740
07/10/2013  02:19:00       26.215      -56.075        1.222       18.281       18.559       11.432      334.185      344.438      130.701        0.232        0.040       61.900       10.640        0.030      344.292       21.007      864.736
07/10/2013  02:20:00       54.401      -81.284       -5.890       20.968       26.297       16.222      439.676      691.542      263.154        0.550        0.070       97.809       12.219        0.016      344.331       21.075      864.732
07/10/2013  02:21:00       88.303      -69.214       -5.198       26.278       27.463       18.284      690.535      754.229      334.322        0.720        0.089      112.196       11.638        0.011      344.278       20.983      864.734
07/10/2013  02:22:00       26.729        8.129       36.666       35.621       28.358       23.929     1268.877      804.193      572.577        0.238        0.132       27.938       19.729        0.499      344.154       20.770      864.732
07/10/2013  02:23:00       37.577      -32.586       15.136       29.131       50.204       25.257      848.642     2520.424      637.896        0.335        0.200       49.739       23.112        0.216      344.324       21.063      864.758
07/10/2013  02:24:00       26.603       -8.826       49.942       27.190       46.610       31.180      739.290     2172.500      972.176        0.358        0.194       28.029       33.836        1.457      344.417       21.221      864.758
07/10/2013  02:25:00       44.275       92.302      115.218       43.985       48.148       25.111     1934.655     2318.206      630.544        1.432        0.244      102.372       25.688        0.063      344.382       21.159      864.740
07/10/2013  02:26:00      132.319      127.975      100.992       79.287       40.969       49.171     6286.426     1678.471     2417.836        2.723        0.519      184.081       47.090        0.065      344.361       21.123      864.729
07/10/2013  02:27:00      164.866      178.031      131.543       82.323       72.589       72.509     6777.105     5269.097     5257.528        4.674        0.865      242.644       65.850        0.074      344.278       20.979      864.716
07/10/2013  02:28:00      154.701      163.588      139.206       85.412       80.330       70.232     7295.241     6452.954     4932.466        4.437        0.934      225.152       59.653        0.070      344.427       21.234      864.717
07/10/2013  02:29:00      111.277      117.248       82.777       60.310       44.034       51.945     3637.303     1939.016     2698.312        2.063        0.414      161.646       34.304        0.045      344.370       21.140      864.721
07/10/2013  02:30:00       31.309       58.987       68.961       55.171       52.992       44.869     3043.888     2808.101     2013.206        0.854        0.393       66.781       40.096        0.360      344.163       20.786      864.730
07/10/2013  02:31:00       48.607      -21.489       19.359       91.359       62.012       41.434     8346.475     3845.536     1716.780        0.855        0.695       53.145       39.614        0.556      344.350       21.106      864.786
07/10/2013  02:32:00     -137.462      -82.756      -14.025       51.236       42.567       20.192     2625.163     1811.960      407.734        1.539        0.242      160.451       12.223        0.006      344.162       20.784      864.840
07/10/2013  02:33:00     -110.881      -65.323       -1.567       54.937       38.067       24.041     3018.082     1449.087      577.987        1.080        0.252      128.692       15.649        0.015      344.159       20.780      864.877
07/10/2013  02:34:00      -22.799      -13.171        7.504       46.156       37.216       20.582     2130.391     1385.033      423.600        0.234        0.197       26.330       24.837        0.890      344.170       20.799      864.872
07/10/2013  02:35:00       30.321      -24.175        4.362       23.407       43.214       24.766      547.890     1867.488      613.347        0.228        0.151       38.778       27.383        0.499      344.296       21.014      864.856
07/10/2013  02:36:00        2.994       57.895       79.838       29.296       52.786       31.826      858.232     2786.380     1012.916        0.720        0.233       57.973       33.334        0.331      344.226       20.894      864.814
07/10/2013  02:37:00       30.804        6.739       41.620       38.922       46.052       38.125     1514.885     2120.797     1453.512        0.391        0.254       31.532       42.823        1.844      344.260       20.951      864.817
07/10/2013  02:38:00       29.543      -57.475        0.175       19.794       24.557       14.214      391.816      603.040      202.029        0.269        0.060       64.623        9.611        0.022      344.270       20.973      864.826
07/10/2013  02:39:00       10.311       -6.809        3.811       18.705       17.063       10.859      349.893      291.138      117.908        0.046        0.038       12.356        9.473        0.588      344.189       20.833      864.831
07/10/2013  02:40:00       -4.169      -21.831        4.481       11.500       18.884       12.145      132.244      356.601      147.511        0.058        0.032       22.226        7.473        0.113      344.152       20.769      864.836
07/10/2013  02:41:00       16.196       -5.636       -2.870        8.426        8.928        9.206       70.999       79.711       84.753        0.027        0.012       17.148        4.146        0.058      344.118       20.713      864.835
07/10/2013  02:42:00        4.879      -24.605      -10.648       16.834       27.543       10.242      283.382      758.638      104.891        0.094        0.057       25.084        6.952        0.077      344.181       20.817      864.831
07/10/2013  02:43:00       -2.768       13.472       31.505       13.289       23.550       13.270      176.610      554.614      176.101        0.104        0.045       13.753        7.745        0.317      344.009       20.523      864.817
07/10/2013  02:44:00        3.377       40.406       66.151       19.415       31.017       17.866      376.957      962.062      319.181        0.384        0.083       40.547       16.112        0.158      343.963       20.445      864.800
07/10/2013  02:45:00       12.679       -4.458       41.831       26.130       49.908       36.425      682.761     2490.800     1326.777        0.321        0.225       13.440       39.632        8.695      344.038       20.573      864.795
07/10/2013  02:46:00       36.462      -50.823       -0.145       20.751       19.726       15.345      430.597      389.096      235.464        0.248        0.053       62.549        5.605        0.008      344.126       20.723      864.794
07/10/2013  02:47:00        5.565       -7.530        2.438       10.957       23.938       12.201      120.052      573.012      148.862        0.047        0.042        9.363        8.342        0.794      344.045       20.584      864.811
07/10/2013  02:48:00       25.605        8.123        8.750       15.860       14.776       13.382      251.535      218.339      179.071        0.072        0.032       26.862       10.593        0.155      343.955       20.431      864.816
07/10/2013  02:49:00       49.196       25.270        7.657       13.937       12.700       13.060      194.247      161.293      170.558        0.182        0.026       55.307        6.100        0.012      344.009       20.522      864.816
07/10/2013  02:50:00       36.407       24.010        1.017       11.242       18.786        6.928      126.373      352.928       47.994        0.122        0.026       43.611        6.202        0.020      343.915       20.364      864.813
07/10/2013  02:51:00       20.100       16.655       -3.735        9.346       14.933        6.814       87.356      223.001       46.427        0.053        0.018       26.104        7.192        0.076      343.867       20.281      864.807
07/10/2013  02:52:00        5.248      -17.040        7.799        5.167        8.986       10.010       26.693       80.757      100.198        0.029        0.010       17.830        6.943        0.152      343.902       20.343      864.807
07/10/2013  02:53:00      -34.460       -7.569       -8.669       26.628       11.336        6.083      709.045      128.494       37.006        0.110        0.044       35.282        6.874        0.038      344.011       20.527      864.801
07/10/2013  02:54:00      -42.918      -25.352       -3.607       22.445       15.777       10.908      503.773      248.909      118.981        0.168        0.044       49.846        5.901        0.014      344.029       20.558      864.800
07/10/2013  02:55:00       11.365      -32.127       -5.267       14.032       15.946       10.831      196.885      254.273      117.316        0.088        0.028       34.078        7.968        0.055      343.992       20.495      864.795
07/10/2013  02:56:00        5.271        4.981       -2.707        7.068       11.951       10.690       49.953      142.817      114.268        0.018        0.015        7.253        7.106        0.960      343.977       20.469      864.791
07/10/2013  02:57:00       10.426       18.496        9.613        8.047       12.493        6.947       64.748      156.086       48.257        0.041        0.013       21.232        4.728        0.050      343.888       20.317      864.792
07/10/2013  02:58:00       -2.882       39.311        8.538       13.166       22.325       16.209      173.333      498.413      262.720        0.128        0.047       39.416       13.943        0.125      343.595       19.816      864.789
07/10/2013  02:59:00      -20.129       43.919      -11.119       18.483       13.121        6.190      341.626      172.161       38.315        0.150        0.028       48.312        7.865        0.027      343.778       20.130      864.786
07/10/2013  03:00:00      -83.592       15.519       -9.440       15.142       20.069       14.974      229.276      402.769      224.231        0.409        0.043       85.021       10.096        0.014      343.545       19.733      864.793
07/10/2013  03:01:00      -77.544       -7.864       -7.690       15.180       14.953       13.789      230.437      223.584      190.150        0.339        0.032       77.942        8.557        0.012      343.462       19.590      864.797
07/10/2013  03:02:00      -66.966       13.778      -11.795       23.291       18.808       12.322      542.458      353.724      151.827        0.293        0.052       68.369        9.850        0.021      343.517       19.683      864.801
07/10/2013  03:03:00      -47.324        7.164      -11.811       16.126       22.524       10.635      260.032      507.341      113.100        0.166        0.044       47.863       10.680        0.050      343.678       19.959      864.801
07/10/2013  03:04:00      -25.238      -14.038       -7.654       16.527       13.209        8.860      273.150      174.467       78.495        0.071        0.026       28.879        3.900        0.018      343.734       20.054      864.799
07/10/2013  03:05:00      -12.851      -42.401        8.913       38.666       30.347       26.659     1495.086      920.961      710.699        0.258        0.156       44.305       28.027        0.400      343.586       19.802      864.792
07/10/2013  03:06:00       16.440      -22.673       11.380       14.384       15.413       23.421      206.894      237.548      548.540        0.095        0.050       28.006       13.345        0.227      343.561       19.759      864.777
07/10/2013  03:07:00       -4.479      -22.987       -1.019       11.887       19.937       12.248      141.293      397.491      150.022        0.062        0.034       23.419        6.321        0.073      343.618       19.858      864.760
07/10/2013  03:08:00       -8.097       -0.261       -1.809        6.168        6.740        7.427       38.039       45.433       55.164        0.010        0.007        8.101        6.635        0.671      343.577       19.785      864.747
07/10/2013  03:09:00      -28.372        0.530       -3.590        8.384        4.429        3.855       70.290       19.619       14.865        0.046        0.005       28.377        3.181        0.013      343.804       20.173      864.743
07/10/2013  03:10:00      -53.903       -5.741       -5.753       16.295        9.963        6.871      265.531       99.253       47.211        0.169        0.021       54.208        8.633        0.025      343.751       20.081      864.753
07/10/2013  03:11:00      -52.192      -13.775       -4.636       20.194       17.288        9.181      407.783      298.874       84.294        0.186        0.040       53.979        9.514        0.031      343.486       19.631      864.764
07/10/2013  03:12:00      -92.666      -37.489       -4.970       18.075       17.459       10.386      326.708      304.831      107.862        0.538        0.037       99.962        6.371        0.004      343.497       19.650      864.781
07/10/2013  03:13:00      -82.386      -28.757       -2.619       26.818       24.254       13.601      719.189      588.237      184.981        0.456        0.075       87.260       12.588        0.021      343.366       19.426      864.793
07/10/2013  03:14:00      -68.280       17.176       -9.234       27.730       33.016       18.163      768.941     1090.084      329.907        0.362        0.109       70.407       14.093        0.040      343.135       19.034      864.790
07/10/2013  03:15:00     -113.835      106.110      -28.200       23.422       29.851       15.538      548.594      891.076      241.436        1.335        0.084      155.621       12.793        0.007      343.279       19.278      864.780
07/10/2013  03:16:00     -102.799       48.858       -7.213       30.395       35.895       25.028      923.846     1288.456      626.384        0.792        0.142      113.819       15.255        0.018      343.206       19.154      864.765
07/10/2013  03:17:00      -42.787       -9.138       -6.507       23.649       17.112       14.253      559.286      292.823      203.150        0.151        0.053       43.752       14.601        0.111      343.229       19.194      864.764
07/10/2013  03:18:00       -6.043      -14.864        5.793       12.650       10.562        8.875      160.011      111.563       78.762        0.032        0.018       16.045        8.998        0.315      343.271       19.265      864.753
07/10/2013  03:19:00        4.066       18.409       -0.782        6.770       12.594        6.191       45.836      158.610       38.334        0.030        0.012       18.853        4.926        0.068      343.390       19.468      864.738
07/10/2013  03:20:00        3.560       20.440        3.083       11.892        9.177        9.169      141.419       84.214       84.068        0.037        0.015       20.748        7.243        0.122      343.489       19.635      864.723
07/10/2013  03:21:00      -15.502       -4.424       -8.563       10.810       18.477        6.858      116.846      341.411       47.026        0.042        0.025       16.121        7.394        0.210      343.469       19.605      864.723
07/10/2013  03:22:00      -42.085      -23.312       -8.008       20.263       14.978        9.116      410.587      224.353       83.098        0.155        0.036       48.110        5.562        0.013      343.351       19.401      864.723
07/10/2013  03:23:00      -21.777        1.509       -2.846       13.830        7.924        4.397      191.271       62.787       19.337        0.038        0.014       21.829        3.175        0.021      343.399       19.483      864.729
07/10/2013  03:24:00       16.307       21.856        5.681        6.374        5.979        4.886       40.634       35.744       23.870        0.044        0.005       27.269        3.902        0.020      343.790       20.153      864.726
07/10/2013  03:25:00        5.462       12.586        4.394        9.731        6.131        5.151       94.698       37.591       26.534        0.018        0.008       13.720        5.213        0.144      343.519       19.688      864.720
07/10/2013  03:26:00       -3.489       20.191       -4.188       13.357        7.631        6.799      178.412       58.228       46.227        0.036        0.014       20.490        5.647        0.076      343.683       19.967      864.708
07/10/2013  03:27:00      -55.627       -1.884       -9.025       14.967       14.785        9.274      224.010      218.597       86.003        0.185        0.026       55.659        9.463        0.029      343.273       19.270      864.709
07/10/2013  03:28:00      -95.009      -28.644      -10.586       23.718       29.556       15.013      562.551      873.531      225.380        0.581        0.083       99.233        5.859        0.003      343.004       18.809      864.725
07/10/2013  03:29:00      -50.433      -50.727       -5.008       48.063       37.109       20.595     2310.073     1377.043      424.136        0.463        0.206       71.531       23.290        0.106      342.885       18.608      864.724
07/10/2013  03:30:00      -77.473      -36.520       -9.581       30.781       22.252       12.024      947.444      495.137      144.565        0.451        0.079       85.649       13.121        0.023      342.928       18.681      864.721
07/10/2013  03:31:00      -45.209      -24.716       -7.219       12.592       15.093       10.080      158.566      227.803      101.613        0.160        0.024       51.524        9.672        0.035      342.963       18.743      864.711
07/10/2013  03:32:00      -51.384       -5.218       -7.208        6.267        6.876        5.693       39.274       47.278       32.405        0.142        0.006       51.648        3.259        0.004      343.127       19.020      864.703
07/10/2013  03:33:00      -50.150       -9.053      -10.145        7.189        9.314        7.975       51.680       86.756       63.604        0.145        0.010       50.961        5.951        0.014      343.137       19.038      864.702
07/10/2013  03:34:00      -48.123      -15.758       -4.218       12.248       12.017        8.801      150.019      144.405       77.462        0.148        0.019       50.637        3.971        0.006      343.069       18.920      864.697
07/10/2013  03:35:00     -119.165       -4.149      -16.122       20.592       12.485        9.300      424.016      155.878       86.490        0.757        0.033      119.237        5.132        0.002      342.867       18.578      864.692
07/10/2013  03:36:00     -100.835       -6.998      -10.575       49.420       23.547       16.003     2442.361      554.485      256.093        0.679        0.163      101.078       23.053        0.052      342.654       18.214      864.688
07/10/2013  03:37:00      -88.615       -0.380       -4.823       48.113       29.453       20.815     2314.824      867.462      433.265        0.575        0.181       88.616       24.838        0.079      342.546       18.033      864.700
07/10/2013  03:38:00      -12.852       -8.019        9.053       19.890       14.008       13.447      395.608      196.222      180.809        0.054        0.039       15.149       10.883        0.516      342.449       17.867      864.700
07/10/2013  03:39:00      -20.450      -16.912       -6.250       14.038       20.142       14.250      197.074      405.692      203.051        0.077        0.040       26.537       12.751        0.231      342.690       18.275      864.702
07/10/2013  03:40:00      -60.314      -24.025       -6.100       27.921       13.040       12.107      779.608      170.035      146.588        0.267        0.055       64.923        6.928        0.011      342.868       18.578      864.708
07/10/2013  03:41:00      -64.550      -10.201       -9.485       18.521       15.099        8.970      343.009      227.979       80.468        0.251        0.033       65.351        5.126        0.006      342.929       18.685      864.713
07/10/2013  03:42:00      -61.008       -7.284      -12.848       18.374       18.851       12.549      337.607      355.378      157.488        0.240        0.043       61.441       10.345        0.028      343.065       18.914      864.708
07/10/2013  03:43:00      -50.563      -22.532      -12.996       18.399       13.998       11.972      338.532      195.953      143.320        0.196        0.034       55.357        2.961        0.003      342.928       18.680      864.707
07/10/2013  03:44:00      -75.839      -12.770      -11.249       34.613       18.146       17.411     1198.033      329.261      303.135        0.394        0.092       76.906       16.882        0.048      342.606       18.133      864.712
07/10/2013  03:45:00      -61.904        1.589        1.145       46.412       36.931       21.262     2154.061     1363.892      452.066        0.390        0.199       61.924       10.823        0.031      342.356       17.708      864.713
07/10/2013  03:46:00      -38.819        0.609      -10.731       18.365       21.556       16.417      337.264      464.651      269.519        0.135        0.054       38.824       13.306        0.117      342.368       17.728      864.696
07/10/2013  03:47:00      -19.280      -22.678       -8.609       15.365       15.878       10.749      236.090      252.120      115.541        0.078        0.030       29.766        7.387        0.062      342.518       17.984      864.688
07/10/2013  03:48:00      -51.803      -19.037      -11.723       11.422       13.006       10.208      130.456      169.158      104.212        0.179        0.020       55.191        5.993        0.012      342.606       18.134      864.693
07/10/2013  03:49:00      -77.398      -33.653      -13.761       19.337       12.308       11.985      373.912      151.489      143.637        0.399        0.033       84.398        6.360        0.006      342.634       18.180      864.693
07/10/2013  03:50:00      -90.949      -31.458      -12.202       22.396       18.252       13.751      501.562      333.153      189.086        0.522        0.051       96.235       13.687        0.020      342.475       17.912      864.704
07/10/2013  03:51:00      -82.423      -13.162      -18.764       10.658       12.091        8.995      113.593      146.202       80.911        0.383        0.017       83.467        8.442        0.010      342.420       17.817      864.724
07/10/2013  03:52:00      -77.114      -23.004      -11.008       10.404        8.651        8.245      108.238       74.846       67.987        0.342        0.013       80.472        3.968        0.002      342.520       17.987      864.728
07/10/2013  03:53:00      -84.695      -12.474      -15.360       21.195       11.111        6.377      449.243      123.450       40.669        0.409        0.031       85.609        4.058        0.002      342.662       18.228      864.725
07/10/2013  03:54:00     -131.678      -22.007      -18.629       22.732       16.010       12.374      516.758      256.330      153.128        0.955        0.046      133.504       11.665        0.008      342.407       17.796      864.728
07/10/2013  03:55:00     -116.760      -21.338      -15.030       19.729       18.291       13.490      389.219      334.573      181.993        0.761        0.045      118.694        6.449        0.003      342.397       17.777      864.720
07/10/2013  03:56:00      -86.629      -23.248      -15.499       11.432       10.817        9.848      130.684      116.999       96.974        0.431        0.017       89.694        6.999        0.006      342.429       17.833      864.711
07/10/2013  03:57:00      -85.570      -14.534      -10.899       36.446       18.517        9.944     1328.298      342.884       98.879        0.471        0.089       86.796        8.880        0.010      342.422       17.821      864.705
07/10/2013  03:58:00      -98.241       -1.470      -14.261       20.525       16.557       11.618      421.267      274.135      134.973        0.534        0.042       98.252        8.441        0.007      342.509       17.967      864.687
07/10/2013  03:59:00      -90.260      -18.338      -11.148       21.013       15.116       10.425      441.536      228.495      108.677        0.469        0.039       92.104        8.553        0.009      342.415       17.810      864.687
07/10/2013  04:00:00     -129.845      -51.791       -9.347       21.941       22.569       17.552      481.409      509.359      308.083        1.046        0.065      139.793       15.402        0.012      342.388       17.762      864.703
07/10/2013  04:01:00      -99.661       -6.231       -6.800       36.224       18.567       22.502     1312.162      344.740      506.329        0.609        0.108       99.856       23.288        0.054      342.319       17.645      864.708
07/10/2013  04:02:00      -93.163       -5.951       -7.840       16.477       12.693        8.839      271.494      161.108       78.129        0.464        0.026       93.353        4.783        0.003      342.455       17.875      864.720
07/10/2013  04:03:00      -55.906      -15.055       -8.046        9.531        9.995        8.836       90.837       99.905       78.069        0.184        0.013       57.898        5.862        0.010      342.476       17.916      864.730
07/10/2013  04:04:00      -72.090      -21.348      -10.371       10.433       14.335       10.978      108.857      205.502      120.524        0.310        0.022       75.185        7.498        0.010      342.587       18.101      864.720
07/10/2013  04:05:00      -52.011        0.950       -3.805        9.583       10.355        7.388       91.843      107.230       54.580        0.149        0.013       52.020        4.047        0.006      342.510       17.970      864.721
07/10/2013  04:06:00      -42.613       20.785       -4.109       10.721        8.852        4.300      114.948       78.354       18.492        0.124        0.011       47.412        4.204        0.008      342.742       18.364      864.716
07/10/2013  04:07:00      -21.633        2.836       -2.189        6.345        7.677        3.570       40.262       58.943       12.744        0.030        0.006       21.818        2.589        0.014      342.939       18.699      864.719
07/10/2013  04:08:00      -26.319      -13.079      -10.182        9.112       10.352        5.022       83.025      107.154       25.221        0.059        0.011       29.390        2.594        0.008      342.978       18.765      864.737
07/10/2013  04:09:00      -60.604      -25.302       -9.689       14.345       10.312        7.345      205.773      106.327       53.949        0.239        0.018       65.673        4.623        0.005      342.640       18.193      864.748
07/10/2013  04:10:00     -107.546      -42.644      -15.429       29.742       23.571       17.335      884.580      555.612      300.487        0.768        0.087      115.692       16.272        0.020      342.185       17.418      864.772
07/10/2013  04:11:00      -95.556      -28.654       -7.555       26.693       27.499       21.152      712.490      756.198      447.394        0.596        0.096       99.759       18.369        0.034      342.017       17.131      864.794
07/10/2013  04:12:00      -98.319      -24.724      -21.899       31.385       21.233       17.784      985.045      450.823      316.258        0.625        0.088      101.380       14.577        0.021      341.997       17.100      864.790
07/10/2013  04:13:00      -66.196       -0.870       -3.140       17.902       19.681       15.644      320.485      387.328      244.738        0.267        0.048       66.201       11.995        0.033      341.991       17.089      864.778
07/10/2013  04:14:00      -58.877      -16.589       -8.749       15.729       22.403        9.389      247.409      501.903       88.155        0.233        0.042       61.169        8.118        0.018      342.237       17.506      864.758
07/10/2013  04:15:00      -46.689      -24.656       -9.472       19.067       15.692       12.017      363.567      246.253      144.406        0.182        0.038       52.800        6.065        0.013      342.382       17.753      864.750
07/10/2013  04:16:00      -92.632      -36.098       -9.037       33.826       18.796       13.145     1144.199      353.302      172.797        0.582        0.084       99.417        3.895        0.002      342.171       17.396      864.745
07/10/2013  04:17:00     -117.796      -63.938      -13.543       22.350       19.440       13.426      499.525      377.902      180.255        0.960        0.053      134.029        4.052        0.001      342.002       17.108      864.765
07/10/2013  04:18:00     -109.774      -39.896      -14.091       20.286       20.335       10.555      411.536      413.513      111.415        0.739        0.047      116.800        7.216        0.004      342.001       17.106      864.784
07/10/2013  04:19:00      -95.776      -35.770       -8.470       18.121       24.455       10.419      328.354      598.040      108.558        0.578        0.052      102.238        6.622        0.004      342.023       17.143      864.785
07/10/2013  04:20:00      -57.511      -18.352       -5.241       11.644       11.967        8.457      135.574      143.212       71.529        0.201        0.018       60.368        5.960        0.010      342.023       17.145      864.782
07/10/2013  04:21:00      -70.651       -7.686      -10.990       17.181        9.978        9.418      295.189       99.564       88.702        0.283        0.024       71.068       10.365        0.021      342.136       17.333      864.795
07/10/2013  04:22:00      -80.843       -5.161      -11.639       12.621       10.095        8.410      159.284      101.909       70.734        0.351        0.017       81.007        6.366        0.006      342.323       17.653      864.794
07/10/2013  04:23:00      -67.004      -16.258       -4.838       11.986       11.392        9.152      143.659      129.773       83.752        0.257        0.018       68.949        5.307        0.006      342.251       17.529      864.793
07/10/2013  04:24:00      -70.111      -34.786       -6.836       10.723       16.780        8.132      114.975      281.558       66.122        0.332        0.023       78.266        3.167        0.002      342.207       17.455      864.807
07/10/2013  04:25:00      -52.687      -40.404       -1.553       21.723       15.735       17.030      471.896      247.588      290.012        0.271        0.050       66.396       14.192        0.046      342.084       17.246      864.807
07/10/2013  04:26:00      -42.079      -11.738        0.253       13.986       22.756       10.338      195.616      517.843      106.878        0.136        0.041       43.685        5.245        0.014      342.134       17.330      864.795
07/10/2013  04:27:00      -35.092      -12.110       -6.547       13.848       12.991        8.771      191.776      168.770       76.935        0.093        0.022       37.123        8.111        0.048      342.308       17.627      864.780
07/10/2013  04:28:00      -36.816      -20.895       -7.649       16.235       15.557       10.582      263.581      242.021      111.970        0.123        0.031       42.333        9.674        0.052      342.379       17.748      864.775
07/10/2013  04:29:00      -64.572      -46.281      -11.170       30.672       19.620       16.291      940.800      384.955      265.398        0.401        0.080       79.445       15.354        0.037      342.193       17.431      864.789
07/10/2013  04:30:00     -100.800      -72.491       -4.969       24.470       19.590       16.022      598.789      383.772      256.714        0.834        0.062      124.159        9.939        0.006      342.056       17.199      864.808
07/10/2013  04:31:00      -86.305      -61.997        3.867       29.839       25.640       20.319      890.391      657.409      412.851        0.663        0.098      106.265       14.726        0.019      341.915       16.958      864.815
07/10/2013  04:32:00      -81.034      -65.413        3.944       32.366       33.909       21.537     1047.574     1149.824      463.849        0.676        0.133      104.141       21.630        0.043      342.063       17.211      864.824
07/10/2013  04:33:00      -56.595      -42.641        2.446       38.568       27.385       21.024     1487.508      749.921      442.019        0.385        0.134       70.860       20.119        0.081      342.070       17.223      864.829
07/10/2013  04:34:00      -64.933      -54.104        3.032       46.292       29.427       23.758     2142.970      865.937      564.453        0.536        0.179       84.520       24.652        0.085      342.162       17.380      864.824
07/10/2013  04:35:00      -37.688      -33.528       11.602       36.577       21.734       19.396     1337.848      472.360      376.214        0.243        0.109       50.443       21.677        0.185      342.233       17.497      864.826
07/10/2013  04:36:00      -36.952      -46.208        3.450       42.332       26.798       23.049     1791.963      718.156      531.245        0.328        0.152       59.166       22.047        0.139      342.269       17.561      864.830
07/10/2013  04:37:00      -53.939      -51.573        1.981       46.314       36.713       27.347     2144.965     1347.872      747.884        0.491        0.212       74.626       20.913        0.079      342.215       17.470      864.828
07/10/2013  04:38:00      -96.809      -55.913        0.153       49.170       34.653       26.459     2417.723     1200.831      700.105        0.841        0.216      111.796       22.000        0.039      342.182       17.412      864.833
07/10/2013  04:39:00      -78.751      -75.959        2.912       62.653       51.108       25.492     3925.415     2612.072      649.854        0.958        0.359      109.414       28.709        0.069      342.167       17.387      864.844
07/10/2013  04:40:00      -94.862      -51.334        4.206       60.399       36.778       24.402     3648.010     1352.591      595.435        0.862        0.280      107.861       30.249        0.079      342.089       17.255      864.849
07/10/2013  04:41:00     -109.893      -51.744        1.044       40.431       27.330       23.201     1634.626      746.908      538.280        0.884        0.146      121.466       21.203        0.030      341.944       17.008      864.854
07/10/2013  04:42:00     -100.493      -51.043        1.312       48.429       31.611       19.534     2345.409      999.241      381.578        0.822        0.186      112.713       21.991        0.038      341.896       16.927      864.850
07/10/2013  04:43:00     -101.179      -34.754       -6.532       44.312       36.156       20.104     1963.585     1307.280      404.167        0.758        0.184      106.982       17.063        0.025      341.899       16.932      864.842
07/10/2013  04:44:00      -85.171      -37.097       -4.360       38.958       27.421       18.018     1517.720      751.933      324.660        0.562        0.130       92.900       17.974        0.037      341.787       16.743      864.837
07/10/2013  04:45:00      -80.768      -12.055        0.163       31.220       21.246       17.504      974.684      451.409      306.374        0.420        0.087       81.663       13.436        0.027      341.713       16.615      864.835
07/10/2013  04:46:00     -111.137      -32.269        1.396       41.189       25.775       17.481     1696.553      664.343      305.592        0.803        0.133      115.726       20.187        0.030      341.707       16.606      864.846
07/10/2013  04:47:00      -77.273      -17.503       -2.950       32.587       20.851       15.451     1061.912      434.773      238.733        0.401        0.087       79.230       13.344        0.028      341.719       16.628      864.844
07/10/2013  04:48:00     -133.401      -56.947      -12.023       22.236       25.277       15.761      494.449      638.943      248.396        1.128        0.069      145.047       12.206        0.007      341.700       16.594      864.842
07/10/2013  04:49:00      -98.235      -40.056      -13.109       60.367       28.647       18.832     3644.141      820.648      354.631        0.812        0.241      106.088       20.148        0.036      341.664       16.532      864.853
07/10/2013  04:50:00     -155.218      -57.424      -11.487       23.355       17.986        9.908      545.456      323.485       98.170        1.424        0.048      165.499        6.408        0.001      341.562       16.360      864.862
07/10/2013  04:51:00     -118.321      -51.915       -7.957       19.665       14.306       13.489      386.713      204.654      181.954        0.877        0.039      129.209        7.910        0.004      341.614       16.450      864.860
07/10/2013  04:52:00     -117.346      -76.748      -10.508       34.334       26.479       20.733     1178.802      701.163      429.859        1.104        0.115      140.215       20.307        0.021      341.704       16.602      864.866
07/10/2013  04:53:00     -139.373      -85.619      -15.344       29.444       37.495       22.950      866.962     1405.905      526.693        1.489        0.140      163.571       13.598        0.007      341.640       16.493      864.873
07/10/2013  04:54:00     -143.684      -39.017      -11.010       19.289       30.891       15.732      372.070      954.273      247.500        1.193        0.079      148.887       11.110        0.006      341.491       16.239      864.883
07/10/2013  04:55:00     -123.647       -0.310      -10.116       43.225       31.632       24.862     1868.382     1000.600      618.118        0.944        0.174      123.647       21.684        0.031      341.392       16.072      864.893
07/10/2013  04:56:00     -197.861       12.769      -19.325       39.453       23.290       16.080     1556.505      542.406      258.559        2.102        0.118      198.273        8.543        0.002      341.430       16.134      864.896
07/10/2013  04:57:00     -167.171      -14.093      -14.191       40.687       52.248       26.578     1655.468     2729.902      706.375        1.672        0.255      167.764       17.438        0.011      341.437       16.149      864.898
07/10/2013  04:58:00     -175.382      -13.833      -14.467       75.752       51.921       31.612     5738.358     2695.745      999.304        2.029        0.472      175.927       32.057        0.033      341.426       16.128      864.899
07/10/2013  04:59:00     -191.363       -1.178      -22.719       52.026       43.229       29.367     2706.659     1868.775      862.433        2.129        0.272      191.367       26.844        0.020      341.462       16.189      864.905
07/10/2013  05:00:00     -181.894        2.869      -22.227       55.445       60.903       28.463     3074.162     3709.174      810.132        2.059        0.380      181.917       23.021        0.016      341.455       16.178      864.921
07/10/2013  05:01:00     -145.562      -15.933      -14.485       56.309       70.565       34.920     3170.649     4979.407     1219.380        1.551        0.468      146.431       31.197        0.045      341.519       16.287      864.927
07/10/2013  05:02:00     -153.607        4.792      -11.476       71.269       51.698       33.701     5079.246     2672.650     1135.780        1.632        0.444      153.682       33.671        0.048      341.519       16.286      864.945
07/10/2013  05:03:00     -189.128       -4.114      -27.647       23.811       21.587       17.164      566.961      465.978      294.601        1.894        0.066      189.173        2.545        0.000      341.515       16.280      864.968
07/10/2013  05:04:00     -129.672        3.715      -11.000       29.577       33.298       21.663      874.779     1108.788      469.272        0.970        0.123      129.726       11.648        0.008      341.565       16.367      864.973
07/10/2013  05:05:00     -124.230      -19.615       -0.856       54.412       46.579       28.636     2960.643     2169.621      820.032        1.088        0.298      125.769       27.261        0.047      341.536       16.317      864.994
07/10/2013  05:06:00     -158.604       33.423      -13.786       60.716       34.964       27.498     3686.489     1222.479      756.147        1.606        0.283      162.087       30.500        0.035      341.691       16.579      865.000
07/10/2013  05:07:00     -133.822        7.117      -19.876       39.016       56.090       19.982     1522.235     3146.076      399.295        1.171        0.253      134.012       14.179        0.011      341.562       16.360      865.018
07/10/2013  05:08:00     -134.119      -43.393       -9.906       34.319       47.900       22.533     1177.807     2294.417      507.759        1.197        0.199      140.964       12.716        0.008      341.595       16.418      865.029
07/10/2013  05:09:00     -105.180      -28.405      -12.509       41.445       31.366       23.572     1717.701      983.795      555.663        0.764        0.163      108.948       19.261        0.031      341.562       16.360      865.035
07/10/2013  05:10:00     -148.082      -14.043      -15.473       55.536       36.493       20.704     3084.232     1331.738      428.644        1.360        0.242      148.746       21.998        0.022      341.576       16.384      865.025
07/10/2013  05:11:00     -128.431      -20.672       -8.703       38.782       33.156       23.669     1504.054     1099.316      560.218        1.008        0.158      130.084       20.256        0.024      341.587       16.402      865.027
07/10/2013  05:12:00     -150.948       -8.014       -8.409       44.156       49.671       31.396     1949.776     2467.224      985.706        1.416        0.270      151.161       28.780        0.036      341.646       16.504      865.031
07/10/2013  05:13:00     -152.075      -39.696      -12.501       38.157       36.008       22.123     1455.974     1296.598      489.435        1.405        0.162      157.170       18.793        0.014      341.555       16.348      865.031
07/10/2013  05:14:00     -146.448      -40.953      -10.961       33.174       33.384       19.851     1100.535     1114.522      394.077        1.293        0.130      152.066       11.597        0.006      341.548       16.336      865.030
07/10/2013  05:15:00     -165.834      -33.329      -11.298       38.651       41.230       22.361     1493.912     1699.925      500.036        1.622        0.185      169.150       15.218        0.008      341.545       16.331      865.014
07/10/2013  05:16:00     -194.118       23.591      -18.779       54.721       45.867       23.512     2994.401     2103.785      552.812        2.212        0.283      195.546       20.305        0.011      341.561       16.356      864.998
07/10/2013  05:17:00     -124.458        9.104       -5.325       57.311       60.741       29.718     3284.540     3689.422      883.138        1.173        0.393      124.790       27.585        0.049      341.576       16.383      865.011
07/10/2013  05:18:00     -151.153      -69.012      -19.823       50.553       36.778       26.263     2555.577     1352.657      689.723        1.630        0.230      166.162       19.528        0.014      341.589       16.404      865.017
07/10/2013  05:19:00     -182.474      -65.738      -19.205       39.853       39.348       25.553     1588.274     1548.292      652.939        2.089        0.189      193.954       23.052        0.014      341.498       16.249      865.043
07/10/2013  05:20:00     -199.113      -18.149      -27.038       36.703       24.881       17.284     1347.120      619.046      298.737        2.149        0.113      199.939       11.405        0.003      341.487       16.232      865.042
07/10/2013  05:21:00     -184.240       37.781      -13.597       32.556       25.977       23.552     1059.921      674.782      554.713        1.892        0.114      188.074       12.558        0.004      341.484       16.228      865.033
07/10/2013  05:22:00     -181.402       -7.784      -21.980       39.796       46.256       23.967     1583.758     2139.625      574.415        1.887        0.215      181.569       19.191        0.011      341.492       16.240      865.039
07/10/2013  05:23:00     -112.527      -28.343       -4.916       38.931       42.822       22.204     1515.592     1833.725      493.031        0.867        0.192      116.042        9.994        0.007      341.464       16.194      865.038
07/10/2013  05:24:00     -163.749       -6.989      -15.003       48.782       32.154       24.767     2379.727     1033.881      613.417        1.556        0.201      163.898       24.407        0.022      341.502       16.258      865.056
07/10/2013  05:25:00     -128.178      -19.487       -5.978       49.400       41.604       27.822     2440.406     1730.918      774.074        1.089        0.247      129.650       28.146        0.047      341.522       16.292      865.062
07/10/2013  05:26:00      -82.004      -28.053      -12.623       31.433       34.047       16.566      988.047     1159.220      274.441        0.505        0.121       86.669       15.289        0.031      341.548       16.336      865.052
07/10/2013  05:27:00     -102.934      -13.000       -1.596       50.925       30.239       18.881     2593.400      914.408      356.493        0.731        0.193      103.752       20.004        0.037      341.529       16.304      865.048
07/10/2013  05:28:00     -143.265      -10.825      -13.954       36.206       36.834       17.595     1310.839     1356.727      309.572        1.191        0.149      143.673       13.176        0.008      341.519       16.286      865.047
07/10/2013  05:29:00     -114.447      -32.609       -1.997       47.640       34.552       23.404     2269.570     1193.851      547.741        0.909        0.201      119.001       26.339        0.049      341.428       16.133      865.061
07/10/2013  05:30:00     -129.405      -60.580       -2.253       33.804       29.795       21.379     1142.703      887.751      457.051        1.145        0.124      142.883       15.574        0.012      341.534       16.312      865.058
07/10/2013  05:31:00     -103.854      -10.304       -3.770       30.141       28.740       16.745      908.487      826.015      280.380        0.646        0.101      104.364       16.348        0.025      341.538       16.319      865.044
07/10/2013  05:32:00     -109.930       -6.853      -12.902       29.861       14.672       12.743      891.655      215.260      162.374        0.678        0.063      110.144       14.150        0.017      341.542       16.326      865.013
07/10/2013  05:33:00      -61.451      -11.507       -3.186       50.030       31.837       24.053     2503.022     1013.563      578.543        0.401        0.205       62.519       25.716        0.169      341.418       16.116      865.001
07/10/2013  05:34:00      -67.715      -18.148       -3.694       34.884       30.352       19.628     1216.880      921.272      385.269        0.373        0.126       70.104       12.013        0.029      341.412       16.106      865.022
07/10/2013  05:35:00     -134.033      -29.339      -13.330       30.798       27.875       16.248      948.539      777.023      264.010        1.050        0.099      137.207       11.462        0.007      341.392       16.072      865.044
07/10/2013  05:36:00     -118.908      -67.842        3.704       44.740       48.698       28.726     2001.693     2371.495      825.196        1.198        0.260      136.900       21.225        0.024      341.467       16.200      865.074
07/10/2013  05:37:00     -128.021      -75.128      -10.230       39.755       32.924       22.435     1580.474     1083.990      503.328        1.265        0.158      148.437       17.973        0.015      341.549       16.339      865.082
07/10/2013  05:38:00     -147.541      -62.010      -13.170       18.328       20.771       14.797      335.911      431.437      218.966        1.339        0.049      160.042        9.595        0.004      341.543       16.327      865.057
07/10/2013  05:39:00     -151.877      -17.794      -17.015       33.383       27.575       20.968     1114.407      760.357      439.655        1.299        0.116      152.916       16.435        0.012      341.533       16.311      865.027
07/10/2013  05:40:00     -146.865      -19.915       -5.155       70.289       44.318       32.558     4940.540     1964.113     1060.004        1.498        0.398      148.209       38.503        0.067      341.525       16.297      865.020
07/10/2013  05:41:00     -124.757      -13.473       -3.360       46.213       41.736       26.067     2135.657     1741.914      679.502        1.016        0.228      125.483       22.181        0.031      341.497       16.250      865.010
07/10/2013  05:42:00      -90.766      -42.929       -3.579       38.890       35.891       20.397     1512.468     1288.177      416.055        0.665        0.161      100.406        6.143        0.004      341.471       16.205      865.030
07/10/2013  05:43:00     -103.543      -53.917       -4.272       42.560       39.526       18.638     1811.324     1562.298      347.386        0.868        0.186      116.740       18.662        0.026      341.417       16.115      865.061
07/10/2013  05:44:00      -63.328      -28.370       -1.543       45.683       41.294       21.941     2086.942     1705.220      481.423        0.454        0.214       69.392       16.083        0.054      341.454       16.178      865.068
07/10/2013  05:45:00      -12.539       -9.811        7.287       14.203       14.617        9.893      201.717      213.660       97.869        0.041        0.026       15.921        7.232        0.206      341.406       16.096      865.069
07/10/2013  05:46:00      -58.545      -26.613      -14.455       34.126       22.363       13.178     1164.570      500.087      173.659        0.309        0.092       64.310        7.233        0.013      341.460       16.186      865.068
07/10/2013  05:47:00      -18.600      -23.373      -11.096       31.795       22.022       14.572     1010.941      484.980      212.341        0.136        0.085       29.871       15.778        0.279      341.432       16.140      865.064
07/10/2013  05:48:00      -17.330      -34.625      -12.009       26.677       24.708       16.517      711.652      610.474      272.825        0.162        0.080       38.720       11.414        0.087      341.423       16.125      865.084
07/10/2013  05:49:00      -73.578      -41.759       -6.987       39.350       11.177       14.087     1548.450      124.936      198.446        0.454        0.094       84.602       10.276        0.015      341.414       16.109      865.088
07/10/2013  05:50:00      -55.571      -32.652        1.904       46.622       17.323       19.697     2173.604      300.076      387.963        0.351        0.143       64.454       24.850        0.149      341.498       16.252      865.106
07/10/2013  05:51:00      -49.237      -62.382        2.205       52.917       56.532       25.581     2800.176     3195.913      654.403        0.648        0.333       79.472       27.190        0.117      341.561       16.358      865.131
07/10/2013  05:52:00     -140.651      -94.144       -1.742       82.817       72.017       47.745     6858.729     5186.486     2279.618        2.148        0.716      169.251       42.619        0.063      341.319       15.948      865.146
07/10/2013  05:53:00     -158.937     -120.690       -8.379       55.835       48.500       34.834     3117.540     2352.207     1213.394        2.329        0.334      199.567       34.579        0.030      341.347       15.995      865.153
07/10/2013  05:54:00     -129.596      -85.280       -3.176       52.696       43.851       24.231     2776.852     1922.878      587.164        1.468        0.264      155.138       21.501        0.019      341.391       16.070      865.153
07/10/2013  05:55:00     -114.559      -86.202       -5.010       29.716       27.235       26.649      883.045      741.750      710.179        1.146        0.117      143.369       18.361        0.016      341.372       16.038      865.145
07/10/2013  05:56:00     -105.388      -86.591       -6.306       28.765       31.966       18.396      827.448     1021.851      338.419        1.042        0.109      136.399       14.577        0.011      341.367       16.029      865.132
07/10/2013  05:57:00      -96.023      -53.196       -4.945       27.430       18.532       17.034      752.383      343.434      290.173        0.673        0.069      109.773       16.825        0.023      341.425       16.128      865.119
07/10/2013  05:58:00     -130.936      -39.761      -17.882       16.901       18.376       12.399      285.630      337.668      153.724        0.991        0.039      136.840        5.211        0.001      341.566       16.368      865.103
07/10/2013  05:59:00     -113.409      -55.817       -6.957       38.058       24.070       17.321     1448.423      579.365      300.028        0.918        0.116      126.400       18.503        0.021      341.557       16.351      865.094
07/10/2013  06:00:00     -101.172      -69.747        8.707       62.128       43.236       27.274     3859.894     1869.320      743.854        1.082        0.324      122.883       29.873        0.059      341.469       16.202      865.114
07/10/2013  06:01:00     -146.903     -143.073       -5.986       66.935       53.341       34.095     4480.287     2845.269     1162.466        2.529        0.424      205.062       36.339        0.031      341.436       16.144      865.136
07/10/2013  06:02:00     -172.549     -101.375       -3.564       60.915       54.181       36.572     3710.645     2935.591     1337.516        2.402        0.399      200.125       34.319        0.029      341.456       16.179      865.141
07/10/2013  06:03:00     -153.937      -59.195       -6.526       53.818       36.765       23.662     2896.369     1351.678      559.899        1.602        0.240      164.927       23.065        0.020      341.507       16.265      865.135
07/10/2013  06:04:00     -147.758      -66.440       -3.662       51.227       34.019       22.819     2624.215     1157.286      520.703        1.528        0.215      162.008       25.673        0.025      341.505       16.264      865.130
07/10/2013  06:05:00     -112.147     -104.366        1.923       63.861       50.126       31.896     4078.183     2512.626     1017.358        1.554        0.380      153.196       24.705        0.026      341.520       16.288      865.133
07/10/2013  06:06:00     -151.010     -122.944       -2.595       61.396       50.243       30.926     3769.449     2524.345      956.444        2.259        0.363      194.728       29.035        0.022      341.383       16.056      865.141
07/10/2013  06:07:00     -144.548      -99.515       -4.697       66.981       42.329       29.243     4486.417     1791.731      855.125        1.897        0.357      175.491       29.273        0.028      341.482       16.223      865.142
07/10/2013  06:08:00     -143.734      -27.008       -2.079       46.116       41.392       26.333     2126.658     1713.261      693.435        1.296        0.227      146.250       22.836        0.024      341.571       16.374      865.142
07/10/2013  06:09:00     -123.035      -49.784      -11.020       29.436       27.966       23.351      866.472      782.119      545.281        0.997        0.110      132.726       17.105        0.017      341.597       16.419      865.120
07/10/2013  06:10:00     -119.670      -36.162       -7.153       32.777       37.789       16.354     1074.323     1427.982      267.460        0.922        0.138      125.014       13.667        0.012      341.683       16.565      865.104
07/10/2013  06:11:00     -142.964      -24.652      -16.199       25.719       25.580       17.541      661.490      654.328      307.685        1.147        0.081      145.074        7.807        0.003      341.538       16.320      865.089
07/10/2013  06:12:00      -86.785      -33.666        0.294       37.353       46.567       29.416     1395.260     2168.464      865.303        0.655        0.221       93.086       28.048        0.091      341.676       16.555      865.068
07/10/2013  06:13:00     -114.528      -22.306        2.065       39.383       22.654       20.609     1551.009      513.200      424.736        0.805        0.124      116.679       21.456        0.034      341.594       16.415      865.060
07/10/2013  06:14:00     -140.621      -43.751       -8.973       20.205       22.771       10.352      408.258      518.514      107.167        1.140        0.052      147.270        6.708        0.002      341.549       16.338      865.068
07/10/2013  06:15:00     -126.284      -47.022       -6.041       40.173       28.742       19.172     1613.865      826.119      367.551        1.050        0.140      134.754       18.870        0.020      341.555       16.349      865.067
07/10/2013  06:16:00     -161.650      -11.883      -11.498       31.709       36.387       20.433     1005.473     1324.037      417.487        1.458        0.137      162.086       16.558        0.010      341.655       16.518      865.054
07/10/2013  06:17:00     -124.891       -3.268      -16.094       33.245       24.053       22.441     1105.228      578.540      503.588        0.903        0.109      124.934       13.873        0.012      341.911       16.953      865.020
07/10/2013  06:18:00      -45.000        2.754       -3.987       32.994       27.479       20.270     1088.599      755.095      410.887        0.215        0.113       45.084       11.645        0.067      342.009       17.118      865.006
07/10/2013  06:19:00      -97.015       -8.689       -7.490       40.967       39.766       20.970     1678.296     1581.336      439.731        0.662        0.185       97.403       14.224        0.021      341.855       16.857      864.996
07/10/2013  06:20:00     -104.248      -41.268      -11.190       52.571       40.558       22.957     2763.665     1644.943      527.030        0.881        0.247      112.119       24.296        0.047      341.734       16.652      864.989
07/10/2013  06:21:00      -95.805      -56.709       -0.501       30.846       39.752       22.077      951.497     1580.187      487.409        0.771        0.151      111.331       16.464        0.022      341.708       16.610      864.994
07/10/2013  06:22:00     -103.157      -27.160       -3.438       59.427       39.418       26.296     3531.581     1553.782      691.484        0.858        0.289      106.672       28.438        0.071      341.719       16.627      865.009
07/10/2013  06:23:00      -61.983      -58.868       -2.422       44.883       27.284       22.378     2014.489      744.405      500.769        0.529        0.163       85.483       26.966        0.100      341.735       16.654      865.021
07/10/2013  06:24:00      -48.316      -40.151       -3.540       39.405       23.380       19.671     1552.718      546.623      386.954        0.322        0.124       62.822       16.044        0.065      341.837       16.826      865.031
07/10/2013  06:25:00      -50.408      -65.684       10.291       47.176       33.930       25.980     2225.537     1151.220      674.983        0.551        0.203       82.797       28.379        0.117      341.921       16.970      865.051
07/10/2013  06:26:00       -1.645      -26.638        2.158       29.199       26.122       19.284      852.607      682.338      371.878        0.131        0.095       26.689       13.896        0.271      342.005       17.112      865.051
07/10/2013  06:27:00      -15.324      -20.461        2.672       19.728       26.292       20.618      389.202      691.282      425.105        0.108        0.075       25.564       12.830        0.252      341.955       17.026      865.039
07/10/2013  06:28:00       10.315      -24.169        7.144       21.984       23.823       17.804      483.314      567.555      316.984        0.105        0.068       26.279        9.105        0.120      341.745       16.670      865.037
07/10/2013  06:29:00       14.262      -22.152        4.973       20.825       19.373       15.192      433.661      375.321      230.800        0.088        0.052       26.346        8.783        0.111      341.588       16.405      865.036
07/10/2013  06:30:00      -14.111      -21.097        4.863       40.574       33.696       27.962     1646.251     1135.395      781.860        0.211        0.178       25.381       20.257        0.637      341.792       16.750      865.071
07/10/2013  06:31:00      -78.509     -114.247        3.784       63.741       66.050       32.388     4062.880     4362.599     1048.999        1.435        0.474      138.622       27.123        0.038      341.712       16.613      865.105
07/10/2013  06:32:00      -49.375      -84.287       10.656       47.978       50.976       38.879     2301.905     2598.574     1511.560        0.803        0.321       97.684       30.623        0.098      341.659       16.525      865.132
07/10/2013  06:33:00      -46.372      -38.534      -12.006       43.537       24.963       18.983     1895.437      623.142      360.369        0.333        0.144       60.293        7.638        0.016      341.753       16.684      865.126
07/10/2013  06:34:00      -41.715      -21.075       -8.242       23.252       17.136       17.577      540.646      293.640      308.945        0.170        0.057       46.737       12.334        0.070      341.872       16.887      865.113
07/10/2013  06:35:00      -47.988      -58.975       -5.295       27.819       28.163       17.475      773.915      793.165      305.379        0.384        0.094       76.032       15.110        0.039      341.912       16.955      865.108
07/10/2013  06:36:00      -65.951      -93.582       -3.489       38.929       37.671       19.099     1515.496     1419.068      364.783        0.821        0.165      114.486       22.499        0.039      341.781       16.731      865.108
07/10/2013  06:37:00      -89.895      -64.940      -10.583       22.512       24.523       16.726      506.768      601.368      279.771        0.690        0.069      110.898       12.212        0.012      341.752       16.683      865.098
07/10/2013  06:38:00      -69.866      -53.105       -7.215       23.757       21.178       12.439      564.416      448.496      154.719        0.446        0.058       87.757        8.186        0.009      341.758       16.693      865.074
07/10/2013  06:39:00      -56.540      -53.151       -9.573       20.122       15.884       10.739      404.889      252.293      115.332        0.344        0.039       77.601        8.174        0.011      341.788       16.746      865.061
07/10/2013  06:40:00      -40.066      -42.851       -6.977       23.590       10.451       10.392      556.473      109.219      107.986        0.213        0.039       58.665        4.894        0.007      341.859       16.862      865.060
07/10/2013  06:41:00       19.555      -19.312       14.756       14.164       14.469       14.620      200.627      209.354      213.756        0.080        0.031       27.483        9.603        0.122      341.994       17.093      865.066
07/10/2013  06:42:00       12.758      -26.172        4.760       12.031       12.300       18.445      144.739      151.287      340.210        0.075        0.032       29.116        8.829        0.092      341.923       16.973      865.069
07/10/2013  06:43:00       20.572      -33.994       -2.540       27.405       15.053       16.222      751.056      226.598      263.157        0.141        0.062       39.734        8.260        0.043      341.528       16.304      865.084
07/10/2013  06:44:00      -48.825      -30.508        3.586       46.525       34.673       17.599     2164.547     1202.211      309.737        0.350        0.184       57.573       22.563        0.154      342.124       17.314      865.094
07/10/2013  06:45:00     -124.433      -95.932      -14.453       21.602       24.965       14.215      466.635      623.248      202.080        1.309        0.065      157.120        6.587        0.002      341.825       16.806      865.110
07/10/2013  06:46:00     -108.420      -58.325       -3.159       30.851       25.243       17.817      951.766      637.220      317.435        0.854        0.095      123.112       16.671        0.018      341.880       16.899      865.110
07/10/2013  06:47:00      -20.984      -34.028        2.128       44.401       17.013       11.702     1971.423      289.458      136.929        0.200        0.120       39.978       17.929        0.201      341.994       17.093      865.125
07/10/2013  06:48:00       38.017      -84.276      -12.635       36.824       36.326       24.797     1355.993     1319.554      614.910        0.600        0.165       92.454       20.049        0.047      341.738       16.660      865.131
07/10/2013  06:49:00       -2.548      -49.070        8.193       29.988       30.850       15.045      899.251      951.743      226.349        0.228        0.104       49.136       12.680        0.067      341.898       16.932      865.139
07/10/2013  06:50:00      -28.352      -14.798       12.154       31.150       19.837       18.319      970.353      393.491      335.579        0.143        0.085       31.982       15.985        0.250      342.219       17.477      865.155
07/10/2013  06:51:00      -39.285      -44.897       -0.351       32.052       29.742       15.857     1027.346      884.561      251.452        0.286        0.108       59.658       14.939        0.063      342.017       17.131      865.161
07/10/2013  06:52:00      -69.802      -77.221       -3.184       45.335       30.024       21.332     2055.245      901.447      455.062        0.713        0.171      104.094       18.792        0.033      341.974       17.060      865.158
07/10/2013  06:53:00      -12.870      -39.925        3.332       23.732       43.948       22.129      563.194     1931.448      489.672        0.238        0.149       41.948       18.504        0.195      342.129       17.323      865.148
07/10/2013  06:54:00      -61.580       -1.087       -8.664       22.388       17.118       16.805      501.235      293.023      282.391        0.247        0.054       61.590        8.683        0.020      342.099       17.272      865.124
07/10/2013  06:55:00      -51.815      -42.355       -1.593       13.675       11.533        8.258      187.018      133.003       68.196        0.243        0.019       66.923        3.152        0.002      342.178       17.406      865.126
07/10/2013  06:56:00      -35.755      -42.938        7.164       27.247       21.675       13.090      742.394      469.796      171.357        0.228        0.069       55.876       15.190        0.074      342.315       17.638      865.141
07/10/2013  06:57:00      -11.582      -38.280        8.957       27.482       28.323       21.022      755.251      802.193      441.925        0.184        0.100       39.993       22.312        0.311      342.497       17.948      865.159
07/10/2013  06:58:00      -39.203      -57.739        2.045       24.910       28.567       16.228      620.509      816.060      263.358        0.329        0.085       69.791       15.385        0.049      342.215       17.469      865.179
07/10/2013  06:59:00      -41.524      -35.545        0.669       18.591       13.147       10.055      345.630      172.844      101.105        0.180        0.031       54.660        5.749        0.011      342.261       17.546      865.200
07/10/2013  07:00:00      -17.066      -13.292       -0.020        5.641        6.048        4.597       31.824       36.577       21.137        0.028        0.004       21.632        3.197        0.022      342.356       17.709      865.208
07/10/2013  07:01:00       -8.725      -15.638        1.488       10.169        7.678       11.455      103.403       58.958      131.214        0.031        0.015       17.907        7.802        0.190      342.528       18.000      865.213
07/10/2013  07:02:00       27.537      -21.940       -7.146       29.353       19.262       17.388      861.604      371.040      302.345        0.141        0.077       35.209       10.152        0.083      342.140       17.341      865.214
07/10/2013  07:03:00       34.858      -44.573        3.276       39.526       31.646       21.781     1562.271     1001.457      474.392        0.312        0.152       56.584       13.292        0.055      342.213       17.466      865.204
07/10/2013  07:04:00        4.742      -31.968        1.278       20.491       14.501       20.233      419.896      210.274      409.358        0.104        0.052       32.318       10.869        0.113      342.071       17.224      865.191
07/10/2013  07:05:00       22.765        7.059       23.946       24.552       13.223       14.973      602.777      174.844      224.179        0.107        0.050       23.835        6.868        0.083      342.458       17.881      865.186
07/10/2013  07:06:00       -2.728       12.162        5.010       13.596       13.226       16.090      184.848      174.919      258.902        0.040        0.031       12.464        8.646        0.481      342.543       18.027      865.188
07/10/2013  07:07:00       -7.349        5.503        4.875       16.269       10.755       16.330      264.677      115.670      266.671        0.038        0.032        9.181        9.754        1.129      342.663       18.230      865.200
07/10/2013  07:08:00      -13.199      -35.885        1.362       28.479       25.321       21.378      811.038      641.172      456.998        0.169        0.095       38.236       19.411        0.258      342.289       17.595      865.215
07/10/2013  07:09:00       -0.068      -49.342      -18.692       28.712       19.265       20.565      824.406      371.152      422.936        0.220        0.081       49.342       11.975        0.059      342.443       17.857      865.241
07/10/2013  07:10:00       15.880      -32.382        9.865       24.957       26.058       22.508      622.854      679.011      506.625        0.160        0.090       36.067       16.390        0.207      342.623       18.162      865.261
07/10/2013  07:11:00      -21.558       -6.888       18.890       15.647       14.430       12.072      244.835      208.222      145.740        0.073        0.030       22.632        6.917        0.093      342.910       18.651      865.271
07/10/2013  07:12:00       15.093       -8.877        9.791       35.266       16.354       20.890     1243.670      267.439      436.405        0.117        0.097       17.510        6.803        0.151      342.731       18.346      865.268
07/10/2013  07:13:00       16.908      -20.825        0.015       22.884       16.708       14.329      523.661      279.153      205.323        0.086        0.050       26.824        7.622        0.081      342.444       17.857      865.265
07/10/2013  07:14:00        4.349       -7.135       -2.764       13.509       13.046       13.843      182.490      170.201      191.635        0.031        0.027        8.356        7.037        0.709      342.862       18.569      865.272
07/10/2013  07:15:00      -13.874      -22.865       -4.412       24.357       20.188       14.397      593.249      407.549      207.265        0.097        0.060       26.745       12.725        0.226      342.754       18.385      865.288
07/10/2013  07:16:00       15.075      -21.786       -2.532       19.829       19.904       22.973      393.173      396.188      527.753        0.101        0.066       26.493       15.698        0.351      342.761       18.398      865.312
07/10/2013  07:17:00        0.453      -21.056        7.229       14.882       16.289       15.473      221.481      265.344      239.414        0.061        0.036       21.060        6.782        0.104      342.960       18.735      865.331
07/10/2013  07:18:00      -16.297       -7.971       11.305       33.989       17.688       22.055     1155.269      312.870      486.405        0.121        0.098       18.142       17.559        0.937      343.088       18.955      865.331
07/10/2013  07:19:00      -20.171       11.145        7.753       25.462       25.175       25.910      648.332      633.767      671.321        0.127        0.098       23.046       17.676        0.588      343.205       19.152      865.311
07/10/2013  07:20:00      -26.159       26.825        1.747       15.902       23.378       28.191      252.876      546.530      794.735        0.150        0.080       37.468       16.686        0.198      342.839       18.530      865.297
07/10/2013  07:21:00      -22.517       11.315       19.469       13.467       15.879       19.124      181.367      252.134      365.712        0.091        0.040       25.200        9.147        0.132      343.317       19.344      865.280
07/10/2013  07:22:00       11.690        6.560       19.404       21.240       13.133       11.958      451.130      172.469      142.993        0.066        0.038       13.405        9.353        0.487      343.316       19.343      865.260
07/10/2013  07:23:00       10.077       14.868       24.923       20.287       25.952       17.609      411.544      673.517      310.082        0.117        0.070       17.961       18.080        1.013      343.130       19.026      865.248
07/10/2013  07:24:00        1.006      -18.219       21.790       11.289       26.977       12.882      127.436      727.734      165.958        0.091        0.051       18.247        5.126        0.079      343.146       19.053      865.247
07/10/2013  07:25:00       18.951      -46.344      -10.927       27.963       29.831       24.629      781.929      889.861      606.596        0.245        0.114       50.069       13.223        0.070      342.843       18.537      865.253
07/10/2013  07:26:00       -9.695       -3.059       11.880       20.581       13.093       14.489      423.562      171.435      209.942        0.052        0.040       10.166        5.612        0.305      343.168       19.090      865.274
07/10/2013  07:27:00      -39.886       -1.464       -0.084       17.933       15.582        9.537      321.589      242.805       90.961        0.112        0.033       39.913        9.628        0.058      342.896       18.625      865.279
07/10/2013  07:28:00      -40.276       -0.885       -2.514       25.099        8.439        8.899      629.943       71.221       79.187        0.120        0.039       40.286        5.064        0.016      342.990       18.787      865.274
07/10/2013  07:29:00       24.060       16.044       11.240       25.045       15.886       18.329      627.249      252.359      335.963        0.109        0.061       28.919        7.896        0.075      343.377       19.445      865.262
07/10/2013  07:30:00       15.596       28.786       23.873       32.143       26.785       23.556     1033.145      717.410      554.888        0.197        0.115       32.740       19.716        0.363      343.746       20.076      865.261
07/10/2013  07:31:00        9.690        6.850       20.928       24.344       14.335       19.129      592.630      205.503      365.936        0.087        0.058       11.867        5.089        0.184      343.992       20.496      865.276
07/10/2013  07:32:00       -0.263      -13.347       33.040       14.055       22.003        9.619      197.531      484.129       92.532        0.102        0.039       13.349        5.235        0.154      343.859       20.270      865.301
07/10/2013  07:33:00        5.137       12.718       28.777       22.834       31.214       18.868      521.372      974.287      355.994        0.143        0.093       13.717       19.246        1.969      343.458       19.585      865.318
07/10/2013  07:34:00      -27.710      -22.885       10.149       25.115       26.112       15.790      630.757      681.847      249.320        0.148        0.078       35.938       17.053        0.225      343.234       19.202      865.319
07/10/2013  07:35:00      -34.651      -20.636        6.340       23.750       23.514       14.196      564.043      552.926      201.532        0.149        0.066       40.330        7.543        0.035      343.092       18.960      865.312
07/10/2013  07:36:00      -52.695      -82.831        1.802       33.974       45.164       21.359     1154.247     2039.807      456.217        0.664        0.183       98.172       22.358        0.052      343.013       18.827      865.313
07/10/2013  07:37:00      -81.034      -85.310       -6.871       28.128       31.112       24.156      791.168      967.930      583.500        0.812        0.117      117.661       19.170        0.027      342.998       18.798      865.316
07/10/2013  07:38:00      -46.147      -74.385        0.667       37.348       36.027       26.255     1394.896     1297.979      689.346        0.552        0.169       87.536       29.613        0.114      343.041       18.873      865.303
07/10/2013  07:39:00       -0.688      -37.116        2.295       11.094       33.130       13.291      123.080     1097.572      176.644        0.139        0.070       37.122        6.316        0.029      343.170       19.094      865.297
07/10/2013  07:40:00       -3.982      -21.670        6.822        7.437       27.910       17.221       55.304      778.946      296.556        0.083        0.057       22.033       15.854        0.518      343.537       19.720      865.273
07/10/2013  07:41:00        2.175      -31.790        7.606       24.057       29.349       20.444      578.750      861.339      417.961        0.147        0.093       31.865       11.970        0.141      343.187       19.123      865.258
07/10/2013  07:42:00       19.420      -43.956       -7.573       24.924       13.209       15.586      621.227      174.485      242.919        0.170        0.052       48.055       12.675        0.070      342.918       18.665      865.267
07/10/2013  07:43:00      -33.664      -32.601        6.959       32.185       19.741       13.735     1035.897      389.720      188.636        0.193        0.081       46.863       16.800        0.129      343.334       19.372      865.273
07/10/2013  07:44:00      -72.435      -64.663        3.678       36.320       32.693       21.513     1319.178     1068.816      462.830        0.615        0.143       97.099       22.251        0.053      343.268       19.260      865.280
07/10/2013  07:45:00      -55.437      -55.932       19.319       39.011       59.192       29.557     1521.826     3503.721      873.623        0.624        0.295       78.750       32.296        0.168      343.307       19.326      865.280
07/10/2013  07:46:00      -88.501      -96.886       -6.038       25.060       18.117       16.872      627.988      328.221      284.678        0.925        0.062      131.222       15.806        0.015      343.090       18.958      865.271
07/10/2013  07:47:00      -67.284      -50.184       -6.192       26.481       27.372       12.138      701.220      749.247      147.333        0.434        0.080       83.937        8.367        0.010      343.229       19.193      865.249
07/10/2013  07:48:00      -27.008      -33.387       -0.046       18.319       19.441        9.664      335.580      377.970       93.390        0.133        0.040       42.943        6.040        0.020      343.325       19.358      865.239
07/10/2013  07:49:00      -31.959      -32.584       -2.361       14.664       21.321       10.855      215.022      454.605      117.827        0.144        0.039       45.641        1.544        0.001      343.382       19.454      865.223
07/10/2013  07:50:00       -8.394      -16.776        7.382       36.500       31.341       20.418     1332.284      982.236      416.902        0.157        0.137       18.759       12.496        0.444      343.577       19.788      865.212
07/10/2013  07:51:00      -16.108      -19.233        4.185       17.945       18.426       19.877      322.020      339.525      395.087        0.085        0.053       25.087       12.132        0.234      343.424       19.527      865.219
07/10/2013  07:52:00       13.600      -15.555       27.611       21.876       31.315       18.101      478.550      980.611      327.641        0.149        0.089       20.661       17.711        0.735      344.045       20.587      865.224
07/10/2013  07:53:00       23.474      -21.957       26.035       20.111       17.119       14.901      404.469      293.065      222.048        0.132        0.046       32.143        9.314        0.084      343.612       19.847      865.240
07/10/2013  07:54:00      -18.530      -34.387        0.382       20.239       19.175       16.885      409.624      367.691      285.114        0.129        0.053       39.062       14.708        0.142      343.495       19.648      865.256
07/10/2013  07:55:00      -46.131      -70.323      -10.006       30.749       20.725       21.164      945.489      429.532      447.933        0.450        0.091       84.103       14.061        0.028      343.533       19.711      865.260
07/10/2013  07:56:00      -19.702      -75.891       -0.008       23.855       21.996       16.900      569.058      483.809      285.621        0.374        0.067       78.407       12.886        0.027      343.477       19.617      865.269
07/10/2013  07:57:00       -2.538      -81.856       -3.882       16.033       14.381       20.826      257.050      206.805      433.721        0.381        0.045       81.895       11.122        0.018      343.504       19.664      865.275
07/10/2013  07:58:00        7.856      -49.976       -3.537       24.765       29.115       32.241      613.319      847.698     1039.492        0.254        0.125       50.590       15.437        0.093      343.308       19.327      865.262
07/10/2013  07:59:00        1.829      -13.312       22.942       13.506       28.111       15.994      182.412      790.226      255.803        0.097        0.061       13.437       14.052        1.094      344.028       20.556      865.263
07/10/2013  08:00:00       11.650       -7.832        9.213       12.622       14.313       17.239      159.315      204.853      297.195        0.047        0.033       14.038       10.827        0.595      343.904       20.345      865.266
07/10/2013  08:01:00       -0.149       -0.770       25.257       21.763       21.508       14.423      473.625      462.611      208.010        0.089        0.057        0.785       11.324      208.277      344.107       20.692      865.262
07/10/2013  08:02:00      -18.841        5.488       14.401       13.390        9.879       17.652      179.286       97.591      311.605        0.059        0.029       19.624       12.931        0.434      344.337       21.085      865.264
07/10/2013  08:03:00       -8.865        1.643       16.258       14.612       12.087       18.551      213.515      146.090      344.122        0.052        0.035        9.016       14.029        2.421      344.463       21.299      865.258
07/10/2013  08:04:00       39.893       24.223        0.044       22.447       16.314       19.081      503.868      266.160      364.098        0.166        0.057       46.671       15.918        0.116      343.663       19.933      865.254
07/10/2013  08:05:00       56.162       15.949        4.802       35.132       34.543       24.699     1234.262     1193.189      610.047        0.323        0.152       58.382       14.269        0.060      343.471       19.606      865.250
07/10/2013  08:06:00       30.291       -1.846       26.781       30.267       25.069       31.863      916.066      628.444     1015.254        0.210        0.128       30.347       22.254        0.538      344.174       20.807      865.250
07/10/2013  08:07:00       52.661      -20.244       12.904       37.450       29.795       27.959     1402.517      887.757      781.734        0.321        0.154       56.418       18.534        0.108      343.681       19.965      865.275
07/10/2013  08:08:00        0.914       -2.503       16.579       22.434       19.769       23.686      503.270      390.807      561.027        0.087        0.073        2.665       15.570       34.128      344.268       20.969      865.285
07/10/2013  08:09:00      -19.869       -1.147       13.327       31.157       18.857       15.803      970.771      355.604      249.743        0.107        0.079       19.902        7.314        0.135      343.951       20.425      865.296
07/10/2013  08:10:00      -35.260       14.686       14.667       13.540       16.912       17.486      183.326      286.014      305.761        0.122        0.039       38.196       12.424        0.106      344.132       20.735      865.300
07/10/2013  08:11:00        2.940       15.080       15.714       31.871       30.875       24.982     1015.774      953.244      624.089        0.154        0.130       15.364       19.947        1.686      344.364       21.131      865.303
07/10/2013  08:12:00       -6.392        0.268       10.409       18.032       17.237       18.951      325.148      297.111      359.150        0.057        0.049        6.398       10.270        2.577      344.557       21.460      865.307
07/10/2013  08:13:00        5.370      -31.331       18.736       21.874       26.082       25.867      478.468      680.257      669.078        0.159        0.091       31.788       10.870        0.117      344.070       20.627      865.312
07/10/2013  08:14:00      -10.543      -11.231        8.780       21.787       23.309       20.967      474.656      543.319      439.610        0.089        0.073       15.405       15.742        1.044      344.406       21.203      865.322
07/10/2013  08:15:00      -29.355      -22.855       35.860       24.333       35.864       18.831      592.096     1286.257      354.605        0.245        0.112       37.203       15.463        0.173      344.411       21.212      865.330
07/10/2013  08:16:00      -20.337       18.353       16.013       20.274       16.371       17.842      411.033      268.015      318.347        0.100        0.050       27.394       10.015        0.134      344.623       21.573      865.336
07/10/2013  08:17:00      -40.264       22.683       -0.936       23.725       19.460       18.842      562.885      378.690      355.005        0.172        0.065       46.214        7.838        0.029      344.212       20.871      865.346
07/10/2013  08:18:00      -11.040       16.517       13.938       26.314       17.756       23.866      692.423      315.287      569.571        0.108        0.079       19.867       17.195        0.749      344.922       22.087      865.346
07/10/2013  08:19:00       13.248       -0.993       27.353       25.627       19.317       26.407      656.743      373.161      697.320        0.133        0.086       13.285       21.214        2.550      344.994       22.209      865.346
07/10/2013  08:20:00       28.363       -5.180       34.183       31.824       33.757       22.495     1012.761     1139.541      506.010        0.233        0.133       28.832       14.223        0.243      344.464       21.302      865.347
07/10/2013  08:21:00       28.664      -16.608        7.718       34.564       28.686       28.890     1194.690      822.877      834.660        0.200        0.143       33.128       18.710        0.319      344.096       20.672      865.341
07/10/2013  08:22:00       57.749       -9.531        8.573       40.184       32.027       38.836     1614.786     1025.723     1508.272        0.382        0.207       58.530       26.181        0.200      343.983       20.480      865.342
07/10/2013  08:23:00       39.613      -10.675       28.176       39.607       37.040       27.494     1568.749     1371.983      755.946        0.309        0.185       41.026       18.139        0.195      344.336       21.082      865.329
07/10/2013  08:24:00       49.829      -15.524       11.384       33.498       33.294       26.518     1122.129     1108.461      703.209        0.289        0.147       52.191       22.905        0.193      344.204       20.858      865.333
07/10/2013  08:25:00       42.592       -8.993       15.550       43.060       34.843       34.962     1854.155     1214.010     1222.354        0.321        0.215       43.531       25.125        0.333      344.595       21.528      865.323
07/10/2013  08:26:00       -3.920       11.813       18.833       61.580       26.409       25.750     3792.116      697.445      663.078        0.283        0.258       12.446       25.962        4.351      344.400       21.193      865.326
07/10/2013  08:27:00      -39.706       -3.687       -1.538       16.812       11.483        7.358      282.637      131.861       54.134        0.103        0.023       39.877        5.390        0.018      344.376       21.152      865.332
07/10/2013  08:28:00      -19.941        1.584        0.556       28.928       13.156       17.956      836.845      173.077      322.431        0.087        0.067       20.004       15.381        0.591      344.830       21.927      865.313
07/10/2013  08:29:00      -62.368        8.187        6.022       28.128       24.850       22.319      791.176      617.545      498.146        0.295        0.095       62.903       17.859        0.081      344.537       21.427      865.301
07/10/2013  08:30:00       -5.676        7.929        9.740       38.627       24.639       19.850     1492.050      607.078      394.032        0.134        0.125        9.751       10.994        1.271      344.759       21.805      865.286
07/10/2013  08:31:00       28.522       16.863       23.349       35.020       29.044       25.547     1226.381      843.550      652.642        0.218        0.136       33.134        7.092        0.046      344.755       21.799      865.257
07/10/2013  08:32:00       57.896       24.975        8.338       28.042       26.594       23.366      786.348      707.263      545.987        0.304        0.102       63.053       12.967        0.042      344.293       21.008      865.235
07/10/2013  08:33:00       28.043      -36.514       18.027       25.172       30.932       23.532      633.605      956.760      553.744        0.229        0.107       46.040        9.588        0.043      344.274       20.978      865.217
07/10/2013  08:34:00       -4.535       24.138       34.839       26.621       25.271       18.590      708.683      638.629      345.588        0.175        0.085       24.560       14.326        0.340      345.216       22.588      865.201
07/10/2013  08:35:00       14.881       -1.909       17.877       24.343       36.117       25.444      592.567     1304.406      647.382        0.154        0.127       15.003       17.871        1.419      345.033       22.276      865.184
07/10/2013  08:36:00        9.426        1.687       38.270       33.422       31.631       27.087     1117.019     1000.525      733.682        0.220        0.143        9.576       15.639        2.667      345.222       22.599      865.174
07/10/2013  08:37:00       45.099      -16.378       17.277       40.486       24.010       39.077     1639.110      576.484     1527.037        0.317        0.187       47.981       22.571        0.221      344.685       21.679      865.183
07/10/2013  08:38:00       32.346      -10.018       32.677       37.595       30.584       34.250     1413.365      935.406     1173.063        0.287        0.176       33.862       30.042        0.787      345.181       22.529      865.193
07/10/2013  08:39:00       -1.429       19.951       43.714       27.760       35.969       29.291      770.628     1293.772      857.949        0.262        0.146       20.002       21.455        1.151      345.332       22.788      865.204
07/10/2013  08:40:00       14.230      -11.935       -3.682       33.927       24.347       25.954     1151.009      592.767      673.613        0.139        0.121       18.573       15.888        0.732      344.760       21.807      865.218
07/10/2013  08:41:00       -0.927       10.907       41.214       22.696       26.668       21.168      515.114      711.180      448.102        0.175        0.084       10.947       17.756        2.631      345.352       22.821      865.229
07/10/2013  08:42:00        9.934      -33.693       -5.145       39.754       26.263       23.823     1580.374      689.743      567.532        0.205        0.142       35.127       17.398        0.245      344.469       21.311      865.226
07/10/2013  08:43:00      -42.730      -40.299      -12.807       17.411       30.876       15.654      303.145      953.322      245.034        0.256        0.075       58.736       11.418        0.038      344.641       21.603      865.224
07/10/2013  08:44:00       -3.339      -14.456       -3.396       18.755       15.559       16.962      351.758      242.092      287.699        0.056        0.044       14.837       11.322        0.582      345.118       22.420      865.232
07/10/2013  08:45:00        2.463       23.567        8.788       25.573       29.734       32.216      654.002      884.116     1037.883        0.161        0.129       23.695       11.190        0.223      345.604       23.255      865.226
07/10/2013  08:46:00       27.617       32.279       35.643       37.196       41.678       34.130     1383.514     1737.042     1164.831        0.368        0.214       42.481       20.633        0.236      344.964       22.157      865.219
07/10/2013  08:47:00       32.545       -0.726       19.917       39.032       47.049       36.466     1523.490     2213.635     1329.765        0.326        0.253       32.553       30.104        0.855      345.001       22.219      865.211
07/10/2013  08:48:00       19.428       29.544       42.975       28.537       32.791       24.965      814.363     1075.270      623.273        0.280        0.126       35.359       10.752        0.092      345.407       22.916      865.212
07/10/2013  08:49:00       76.269       14.819       16.035       49.474       25.508       37.244     2447.697      650.656     1387.096        0.539        0.224       77.696       28.709        0.137      344.738       21.772      865.217
07/10/2013  08:50:00       82.346      -22.361        9.103       38.915       34.283       38.685     1514.388     1175.327     1496.531        0.577        0.209       85.328       30.159        0.125      344.534       21.421      865.212
07/10/2013  08:51:00       45.847        1.807        4.796       35.322       24.409       28.622     1247.634      595.782      819.196        0.239        0.133       45.883        9.352        0.042      344.734       21.764      865.219
07/10/2013  08:52:00       34.283       16.397       -6.247       24.241       25.658       23.533      587.619      658.357      553.809        0.164        0.090       38.002       16.644        0.192      344.645       21.612      865.214
07/10/2013  08:53:00       25.457       25.413      -16.553       13.758       26.409       19.161      189.292      697.452      367.147        0.141        0.063       35.970       11.421        0.101      344.791       21.861      865.211
07/10/2013  08:54:00       14.226       45.547       -1.729       14.829       30.006       17.359      219.887      900.378      301.329        0.185        0.071       47.717       12.876        0.073      345.039       22.285      865.204
07/10/2013  08:55:00       -1.659       17.326       23.063       25.156       26.405       23.272      632.848      697.237      541.592        0.135        0.094       17.405       20.652        1.408      345.915       23.788      865.194
07/10/2013  08:56:00        9.647        7.529        9.291       21.094       24.826       21.893      444.952      616.325      479.297        0.089        0.077       12.238       14.315        1.368      346.014       23.958      865.197
07/10/2013  08:57:00       11.043       12.073       29.779       19.158       31.158       18.256      367.022      970.833      333.286        0.141        0.084       16.362       16.480        1.015      346.715       25.162      865.193
07/10/2013  08:58:00       12.504       -1.185       23.991       23.959       35.192       25.165      574.022     1238.506      633.263        0.159        0.122       12.560       18.691        2.215      345.538       23.141      865.199
07/10/2013  08:59:00       35.224       35.788       37.041       41.005       39.828       19.697     1681.379     1586.261      387.964        0.377        0.183       50.215       18.068        0.129      345.650       23.333      865.214
07/10/2013  09:00:00       74.442       49.022        2.779       27.082       26.999       27.198      733.428      728.959      739.712        0.508        0.110       89.134       13.691        0.024      345.375       22.860      865.216
07/10/2013  09:01:00       71.592       45.468       25.434       33.300       36.787       28.136     1108.875     1353.304      791.636        0.555        0.163       84.810       20.677        0.059      345.497       23.070      865.216
07/10/2013  09:02:00       22.690       15.660       17.909       32.447       19.674       23.333     1052.801      387.072      544.414        0.153        0.099       27.570       20.584        0.557      345.876       23.721      865.207
07/10/2013  09:03:00      -16.677       18.881        3.391       27.718       24.584       15.898      768.275      604.389      252.750        0.114        0.081       25.192       12.745        0.256      345.889       23.742      865.213
07/10/2013  09:04:00      -39.029       12.521        5.918       12.492       19.760       13.029      156.061      390.442      169.763        0.122        0.036       40.989        6.152        0.023      345.307       22.744      865.212
07/10/2013  09:05:00      -16.962      -23.604       11.618       18.786       41.945       21.117      352.900     1759.405      445.946        0.177        0.128       29.067       15.615        0.289      345.809       23.605      865.218
07/10/2013  09:06:00      -38.055      -34.585       21.312       23.139       40.021       23.939      535.421     1601.713      573.080        0.290        0.136       51.423       25.103        0.238      345.468       23.019      865.218
07/10/2013  09:07:00       10.420       26.529       38.873       26.339       23.523       19.862      693.753      553.341      394.482        0.198        0.082       28.502       14.206        0.248      346.216       24.303      865.195
07/10/2013  09:08:00       11.635       58.078       -5.371       19.291       35.359       26.256      372.139     1250.275      689.367        0.292        0.116       59.232       25.997        0.193      345.698       23.416      865.172
07/10/2013  09:09:00       11.898       24.645       11.617       33.725       39.963       24.743     1137.359     1597.078      612.225        0.211        0.167       27.367       22.547        0.679      346.062       24.040      865.167
07/10/2013  09:10:00      -46.282        0.495       10.317       24.051       20.468       16.667      578.474      418.943      277.798        0.176        0.064       46.285       15.846        0.117      345.937       23.827      865.166
07/10/2013  09:11:00      -25.222      -13.431       15.467       30.411       19.668       20.257      924.811      386.846      410.360        0.139        0.086       28.575       21.268        0.554      345.919       23.795      865.166
07/10/2013  09:12:00      -20.108        0.941       -1.472       19.817       13.570       13.055      392.696      184.132      170.434        0.058        0.037       20.130       10.409        0.267      345.751       23.506      865.150
07/10/2013  09:13:00      -21.683      -19.523       -1.390       19.482       16.609       17.578      379.546      275.846      308.990        0.091        0.048       29.177       11.825        0.164      345.766       23.531      865.138
07/10/2013  09:14:00      -24.378      -10.627        4.517       31.560       23.147       17.771      996.038      535.796      315.813        0.129        0.092       26.593       11.313        0.181      345.840       23.658      865.123
07/10/2013  09:15:00      -42.076       -3.174        4.708       18.728       13.616       15.355      350.746      185.403      235.791        0.129        0.039       42.196       10.313        0.060      345.570       23.195      865.104
07/10/2013  09:16:00      -11.532       -3.304       11.229       18.677       16.220       19.985      348.830      263.096      399.394        0.064        0.051       11.996        8.312        0.480      346.366       24.564      865.080
07/10/2013  09:17:00       -4.152       -9.244       29.498       18.784       29.963       17.332      352.839      897.759      300.407        0.126        0.078       10.134       13.925        1.888      346.792       25.295      865.061
07/10/2013  09:18:00       27.100      -41.331       -7.258       41.693       39.996       37.363     1738.305     1599.662     1395.976        0.361        0.237       49.424       25.769        0.272      345.938       23.827      865.028
07/10/2013  09:19:00       10.659      -36.297       25.770       25.302       30.065       30.668      640.177      903.926      940.516        0.229        0.124       37.829       18.210        0.232      346.108       24.119      865.002
07/10/2013  09:20:00       10.511        5.080       31.435       14.985       19.595       15.719      224.563      383.947      247.076        0.099        0.043       11.674        8.460        0.525      346.582       24.932      864.979
07/10/2013  09:21:00        5.866       -1.109       39.442       19.505       20.822       23.197      380.455      433.546      538.094        0.147        0.068        5.970       11.100        3.457      346.803       25.315      864.953
07/10/2013  09:22:00       21.648      -33.051       24.729       22.860       44.450       27.694      522.586     1975.837      766.951        0.272        0.163       39.510       29.982        0.576      346.017       23.963      864.945
07/10/2013  09:23:00       26.461      -44.198       17.225       28.279       33.577       37.904      799.693     1127.403     1436.683        0.316        0.168       51.513       24.312        0.223      346.253       24.370      864.942
07/10/2013  09:24:00       19.702      -56.635       10.839       19.745       21.217       21.962      389.880      450.158      482.351        0.252        0.066       59.964        9.652        0.026      345.880       23.728      864.936
07/10/2013  09:25:00       -7.628       -9.143       25.469       18.095       25.835       25.590      327.445      667.464      654.838        0.122        0.082       11.908       13.414        1.269      346.659       25.068      864.931
07/10/2013  09:26:00      -26.588        2.976       24.658       18.976       26.747       18.727      360.084      715.399      350.706        0.137        0.071       26.754       16.215        0.367      346.139       24.171      864.921
07/10/2013  09:27:00       24.321       33.237       21.003       31.239       30.296       36.717      975.902      917.847     1348.166        0.269        0.162       41.185       26.469        0.413      346.320       24.486      864.905
07/10/2013  09:28:00       17.852       47.506      -13.076       21.690       22.287       24.294      470.469      496.700      590.200        0.215        0.078       50.750       12.267        0.058      345.746       23.497      864.888
07/10/2013  09:29:00       19.639       23.218       16.755       25.571       27.866       22.100      653.887      776.519      488.427        0.156        0.096       30.410       14.315        0.222      346.340       24.518      864.871
07/10/2013  09:30:00       12.065      -22.905       10.275       22.382       22.220       23.858      500.933      493.712      569.201        0.117        0.078       25.888       16.010        0.382      346.325       24.491      864.857
07/10/2013  09:31:00      -14.354      -19.733        4.493       13.110       14.982       22.193      171.868      224.464      492.508        0.075        0.044       24.402       15.937        0.427      346.251       24.366      864.844
07/10/2013  09:32:00      -35.023      -14.245       10.739       14.742       23.834       24.331      217.322      568.045      591.978        0.146        0.069       37.809       14.693        0.151      346.028       23.982      864.824
07/10/2013  09:33:00      -25.233       29.637        2.701       36.022       20.909       15.583     1297.556      437.207      242.839        0.175        0.099       38.924       11.693        0.090      345.957       23.860      864.802
07/10/2013  09:34:00       50.746       35.399       24.112       42.313       25.157       30.637     1790.399      632.851      938.646        0.389        0.168       61.873       25.082        0.164      346.396       24.614      864.784
07/10/2013  09:35:00       95.154       59.091       43.287       75.327       38.703       40.462     5674.189     1497.916     1637.203        1.161        0.440      112.009       30.854        0.076      346.122       24.143      864.777
07/10/2013  09:36:00      114.200       79.111       29.393       47.974       36.748       37.711     2301.531     1350.431     1422.096        1.262        0.254      138.925       27.026        0.038      345.890       23.745      864.772
07/10/2013  09:37:00       52.494       38.229       24.839       61.208       72.013       32.086     3746.367     5185.892     1029.489        0.740        0.498       64.940       24.967        0.148      345.955       23.855      864.762
07/10/2013  09:38:00       59.453      -17.669       27.276       58.745       54.561       34.204     3450.998     2976.952     1169.939        0.609        0.380       62.023       21.383        0.119      346.283       24.418      864.746
07/10/2013  09:39:00       25.786       31.390       24.146       40.465       44.570       34.039     1637.421     1986.520     1158.684        0.351        0.239       40.623       25.034        0.380      346.655       25.059      864.733
07/10/2013  09:40:00       30.798        6.928       56.437       38.886       64.288       35.693     1512.133     4132.922     1274.001        0.555        0.346       31.567       35.197        1.243      346.858       25.409      864.730
07/10/2013  09:41:00       42.977       -9.168       24.355       39.922       42.486       39.000     1593.791     1805.078     1521.007        0.372        0.246       43.944       28.578        0.423      346.462       24.726      864.730
07/10/2013  09:42:00       -9.929       31.991       59.147       38.303       42.667       38.070     1467.153     1820.439     1449.360        0.468        0.237       33.497       29.089        0.754      346.984       25.626      864.726
07/10/2013  09:43:00       27.229        2.713       29.216       39.745       26.654       31.451     1579.684      710.418      989.195        0.244        0.164       27.364       20.406        0.556      347.013       25.676      864.716
07/10/2013  09:44:00       37.959      -19.049       25.835       39.589       42.136       31.504     1567.281     1775.439      992.477        0.340        0.217       42.470       31.801        0.561      346.396       24.613      864.706
07/10/2013  09:45:00       18.685        6.486       23.974       41.525       43.123       39.170     1724.358     1859.554     1534.313        0.304        0.256       19.779       33.240        2.824      346.352       24.538      864.683
07/10/2013  09:46:00       86.061       64.186        4.219       38.986       26.372       30.625     1519.910      695.505      937.875        0.735        0.158      107.361       16.418        0.023      345.988       23.913      864.652
07/10/2013  09:47:00       70.202       51.296       12.055       44.195       32.014       36.153     1953.213     1024.900     1307.020        0.599        0.214       86.946       26.261        0.091      346.385       24.594      864.628
07/10/2013  09:48:00       21.502       44.696       40.297       32.569       27.325       29.874     1060.732      746.669      892.461        0.339        0.135       49.599       23.205        0.219      346.762       25.242      864.611
07/10/2013  09:49:00       15.039       14.870       12.435       42.189       28.570       22.335     1779.929      816.241      498.833        0.185        0.155       21.149       19.165        0.821      346.767       25.251      864.601
07/10/2013  09:50:00       17.608       30.542       32.966       27.870       34.130       27.221      776.743     1164.844      740.999        0.251        0.134       35.255       24.376        0.478      347.178       25.961      864.592
07/10/2013  09:51:00      -27.831       18.386       21.025       22.305       17.048       24.975      497.533      290.627      623.738        0.148        0.071       33.356       12.494        0.140      346.773       25.263      864.585
07/10/2013  09:52:00       -5.642      -18.904       12.238       27.842       18.026       16.167      775.182      324.935      261.364        0.095        0.068       19.729       17.795        0.814      346.340       24.518      864.578
07/10/2013  09:53:00      -16.199      -25.897       14.629       13.892       17.580       19.255      192.984      309.062      370.743        0.101        0.044       30.546       15.071        0.243      346.293       24.436      864.564
07/10/2013  09:54:00       34.534      -80.683       24.062       46.581       53.257       39.090     2169.756     2836.274     1527.997        0.741        0.327       87.763       32.460        0.137      346.948       25.564      864.554
07/10/2013  09:55:00       16.016      -21.365       38.294       46.414       79.897       58.279     2154.221     6383.469     3396.460        0.705        0.597       26.702       59.923        5.036      347.302       26.174      864.548
07/10/2013  09:56:00       51.294     -105.031      -10.537       47.182       45.956       33.960     2226.159     2111.993     1153.279        0.963        0.275      116.887       29.633        0.064      346.768       25.254      864.568
07/10/2013  09:57:00       45.924      -90.420       12.313       57.943       52.369       50.952     3357.409     2742.484     2596.076        0.956        0.435      101.414       43.296        0.182      346.804       25.315      864.569
07/10/2013  09:58:00       31.271      -58.085       24.759       44.803       69.689       43.739     2007.319     4856.595     1913.083        0.687        0.439       65.968       41.214        0.390      346.987       25.630      864.559
07/10/2013  09:59:00       51.814       43.598       50.272       33.003       48.464       32.458     1089.170     2348.720     1053.503        0.580        0.225       67.717       21.902        0.105      346.660       25.067      864.572
07/10/2013  10:00:00       45.504       27.298       24.561       40.182       48.584       31.622     1614.627     2360.423      999.931        0.420        0.249       53.064       20.444        0.148      347.083       25.796      864.558
07/10/2013  10:01:00       42.330       40.492       60.666       58.228       61.272       38.808     3390.459     3754.297     1506.024        0.788        0.433       58.579       38.694        0.436      347.068       25.769      864.553
07/10/2013  10:02:00      150.420      112.235       14.148       64.863       41.342       43.677     4207.228     1709.179     1907.704        2.162        0.391      187.677       24.055        0.016      346.418       24.650      864.549
07/10/2013  10:03:00       23.294       59.000        7.871       40.157       26.932       25.302     1612.581      725.335      640.207        0.353        0.149       63.432       20.720        0.107      346.865       25.421      864.551
07/10/2013  10:04:00        3.647       45.162       18.608       27.195       36.607       24.191      739.586     1340.042      585.225        0.253        0.133       45.309       17.330        0.146      347.197       25.994      864.552
07/10/2013  10:05:00       -9.358       25.123       23.698       24.256       33.185       22.105      588.350     1101.257      488.630        0.173        0.109       26.810       19.517        0.530      347.567       26.631      864.568
07/10/2013  10:06:00        2.267        8.873       16.064       13.283       18.082       14.395      176.439      326.945      207.230        0.053        0.036        9.158        9.454        1.066      347.628       26.736      864.574
07/10/2013  10:07:00       66.764       62.921       40.637       62.543       37.938       28.306     3911.686     1439.282      801.225        0.811        0.308       91.741       13.858        0.023      347.407       26.354      864.585
07/10/2013  10:08:00       82.933       72.841       21.983       41.625       33.592       24.921     1732.644     1128.450      621.064        0.807        0.174      110.380       14.971        0.018      346.674       25.091      864.591
07/10/2013  10:09:00       84.388       63.297       32.040       55.655       31.952       37.334     3097.491     1020.932     1393.861        0.883        0.276      105.489       39.211        0.138      346.903       25.486      864.588
07/10/2013  10:10:00       55.877       32.799       25.276       63.139       45.938       33.590     3986.498     2110.312     1128.305        0.603        0.361       64.792       31.821        0.241      347.010       25.670      864.588
07/10/2013  10:11:00       -5.085      -21.847       12.959       31.977       56.887       29.776     1022.538     3236.096      886.627        0.291        0.257       22.431       30.546        1.854      346.754       25.230      864.571
07/10/2013  10:12:00       38.249        7.505       35.121       36.987       29.202       23.047     1368.030      852.760      531.161        0.275        0.138       38.978       18.788        0.232      347.263       26.107      864.562
07/10/2013  10:13:00      135.573       61.333        3.609       68.975       51.847       37.922     4757.511     2688.118     1438.045        1.552        0.444      148.802       22.763        0.023      346.839       25.374      864.546
07/10/2013  10:14:00      115.813       77.995       11.818       54.795       49.868       45.496     3002.465     2486.793     2069.878        1.360        0.378      139.628       32.272        0.053      347.103       25.829      864.548
07/10/2013  10:15:00      111.926       71.691       11.516       38.134       34.798       26.674     1454.185     1210.889      711.517        1.059        0.169      132.917       21.086        0.025      346.914       25.505      864.548
07/10/2013  10:16:00       74.299       34.333        8.516       42.865       35.096       33.117     1837.448     1231.763     1096.706        0.547        0.208       81.848       15.443        0.036      346.980       25.619      864.573
07/10/2013  10:17:00       -5.500        2.338       13.649       27.689       18.591       20.670      766.700      345.612      427.243        0.088        0.077        5.976       19.678       10.842      347.269       26.117      864.581
07/10/2013  10:18:00       -6.674        0.660       20.622       14.815       15.794       14.348      219.485      249.461      205.857        0.057        0.034        6.706       10.708        2.549      347.705       26.869      864.585
07/10/2013  10:19:00       47.300       81.630        7.898       60.017       47.640       40.560     3602.048     2269.583     1645.126        0.824        0.376       94.344       26.071        0.076      347.316       26.197      864.582
07/10/2013  10:20:00       12.313       20.687       22.664       22.874       26.411       20.950      523.204      697.563      438.893        0.138        0.083       24.074       14.287        0.352      348.004       27.384      864.585
07/10/2013  10:21:00        8.851      -17.288       27.623       27.438       37.805       18.064      752.831     1429.235      326.297        0.182        0.125       19.422       15.472        0.635      347.683       26.832      864.584
07/10/2013  10:22:00       25.188        1.097       38.057       26.449       32.186       21.497      699.535     1035.926      462.119        0.214        0.110       25.212       14.379        0.325      347.518       26.546      864.590
07/10/2013  10:23:00        3.005      -39.810       15.566       16.337       26.608       20.002      266.900      707.959      400.075        0.161        0.069       39.924       11.549        0.084      347.552       26.603      864.568
07/10/2013  10:24:00       -8.752       36.173        6.715       40.284       29.018       46.630     1622.779      842.042     2174.399        0.303        0.232       37.217       28.773        0.598      347.535       26.576      864.553
07/10/2013  10:25:00       41.171       50.554       49.181       37.508       56.049       31.865     1406.885     3141.465     1015.349        0.612        0.278       65.198       22.238        0.116      347.788       27.013      864.512
07/10/2013  10:26:00       14.902       58.670       -3.721       31.397       41.132       23.940      985.755     1691.823      573.110        0.346        0.163       60.533       16.467        0.074      347.587       26.664      864.487
07/10/2013  10:27:00      -18.379       46.192       13.795       34.595       67.243       32.851     1196.813     4521.634     1079.170        0.473        0.340       49.714       36.877        0.550      347.860       27.136      864.446
07/10/2013  10:28:00       38.126       58.647       15.420       34.192       49.707       36.569     1169.109     2470.765     1337.300        0.505        0.249       69.950       15.882        0.052      347.502       26.517      864.416
07/10/2013  10:29:00        6.674       35.721        8.771       28.566       29.882       32.501      816.014      892.906     1056.298        0.208        0.138       36.339       17.586        0.234      347.642       26.761      864.385
07/10/2013  10:30:00       17.820       46.216        2.462       25.415       18.707       25.819      645.941      349.960      666.632        0.206        0.083       49.533       17.569        0.126      347.493       26.503      864.376
07/10/2013  10:31:00        4.575       34.945       13.366       22.441       35.934       22.838      503.591     1291.227      521.592        0.187        0.116       35.243        9.969        0.080      347.750       26.946      864.362
07/10/2013  10:32:00        7.487      131.031      -15.004       38.584       50.309       35.277     1488.755     2531.028     1244.447        1.136        0.263      131.245       26.597        0.041      347.441       26.413      864.351
07/10/2013  10:33:00      -24.623      128.191       -5.140       22.930       45.260       31.609      525.763     2048.489      999.156        1.032        0.179      130.535       23.261        0.032      347.566       26.630      864.325
07/10/2013  10:34:00        8.284       47.440       19.815       44.494       36.492       29.213     1979.717     1331.637      853.427        0.344        0.208       48.158       20.986        0.190      348.574       28.371      864.307
07/10/2013  10:35:00       86.378       56.310       10.531       47.909       37.070       38.301     2295.244     1374.189     1466.967        0.794        0.257      103.111       28.932        0.079      348.144       27.626      864.289
07/10/2013  10:36:00       41.752       84.674       77.189       67.524       39.967       39.641     4559.548     1597.361     1571.410        1.130        0.386       94.408       24.714        0.069      348.021       27.413      864.280
07/10/2013  10:37:00       68.776       47.822       24.953       61.716       63.576       38.664     3808.868     4041.852     1494.936        0.849        0.467       83.768       43.356        0.268      347.925       27.248      864.268
07/10/2013  10:38:00      161.379       98.764       14.581       60.874       41.479       43.445     3705.590     1720.513     1887.508        2.166        0.366      189.202       21.920        0.013      347.261       26.102      864.255
07/10/2013  10:39:00       38.766       76.744        7.652       73.356       48.807       44.477     5381.032     2382.170     1978.247        0.859        0.487       85.979       15.371        0.032      347.697       26.854      864.269
07/10/2013  10:40:00      -73.062        8.255      -21.038       23.355       17.736       22.660      545.468      314.551      513.471        0.361        0.069       73.526       15.402        0.044      347.125       25.867      864.259
07/10/2013  10:41:00     -100.764       11.014       -5.758       34.223       35.923       20.461     1171.197     1290.449      418.636        0.659        0.144      101.364       13.092        0.017      347.086       25.800      864.238
07/10/2013  10:42:00      -97.686       39.026       -9.249       24.569       36.356       19.629      603.614     1321.772      385.307        0.673        0.116      105.193       15.294        0.021      347.070       25.774      864.216
07/10/2013  10:43:00      -80.537       25.023       -8.348       18.762       19.830       15.541      352.003      393.231      241.519        0.408        0.049       84.335        9.855        0.014      347.280       26.137      864.187
07/10/2013  10:44:00      -35.481       26.142       27.910       12.658       16.645       17.954      160.216      277.063      322.364        0.174        0.038       44.072        8.040        0.033      347.684       26.833      864.156
07/10/2013  10:45:00      -40.847        2.951        6.155       17.730       10.902        9.456      314.366      118.855       89.408        0.112        0.026       40.954        9.143        0.050      347.279       26.134      864.138
07/10/2013  10:46:00      -26.468       -1.222       15.587       19.150       13.781       16.726      366.705      189.913      279.763        0.089        0.042       26.496       12.004        0.205      348.004       27.385      864.119
07/10/2013  10:47:00      -58.900      -19.665        1.850       52.308       38.760       27.274     2736.138     1502.321      743.847        0.442        0.249       62.096       28.107        0.205      347.729       26.911      864.115
07/10/2013  10:48:00     -105.243      -62.108      -10.824       38.340       22.807       21.282     1469.989      520.150      452.919        0.875        0.122      122.203       13.522        0.012      347.280       26.135      864.099
07/10/2013  10:49:00      -26.643       -6.387       21.800       33.355       32.039       34.365     1112.574     1026.517     1180.945        0.227        0.166       27.397       25.492        0.866      348.269       27.845      864.097
07/10/2013  10:50:00        6.444        0.606       26.841       19.449       24.731       23.383      378.281      611.607      546.784        0.115        0.077        6.473       21.076       10.602      348.699       28.588      864.096
07/10/2013  10:51:00      -15.742        4.316        3.535       31.940       17.154       16.069     1020.141      294.266      258.226        0.093        0.079       16.323        9.639        0.349      348.210       27.740      864.091
07/10/2013  10:52:00      -28.602       22.793       25.869       26.959       25.808       23.679      726.791      666.040      560.687        0.198        0.098       36.573       16.192        0.196      348.437       28.133      864.080
07/10/2013  10:53:00       -1.529       33.806        9.212       26.872       40.767       28.796      722.130     1661.956      829.202        0.222        0.161       33.841       18.398        0.296      348.255       27.819      864.077
07/10/2013  10:54:00       16.283       17.983       38.223       23.806       25.680       19.648      566.737      659.442      386.063        0.183        0.081       24.260        6.937        0.082      348.755       28.683      864.058
07/10/2013  10:55:00      120.120       67.074       74.854       71.448       64.767       61.800     5104.827     4194.719     3819.269        1.882        0.656      137.578       54.038        0.154      347.709       26.874      864.040
07/10/2013  10:56:00      110.108      110.670       86.136       64.786       54.431       61.111     4197.245     2962.763     3734.601        2.134        0.545      156.115       37.341        0.057      347.971       27.324      864.015
07/10/2013  10:57:00       82.739       81.145      112.951       79.655       89.800       66.754     6344.884     8063.973     4456.040        2.252        0.943      115.889       71.365        0.379      347.742       26.932      864.011
07/10/2013  10:58:00      147.807      116.412       48.190       91.350       45.100       53.216     8344.834     2033.981     2831.940        2.546        0.661      188.145       38.931        0.043      347.675       26.815      864.013
07/10/2013  10:59:00       25.821       59.270       87.913       45.699       78.388       54.587     2088.430     6144.654     2979.723        1.156        0.561       64.650       51.029        0.623      348.126       27.594      863.996
07/10/2013  11:00:00       89.680      109.218       99.251       63.216       55.724       58.054     3996.325     3105.166     3370.294        2.014        0.524      141.319       39.341        0.077      347.575       26.641      863.992
07/10/2013  11:01:00       48.698       64.634       79.567       59.058       48.457       45.862     3487.820     2348.120     2103.302        1.041        0.397       80.926       44.313        0.300      347.884       27.177      863.981
07/10/2013  11:02:00       51.567       67.775       53.802       54.723       42.751       37.915     2994.660     1827.607     1437.538        0.820        0.313       85.162       19.859        0.054      347.811       27.051      863.970
07/10/2013  11:03:00       75.458       74.518       61.518       67.131       48.132       34.949     4506.613     2316.692     1221.404        1.154        0.402      106.051       28.947        0.075      347.909       27.221      863.953
07/10/2013  11:04:00       46.294      -15.828       30.420       48.916       58.121       44.597     2392.778     3378.084     1988.914        0.554        0.388       48.925       28.750        0.345      348.113       27.571      863.952
07/10/2013  11:05:00       35.461       19.955       51.609       52.128       44.574       36.969     2717.365     1986.814     1366.693        0.519        0.304       40.690       27.214        0.447      348.188       27.701      863.938
07/10/2013  11:06:00       25.629      -21.343       46.303       47.258       65.597       43.914     2233.323     4303.006     1928.462        0.586        0.423       33.352       22.956        0.474      348.404       28.076      863.922
07/10/2013  11:07:00       -4.429      -28.902       43.654       40.210       50.803       28.113     1616.837     2580.927      790.335        0.387        0.249       29.239       20.698        0.501      348.612       28.435      863.923
07/10/2013  11:08:00       14.238      -24.973       20.711       47.724       35.234       28.093     2277.579     1241.445      789.202        0.278        0.215       28.746       24.912        0.751      348.330       27.949      863.920
07/10/2013  11:09:00        0.920      -72.234       -5.745       35.355       61.785       36.155     1249.992     3817.447     1307.166        0.581        0.319       72.240       39.992        0.306      348.432       28.123      863.916
07/10/2013  11:10:00       -0.760      -74.869      -16.277       37.978       63.176       35.650     1442.305     3991.162     1270.921        0.629        0.335       74.873       30.337        0.164      348.317       27.926      863.906
07/10/2013  11:11:00       10.292      -59.893       10.263       36.469       69.426       33.535     1329.971     4820.018     1124.625        0.554        0.364       60.771       38.605        0.404      348.480       28.208      863.902
07/10/2013  11:12:00      -33.868      -81.621      -10.086       49.783       43.120       36.308     2478.309     1859.305     1318.290        0.678        0.283       88.369       28.911        0.107      348.262       27.831      863.897
07/10/2013  11:13:00        6.176      -56.948       14.533       30.247       38.502       32.682      914.852     1482.428     1068.095        0.348        0.173       57.282       29.619        0.267      348.520       28.277      863.880
07/10/2013  11:14:00        3.340      -55.528       57.839       58.251       78.652       60.792     3393.168     6186.073     3695.610        0.985        0.664       55.629       55.719        1.003      348.551       28.330      863.858
07/10/2013  11:15:00       46.176      -69.232       34.958       71.720       51.638       45.034     5143.725     2666.498     2028.051        0.899        0.492       83.219       35.646        0.183      348.233       27.781      863.853
07/10/2013  11:16:00      100.776      -32.519       73.213       83.371      148.584       87.340     6950.748    22077.292     7628.328        2.661        1.833      105.893      110.168        1.082      348.327       27.940      863.828
07/10/2013  11:17:00       61.887      -56.068       48.905       62.356       93.152       75.965     3888.286     8677.367     5770.663        1.385        0.917       83.508       82.194        0.969      348.432       28.123      863.819
07/10/2013  11:18:00       71.763      -97.378        7.388       48.665       62.002       43.424     2368.299     3844.284     1885.605        1.139        0.405      120.964       39.786        0.108      348.311       27.913      863.791
07/10/2013  11:19:00       53.072      -29.974       46.657       42.065      101.137       43.779     1769.483    10228.783     1916.615        0.990        0.696       60.951       50.131        0.676      348.302       27.899      863.750
07/10/2013  11:20:00       52.008       21.902       51.696       43.086       63.112       39.269     1856.407     3983.183     1542.057        0.662        0.369       56.432       44.101        0.611      348.195       27.716      863.741
07/10/2013  11:21:00       55.044       61.520       28.545       77.065       44.691       32.394     5938.996     1997.292     1049.374        0.831        0.449       82.550       34.077        0.170      348.450       28.154      863.727
07/10/2013  11:22:00       96.330       83.381       92.020       81.878       65.180       54.655     6704.053     4248.408     2987.170        1.932        0.697      127.404       45.290        0.126      348.463       28.176      863.711
07/10/2013  11:23:00       57.129       94.696      100.555       67.674       81.983       55.817     4579.720     6721.189     3115.562        1.838        0.721      110.594       51.075        0.213      348.249       27.807      863.699
07/10/2013  11:24:00       22.575       67.525      103.077       47.931       52.671       36.517     2297.403     2774.263     1333.520        1.105        0.320       71.199       22.603        0.101      348.605       28.423      863.679
07/10/2013  11:25:00       31.129       20.368       59.468       35.516       64.909       38.415     1261.406     4213.224     1475.687        0.593        0.348       37.200       39.979        1.155      348.693       28.575      863.661
07/10/2013  11:26:00      126.096       91.549       67.149       98.892       63.662       40.477     9779.538     4052.823     1638.398        2.213        0.774      155.825       20.432        0.017      348.373       28.019      863.654
07/10/2013  11:27:00       58.876       58.460       70.129       74.982       60.493       48.462     5622.337     3659.413     2348.552        1.171        0.582       82.970       34.713        0.175      348.655       28.511      863.654
07/10/2013  11:28:00       95.907      107.700      112.622       91.013       94.607       77.740     8283.296     8950.423     6043.478        2.837        1.164      144.213       70.094        0.236      348.578       28.372      863.649
07/10/2013  11:29:00      117.870      136.883      101.583       95.979       77.704       79.493     9211.921     6037.968     6319.153        3.225        1.078      180.639       65.734        0.132      348.277       27.852      863.638
07/10/2013  11:30:00       36.557       11.396       42.046       72.058       59.410       53.533     5192.383     3529.604     2865.812        0.741        0.579       38.292       29.294        0.585      348.724       28.629      863.648
07/10/2013  11:31:00       98.143       31.778       34.283      115.681      103.558       49.917    13382.209    10724.342     2491.685        1.920        1.330      103.159       21.596        0.044      348.538       28.305      863.655
07/10/2013  11:32:00      184.076      110.136       40.935       92.824       60.150       65.208     8616.339     3618.051     4252.045        3.208        0.824      214.508       52.697        0.060      348.372       28.016      863.659
07/10/2013  11:33:00      124.386       84.635       53.099       63.169       55.686       53.290     3990.279     3100.885     2839.792        1.769        0.497      150.449       30.747        0.042      348.498       28.237      863.638
07/10/2013  11:34:00       62.582       59.696       32.529       82.580       72.616       45.734     6819.494     5273.118     2091.607        1.136        0.709       86.488       13.384        0.024      348.473       28.193      863.621
07/10/2013  11:35:00       50.494       40.931        7.512       62.465       58.518       33.825     3901.870     3424.364     1144.133        0.637        0.424       65.000       34.176        0.276      348.735       28.648      863.604
07/10/2013  11:36:00       37.439       61.730        1.430       56.659       50.107       35.482     3210.279     2510.675     1258.999        0.610        0.349       72.196       35.257        0.238      348.685       28.561      863.584
07/10/2013  11:37:00       -5.892      -19.500       23.147       19.105       40.371       22.607      365.020     1629.841      511.083        0.173        0.125       20.371       21.249        1.088      349.164       29.390      863.581
07/10/2013  11:38:00       63.641      -43.827       22.136       47.647       47.791       30.102     2270.199     2283.986      906.154        0.596        0.273       77.272       24.091        0.097      348.266       27.837      863.589
07/10/2013  11:39:00       67.934      -23.695        8.938       56.748       39.600       28.877     3220.348     1568.153      833.889        0.544        0.281       71.948       25.938        0.130      348.349       27.979      863.593
07/10/2013  11:40:00       95.140      -35.892       10.237       45.470       37.539       35.097     2067.496     1409.202     1231.815        0.758        0.235      101.685       28.961        0.081      348.197       27.717      863.592
07/10/2013  11:41:00       45.439       -3.307       26.526       61.897       47.910       36.051     3831.260     2295.334     1299.698        0.510        0.371       45.560       32.057        0.495      348.826       28.806      863.588
07/10/2013  11:42:00       73.427      -41.674       32.470       74.186       76.305       47.415     5503.531     5822.451     2248.157        1.088        0.679       84.429       39.844        0.223      348.911       28.953      863.553
07/10/2013  11:43:00       33.680       23.266       37.226       57.639       54.674       49.311     3322.289     2989.237     2431.598        0.590        0.437       40.935       35.016        0.732      348.926       28.980      863.540
07/10/2013  11:44:00       12.821       26.182       57.001       46.998       58.663       43.519     2208.814     3441.292     1893.869        0.582        0.377       29.153       35.970        1.522      349.215       29.480      863.522
07/10/2013  11:45:00      126.197       66.998       62.116      122.373      115.429       69.761    14975.097    13323.776     4866.537        2.871        1.658      142.879       49.947        0.122      348.840       28.828      863.493
07/10/2013  11:46:00      203.305      151.352       77.484      114.489       77.714       67.384    13107.805     6039.534     4540.667        4.696        1.184      253.457       50.229        0.039      348.772       28.709      863.497
07/10/2013  11:47:00      158.527       88.394       26.559       93.858       72.952       54.173     8809.357     5322.006     2934.707        2.535        0.853      181.505       36.958        0.041      348.814       28.783      863.514
07/10/2013  11:48:00      169.114      143.348       27.457       85.216       64.670       58.225     7261.845     4182.253     3390.160        3.237        0.742      221.694       37.714        0.029      348.635       28.472      863.516
07/10/2013  11:49:00      120.529       83.178        8.805       85.053       66.247       45.567     7234.006     4388.696     2076.380        1.761        0.685      146.444       33.719        0.053      348.762       28.693      863.516
07/10/2013  11:50:00       21.478       97.465       -1.239       35.993       47.602       28.500     1295.518     2265.948      812.238        0.717        0.219       99.804       14.626        0.021      348.948       29.017      863.515
07/10/2013  11:51:00       33.802       58.621        5.904       32.847       47.342       30.693     1078.915     2241.219      942.043        0.444        0.213       67.668       28.685        0.180      349.071       29.230      863.516
07/10/2013  11:52:00       95.550       63.433       13.612       70.027       54.516       41.026     4903.721     2971.954     1683.099        1.145        0.478      114.689       27.244        0.056      348.994       29.096      863.501
07/10/2013  11:53:00       80.027       84.030        8.538       66.923       58.963       38.949     4478.741     3476.671     1517.027        1.150        0.474      116.041       31.489        0.074      348.853       28.852      863.488
07/10/2013  11:54:00       30.535       77.369       -3.338       63.757       47.749       31.538     4064.968     2279.955      994.660        0.713        0.367       83.176       29.635        0.127      348.637       28.479      863.498
07/10/2013  11:55:00      -20.030      -20.695       20.177       40.730       73.853       34.301     1658.971     5454.312     1176.573        0.476        0.414       28.801       10.679        0.137      349.218       29.484      863.487
07/10/2013  11:56:00       23.371      -67.848       26.830       83.467       69.591       45.506     6966.701     4842.945     2070.806        0.987        0.694       71.761       30.620        0.182      349.114       29.306      863.459
07/10/2013  11:57:00       39.537     -135.914       -1.821       57.680       77.335       45.587     3326.950     5980.718     2078.190        1.571        0.569      141.548       37.483        0.070      348.796       28.753      863.395
07/10/2013  11:58:00       48.937       51.202       94.934       74.967       96.052       51.481     5620.077     9225.962     2650.322        1.576        0.875       70.828       45.319        0.409      348.966       29.046      863.346
07/10/2013  11:59:00      112.594       83.320       30.998       77.307       62.607       41.501     5976.423     3919.592     1722.357        1.610        0.581      140.070       28.054        0.040      349.076       29.238      863.376
07/10/2013  12:00:00       70.407       72.861       23.449       68.765       54.472       51.754     4728.638     2967.211     2678.511        1.059        0.519      101.320       35.852        0.125      349.246       29.532      863.395
07/10/2013  12:01:00       75.816      -40.270        1.932       43.797       72.043       30.435     1918.144     5190.153      926.304        0.770        0.402       85.848       22.253        0.067      348.552       28.330      863.407
07/10/2013  12:02:00      -43.953      -48.507        1.056       46.254       43.879       31.388     2139.440     1925.347      985.192        0.467        0.252       65.459       25.229        0.149      348.806       28.772      863.377
07/10/2013  12:03:00      -42.559      -23.979        0.202       28.685       32.112       23.229      822.852     1031.174      539.602        0.239        0.120       48.849       17.962        0.135      348.788       28.740      863.353
07/10/2013  12:04:00      -52.260       10.284       -4.387       26.809       27.752       17.205      718.748      770.152      296.023        0.232        0.089       53.263       16.881        0.100      348.949       29.017      863.332
07/10/2013  12:05:00      -31.807        6.737       -6.663       31.596       14.108       19.936      998.311      199.024      397.433        0.135        0.080       32.513       20.006        0.379      349.221       29.490      863.312
07/10/2013  12:06:00       23.336       -0.235       25.028       29.671       32.375       34.480      880.358     1048.130     1188.874        0.214        0.156       23.337       19.657        0.709      349.151       29.371      863.292
07/10/2013  12:07:00       20.642       59.472       40.841       37.208       60.557       45.601     1384.420     3667.192     2079.481        0.638        0.357       62.952       25.691        0.167      349.056       29.204      863.272
07/10/2013  12:08:00      -14.669      -85.211       -1.087       35.725       35.267       30.698     1276.259     1243.775      942.357        0.547        0.173       86.465       16.749        0.038      348.558       28.341      863.261
07/10/2013  12:09:00       22.406       15.948       15.782       45.902       39.029       30.813     2106.960     1523.244      949.446        0.279        0.229       27.502       24.119        0.769      349.101       29.284      863.272
07/10/2013  12:10:00      -10.966       48.502       16.270       28.231       39.965       25.978      797.001     1597.164      674.838        0.290        0.153       49.727       18.715        0.142      349.648       30.231      863.287
07/10/2013  12:11:00       58.580        2.770       26.392       38.655       44.539       26.364     1494.240     1983.746      695.055        0.415        0.209       58.646       21.645        0.136      348.949       29.019      863.282
07/10/2013  12:12:00       48.566       -6.861       46.184       59.752       70.374       51.461     3570.275     4952.500     2648.194        0.785        0.559       49.049       37.541        0.586      348.801       28.762      863.275
07/10/2013  12:13:00      112.307       56.869       18.766       75.388       57.119       52.010     5683.366     3262.576     2705.030        1.392        0.583      125.884       35.097        0.078      348.869       28.878      863.258
07/10/2013  12:14:00      152.697       95.137       10.883       89.364       71.494       49.725     7985.991     5111.407     2472.598        2.402        0.778      179.910       39.375        0.048      349.498       29.969      863.213
07/10/2013  12:15:00      103.564       61.870       21.298       72.566       49.766       51.355     5265.813     2476.645     2637.324        1.269        0.519      120.638       37.815        0.098      349.768       30.438      863.181
07/10/2013  12:16:00      164.900      107.192        9.953       89.529       81.418       50.593     8015.512     6628.933     2559.689        2.799        0.860      196.678       34.412        0.031      349.292       29.611      863.143
07/10/2013  12:17:00      213.248      148.556       27.798      105.450       73.400       59.659    11119.598     5387.502     3559.204        4.419        1.003      259.892       57.448        0.049      349.242       29.523      863.118
07/10/2013  12:18:00      197.099      165.425       10.908       98.348       64.139       59.039     9672.238     4113.835     3485.622        4.180        0.864      257.320       30.106        0.014      349.164       29.387      863.120
07/10/2013  12:19:00      147.142      118.056       -3.013       92.591       91.012       60.113     8573.065     8283.158     3613.544        2.803        1.023      188.648       47.647        0.064      349.213       29.474      863.108
07/10/2013  12:20:00      127.821      126.080       14.120       68.503       59.389       57.110     4692.639     3527.050     3261.560        2.196        0.574      179.540       39.074        0.047      349.306       29.634      863.133
07/10/2013  12:21:00      129.109      127.921      100.724      105.469       84.247       76.950    11123.773     7097.486     5921.260        3.366        1.207      181.750       55.754        0.094      349.506       29.981      863.148
07/10/2013  12:22:00       90.081      100.016      129.103      116.649      110.930       83.028    13607.035    12305.461     6893.588        3.379        1.640      134.603       71.518        0.282      349.458       29.899      863.121
07/10/2013  12:23:00      118.101     -175.058        2.707       90.098      150.164       75.470     8117.601    22549.102     5695.658        4.047        1.818      211.171       80.254        0.144      349.259       29.552      863.105
07/10/2013  12:24:00        4.471       91.038      121.181       74.755       66.928       49.292     5588.298     4479.389     2429.730        1.774        0.625       91.148       36.358        0.159      349.512       29.993      863.092
07/10/2013  12:25:00      226.278      124.902       77.240       85.867       66.128       57.817     7373.141     4372.848     3342.829        4.393        0.754      258.461       46.979        0.033      349.198       29.446      863.084
07/10/2013  12:26:00      181.423      132.716       98.304      102.234       65.228       63.345    10451.846     4254.757     4012.589        3.945        0.936      224.784       47.092        0.044      349.200       29.448      863.088
07/10/2013  12:27:00      180.069      132.115       82.722      122.869      103.700       84.953    15096.801    10753.663     7217.025        4.489        1.653      223.337       67.158        0.090      348.981       29.070      863.100
07/10/2013  12:28:00      222.667      156.886       28.243      124.210       83.780       71.433    15428.070     7019.088     5102.647        5.127        1.377      272.385       40.537        0.022      349.299       29.621      863.097
07/10/2013  12:29:00      220.648      145.623       13.327       67.206       75.676       56.987     4516.619     5726.830     3247.498        4.178        0.675      264.370       40.081        0.023      349.307       29.633      863.062
07/10/2013  12:30:00      275.004      164.269       22.670      166.402       96.517       77.450    27689.762     9315.542     5998.500        7.306        2.150      320.330       53.204        0.028      349.440       29.866      862.987
07/10/2013  12:31:00      331.559      223.956       24.555      173.075      103.112       79.331    29954.951    10632.002     6293.394       10.378        2.344      400.109       46.068        0.013      349.075       29.234      862.921
07/10/2013  12:32:00       42.842      266.217      -25.264       72.223      131.184       73.312     5216.224    17209.356     5374.709        5.057        1.390      269.642       77.179        0.082      349.362       29.732      862.906
07/10/2013  12:33:00       38.301      297.972      -31.117       79.917      137.678       67.115     6386.776    18955.336     4504.468        6.053        1.492      300.423       63.920        0.045      349.381       29.762      862.875
07/10/2013  12:34:00       34.491      169.533      -22.798       49.957      101.617       46.487     2495.709    10326.020     2161.021        2.271        0.749      173.006       56.235        0.106      349.468       29.917      862.912
07/10/2013  12:35:00       41.310       54.831       29.956       34.051       30.897       32.502     1159.466      954.615     1056.348        0.439        0.159       68.651       23.199        0.114      349.686       30.297      862.951
07/10/2013  12:36:00       -3.892       36.690       33.373       31.737       26.723       24.956     1007.249      714.136      622.814        0.241        0.117       36.896       18.217        0.244      349.875       30.625      862.977
07/10/2013  12:37:00      -95.933       17.876      -26.670       28.782       33.986       24.660      828.413     1155.019      608.116        0.641        0.130       97.584       17.723        0.033      349.231       29.508      862.998
07/10/2013  12:38:00      -69.480       58.155       -7.677       40.401       42.932       30.741     1632.232     1843.143      944.995        0.634        0.221       90.606       25.450        0.079      349.723       30.360      863.005
07/10/2013  12:39:00      -79.104       32.208        5.333       67.565       54.494       35.547     4564.975     2969.594     1263.585        0.806        0.440       85.410       33.183        0.151      349.915       30.694      862.980
07/10/2013  12:40:00      -44.713       68.420       12.271       72.641       68.308       42.824     5276.732     4665.945     1833.867        0.930        0.589       81.735       35.007        0.183      349.894       30.657      862.909
07/10/2013  12:41:00       38.866       62.967        5.705       44.333       54.557       42.555     1965.409     2976.436     1810.946        0.613        0.338       73.996       37.006        0.250      349.920       30.703      862.832
07/10/2013  12:42:00       -0.581       -8.682      -11.180       27.907       36.822       19.250      778.788     1355.859      370.548        0.135        0.125        8.702       14.747        2.872      349.684       30.293      862.838
07/10/2013  12:43:00      -88.842     -106.634       13.210      157.381       75.630       50.434    24768.665     5719.894     2543.574        2.623        1.652      138.793       49.555        0.127      349.687       30.296      862.909
07/10/2013  12:44:00     -129.031     -174.289        6.442      140.900      116.055       65.656    19852.796    13468.853     4310.690        4.234        1.882      216.854       63.057        0.085      349.723       30.357      862.986
07/10/2013  12:45:00     -260.023     -250.897       -3.504      154.413      144.382       66.881    23843.336    20846.268     4473.124        8.986        2.458      361.333       58.795        0.026      349.469       29.916      862.976
07/10/2013  12:46:00     -192.560     -258.151       -6.469      148.830      200.285       74.846    22150.424    40113.902     5601.861        8.580        3.393      322.057       70.243        0.048      349.561       30.076      862.860
07/10/2013  12:47:00     -339.449     -116.580        3.565      159.608      171.695       80.036    25474.762    29479.180     6405.796        9.508        3.068      358.910       75.763        0.045      349.859       30.593      862.802
07/10/2013  12:48:00     -348.196     -106.629       -1.854      215.234      202.880       85.042    46325.688    41160.373     7232.067       11.365        4.736      364.157       96.937        0.071      349.888       30.643      862.710
07/10/2013  12:49:00     -462.816     -306.226      -10.063      285.028      157.523      100.529    81240.890    24813.429    10105.984       21.209        5.808      554.953      116.751        0.044      349.859       30.594      862.688
07/10/2013  12:50:00     -303.386     -175.726        1.097      182.824      131.152       77.542    33424.582    17200.878     6012.685        8.977        2.832      350.603       76.656        0.048      349.991       30.821      862.752
07/10/2013  12:51:00     -123.187     -297.615       12.373      162.498      194.594       77.604    26405.694    37866.885     6022.432        8.708        3.515      322.102       74.246        0.053      349.937       30.728      862.803
07/10/2013  12:52:00      -94.366      -95.267       10.675      134.996       83.246       86.081    18223.790     6929.830     7409.953        2.532        1.628      134.093       65.935        0.242      350.175       31.142      862.713
07/10/2013  12:53:00     -291.841      -89.735       -8.637      135.544      129.859       59.977    18372.173    16863.428     3597.236        6.606        1.942      305.326       45.146        0.022      350.113       31.034      862.712
07/10/2013  12:54:00      -85.628     -119.150       -3.159      207.254      181.350       67.950    42954.226    32887.901     4617.139        5.098        4.023      146.727       46.846        0.102      350.081       30.979      862.699
07/10/2013  12:55:00     -258.866     -264.488       -3.545      199.896      136.749       66.289    39958.502    18700.299     4394.196       10.000        3.153      370.088       69.171        0.035      349.899       30.662      862.716
07/10/2013  12:56:00     -410.861      -64.487      -25.163      185.216      143.926       81.890    34304.845    20714.775     6705.975       11.765        3.086      415.891       95.514        0.053      349.802       30.493      862.698
07/10/2013  12:57:00     -458.509     -169.019      -17.669      236.656      194.255       78.897    56006.035    37734.971     6224.673       16.952        4.998      488.670       89.749        0.034      349.835       30.550      862.670
07/10/2013  12:58:00     -393.307     -194.457      -13.998      200.328      149.198       89.553    40131.465    22260.037     8019.709       13.154        3.521      438.753      105.430        0.058      349.902       30.667      862.625
07/10/2013  12:59:00     -535.654     -356.780      -10.928      326.152      222.081      129.820   106375.402    49320.187    16853.221       29.341        8.627      643.598      169.851        0.070      349.860       30.595      862.589
07/10/2013  13:00:00     -384.766     -260.137       -6.272      199.725      147.313       82.467    39889.892    21701.233     6800.846       14.206        3.420      464.453       83.459        0.032      349.891       30.647      862.602
07/10/2013  13:01:00     -330.212     -279.943       28.845      266.853      188.214      122.977    71210.298    35424.394    15123.225       15.497        6.088      432.906      149.236        0.119      350.022       30.876      862.603
07/10/2013  13:02:00     -462.835     -219.468       -2.734      176.960      143.692       80.466    31314.801    20647.285     6474.745       16.040        2.922      512.233       88.020        0.030      349.562       30.075      862.641
07/10/2013  13:03:00     -340.712      -37.890        4.043      185.216      107.811       77.152    34305.110    11623.249     5952.405        8.470        2.594      342.812       91.685        0.072      349.707       30.330      862.616
07/10/2013  13:04:00     -162.316      -64.018       -3.005      129.955       87.575       55.745    16888.415     7669.424     3107.542        2.905        1.383      174.484       52.430        0.090      350.011       30.859      862.633
07/10/2013  13:05:00     -265.783       11.693      -15.144      160.731       98.237       65.029    25834.381     9650.580     4228.740        5.535        1.986      266.040       72.501        0.074      350.174       31.141      862.603
07/10/2013  13:06:00     -526.121     -154.552      -17.211      201.218      133.044       69.103    40488.493    17700.736     4775.286       18.196        3.148      548.351       63.150        0.013      349.680       30.283      862.548
07/10/2013  13:07:00     -414.206     -133.660      -27.792      156.968      138.884       78.166    24638.812    19288.793     6109.915       12.011        2.502      435.238       83.010        0.036      349.963       30.773      862.517
07/10/2013  13:08:00     -324.553      -71.624        0.847      191.677      121.949       83.368    36740.051    14871.458     6950.203        8.450        2.928      332.362       98.748        0.088      350.169       31.132      862.540
07/10/2013  13:09:00     -427.413      -36.598      -23.235      167.051      103.908       77.126    27906.057    10796.881     5948.382       11.460        2.233      428.977       75.225        0.031      349.933       30.721      862.543
07/10/2013  13:10:00     -397.570     -153.546        3.343      159.604      139.953       76.821    25473.517    19586.767     5901.494       11.630        2.548      426.191       70.611        0.027      349.927       30.709      862.479
07/10/2013  13:11:00     -142.316      -43.089       13.758      155.544      101.153       67.923    24193.787    10231.833     4613.471        3.066        1.952      148.696       79.504        0.286      350.190       31.169      862.473
07/10/2013  13:12:00     -290.008     -227.455        0.446      158.818      156.207       75.011    25223.070    24400.754     5626.630        9.553        2.763      368.565       78.434        0.045      350.173       31.138      862.502
07/10/2013  13:13:00     -252.576     -243.846        3.280      158.319      143.676       74.793    25065.026    20642.883     5593.989        8.727        2.565      351.078       75.285        0.046      350.032       30.893      862.535
07/10/2013  13:14:00     -358.432     -179.571       -4.198      160.580      108.022       78.674    25785.886    11668.714     6189.629       10.218        2.182      400.898       85.226        0.045      349.900       30.663      862.524
07/10/2013  13:15:00     -232.109     -108.621        3.412      136.992      114.215       65.158    18766.827    13045.118     4245.610        5.086        1.803      256.268       74.780        0.085      349.965       30.776      862.521
07/10/2013  13:16:00     -310.302     -117.493       -2.485      215.729      141.092       91.724    46538.947    19906.814     8413.326        9.246        3.743      331.801      119.482        0.130      350.087       30.988      862.559
07/10/2013  13:17:00     -166.805      -60.443        2.646      174.747      123.695       85.042    30536.361    15300.557     7232.205        4.227        2.653      177.419       94.405        0.283      350.233       31.243      862.515
07/10/2013  13:18:00     -308.347     -176.031       -1.669      175.644      128.558       84.441    30850.954    16527.190     7130.302        9.028        2.725      355.056       81.353        0.052      350.224       31.227      862.496
07/10/2013  13:19:00     -106.109     -154.132       12.618      110.454      133.635       54.116    12200.034    17858.325     2928.539        3.407        1.649      187.125       63.791        0.116      350.333       31.417      862.475
07/10/2013  13:20:00     -270.378     -308.036       12.872      205.823      189.805       80.924    42362.940    36025.975     6548.714       12.653        4.247      409.866       86.501        0.045      350.263       31.295      862.479
07/10/2013  13:21:00     -423.668     -309.460       -9.646      248.962      229.567      117.771    61982.026    52700.849    13870.096       20.193        6.428      524.652      135.956        0.067      349.954       30.758      862.526
07/10/2013  13:22:00     -326.447     -150.449      -16.333      203.886      166.093       89.652    41569.427    27586.928     8037.486       10.332        3.860      359.447       94.192        0.069      349.876       30.622      862.532
07/10/2013  13:23:00     -361.190     -254.525       14.578      317.214      256.383      132.110   100624.777    65732.357    17453.020       18.960        9.191      441.861      176.852        0.160      349.931       30.719      862.483
07/10/2013  13:24:00     -506.906     -293.884       -1.390      245.840      187.312       97.182    60437.550    35085.684     9444.389       22.413        5.248      585.937       95.953        0.027      349.660       30.247      862.480
07/10/2013  13:25:00     -300.000     -188.956        5.656      190.266      144.162       84.191    36201.118    20782.635     7088.051        9.489        3.204      354.548      100.027        0.080      349.756       30.413      862.467
07/10/2013  13:26:00     -143.093     -138.119       -0.065      149.600       94.543       66.027    22380.150     8938.401     4359.610        3.761        1.784      198.878       72.930        0.134      349.994       30.831      862.459
07/10/2013  13:27:00     -186.157     -190.433       13.257      207.728      184.640       84.498    43150.793    34092.029     7139.845        7.772        4.219      266.306       81.929        0.095      350.087       30.990      862.434
07/10/2013  13:28:00     -413.808     -169.373       -1.199      204.226      147.169       91.664    41708.200    21658.664     8402.341       13.583        3.588      447.129       97.941        0.048      350.218       31.217      862.436
07/10/2013  13:29:00     -467.660     -352.157       -5.204      289.298      211.557      130.179    83693.459    44756.183    16946.556       24.404        7.270      585.424      155.598        0.071      349.905       30.673      862.419
07/10/2013  13:30:00     -605.760     -257.390      -28.805      291.738      214.456      119.193    85111.176    45991.532    14207.059       28.964        7.265      658.176      133.229        0.041      349.938       30.731      862.409
07/10/2013  13:31:00     -491.285     -283.340      -29.446      219.584      181.380      103.270    48216.959    32898.728    10664.770       20.713        4.589      567.136      104.085        0.034      349.792       30.476      862.477
07/10/2013  13:32:00     -423.185     -151.001      -11.429      202.020      167.063       83.232    40812.051    27910.110     6927.586       13.882        3.782      449.318       92.264        0.042      349.925       30.706      862.488
07/10/2013  13:33:00     -235.930     -106.755       -5.312      170.718      137.940       78.991    29144.486    19027.522     6239.530        6.074        2.721      258.958       84.845        0.107      350.218       31.217      862.466
07/10/2013  13:34:00     -363.489      -55.437       -6.429      181.655      137.003       83.499    32998.685    18769.906     6972.114        9.698        2.937      367.692       88.700        0.058      350.028       30.887      862.467
07/10/2013  13:35:00     -215.333     -107.220       14.435      229.344      133.240       91.333    52598.675    17752.899     8341.677        6.837        3.935      240.551      104.972        0.190      350.173       31.140      862.466
07/10/2013  13:36:00     -144.653     -121.585       16.966      131.480       85.701       64.265    17287.054     7344.666     4129.983        3.237        1.438      188.964       71.293        0.142      350.276       31.319      862.454
07/10/2013  13:37:00      -84.175      -66.588       16.275      136.002       77.315       41.070    18496.625     5977.664     1686.770        1.897        1.308      107.329       54.125        0.254      350.403       31.541      862.454
07/10/2013  13:38:00     -306.938     -113.557       -2.621      207.802      142.183       81.536    43181.541    20216.094     6648.059        8.857        3.502      327.271       99.120        0.092      350.309       31.375      862.449
07/10/2013  13:39:00     -467.615     -100.469       -3.709      264.446      159.269       98.938    69931.609    25366.482     9788.720       16.691        5.254      478.286      127.596        0.071      350.065       30.950      862.413
07/10/2013  13:40:00     -263.046     -204.303        7.125      236.500      165.641       81.118    55932.208    27436.822     6580.058       10.045        4.497      333.066       98.577        0.088      349.770       30.440      862.454
07/10/2013  13:41:00     -287.041     -213.723       -3.668      116.074      139.485       65.868    13473.211    19456.040     4338.606        8.267        1.863      357.869       72.866        0.041      349.832       30.546      862.415
07/10/2013  13:42:00     -183.975      -98.911       18.822      136.782      116.126       67.260    18709.328    13485.213     4523.860        4.034        1.836      208.879       78.217        0.140      350.141       31.084      862.398
07/10/2013  13:43:00     -333.272      -40.568      -17.384      155.949       84.101       58.452    24319.954     7072.933     3416.684        7.391        1.740      335.732       64.763        0.037      350.037       30.900      862.422
07/10/2013  13:44:00     -234.531     -138.709       -6.596      113.622       89.082       58.742    12909.865     7935.673     3450.663        4.929        1.215      272.479       56.118        0.042      350.291       31.345      862.450
07/10/2013  13:45:00     -227.549     -197.771        8.079      173.011      143.324       82.540    29932.808    20541.882     6812.873        7.411        2.864      301.483       95.321        0.100      350.091       30.998      862.455
07/10/2013  13:46:00     -348.928     -127.165      -10.618      175.726      122.631       62.343    30879.767    15038.467     3886.685        9.391        2.490      371.378       74.463        0.040      349.910       30.682      862.420
07/10/2013  13:47:00     -204.110     -144.123        3.722      118.601      122.736       66.793    14066.299    15064.089     4461.297        4.801        1.680      249.864       53.396        0.046      350.185       31.161      862.420
07/10/2013  13:48:00     -251.567     -189.880       -8.599      118.866       95.580       54.861    14129.068     9135.455     3009.778        6.284        1.314      315.183       55.626        0.031      350.250       31.271      862.381
07/10/2013  13:49:00     -382.382     -118.026      -10.849      174.796      133.374       81.018    30553.597    17788.580     6563.977       10.757        2.745      400.182       84.906        0.045      350.231       31.240      862.384
07/10/2013  13:50:00     -301.155      -43.314       -6.517      204.319      127.716       79.305    41746.261    16311.446     6289.232        7.847        3.217      304.254       97.924        0.104      350.244       31.263      862.356
07/10/2013  13:51:00     -320.414      -83.048        3.339      171.743      115.491       76.236    29495.558    13338.168     5811.952        7.910        2.432      331.001       87.221        0.069      350.188       31.165      862.312
07/10/2013  13:52:00     -122.434     -105.326       12.176      154.884       88.011       60.305    23989.165     7745.972     3636.643        3.079        1.769      161.505       68.736        0.181      350.567       31.825      862.273
07/10/2013  13:53:00      -64.083     -134.315        3.919      139.647      134.907       82.692    19501.328    18199.996     6837.989        3.334        2.227      148.819       63.073        0.180      350.650       31.967      862.217
07/10/2013  13:54:00      -24.615     -137.339       28.925      160.873       92.810       67.824    25880.190     8613.713     4600.116        2.969        1.955      139.528       52.526        0.142      350.682       32.023      862.329
07/10/2013  13:55:00     -300.450     -248.954        9.988      206.543      153.247       86.114    42659.892    23484.594     7415.682       11.294        3.678      390.190       92.128        0.056      350.315       31.384      862.344
07/10/2013  13:56:00     -168.106     -158.948       13.422      154.912      121.486       62.127    23997.718    14758.782     3859.787        4.815        2.131      231.353       75.206        0.106      350.297       31.354      862.365
07/10/2013  13:57:00     -280.036     -107.975       -1.143      176.243      165.639       75.535    31061.475    27436.422     5705.524        7.713        3.210      300.132       72.785        0.059      350.411       31.555      862.370
07/10/2013  13:58:00     -504.031      -77.783      -18.500      205.172      145.826       86.757    42095.496    21265.134     7526.818       16.565        3.544      509.998      103.135        0.041      350.095       31.003      862.336
07/10/2013  13:59:00     -378.627     -115.691        7.321      176.899      115.635       78.201    31293.156    13371.426     6115.426       10.378        2.539      395.908       79.207        0.040      350.044       30.914      862.311
07/10/2013  14:00:00     -204.171     -202.845        4.363      140.410      137.534       65.568    19714.946    18915.634     4299.102        6.288        2.146      287.806       75.510        0.069      350.015       30.866      862.333
07/10/2013  14:01:00      -33.397      -84.189       22.612       72.749       93.473       51.682     5292.470     8737.118     2670.996        1.270        0.835       90.571       47.295        0.273      350.314       31.386      862.309
07/10/2013  14:02:00      -84.830     -119.218        2.081      139.274      107.513       58.381    19397.217    11559.125     3408.308        2.788        1.718      146.318       61.706        0.178      350.100       31.011      862.294
07/10/2013  14:03:00     -276.115      -48.407      -15.866      242.539      161.037       97.186    58825.154    25932.909     9445.042        8.650        4.710      280.326      107.113        0.146      350.177       31.146      862.202
07/10/2013  14:04:00     -228.398     -107.688       -6.854      144.070      105.424       62.885    20756.115    11114.212     3954.549        4.981        1.791      252.512       65.104        0.066      350.390       31.516      862.299
07/10/2013  14:05:00     -386.516     -208.600       -7.504      243.483      204.738       94.432    59284.169    41917.480     8917.376       15.152        5.506      439.213      120.933        0.076      350.111       31.030      862.290
07/10/2013  14:06:00     -253.191     -162.523       -2.476      160.595      122.013       77.679    25790.806    14887.121     6034.053        6.861        2.336      300.864       64.106        0.045      350.072       30.964      862.301
07/10/2013  14:07:00     -168.045     -208.056        9.562      111.841      128.976       61.198    12508.428    16634.758     3745.140        5.225        1.644      267.444       60.347        0.051      350.098       31.007      862.316
07/10/2013  14:08:00     -169.989     -219.314      -12.283      123.328      111.662       62.692    15209.901    12468.504     3930.270        5.437        1.580      277.480       68.135        0.060      350.047       30.921      862.321
07/10/2013  14:09:00     -152.320     -225.629      -17.791      141.840      107.403       67.536    20118.713    11535.502     4561.123        5.531        1.811      272.231       46.911        0.030      349.983       30.807      862.323
07/10/2013  14:10:00     -148.716     -171.593        9.053      139.985      111.331       68.111    19595.807    12394.600     4639.052        4.413        1.831      227.070       70.364        0.096      350.128       31.061      862.317
07/10/2013  14:11:00      -91.214      -73.949        8.238       94.463       95.883       45.959     8923.194     9193.482     2112.195        1.704        1.011      117.425       43.534        0.137      350.451       31.625      862.322
07/10/2013  14:12:00      -82.238      -42.129       13.345      107.887       53.211       38.626    11639.550     2831.401     1491.949        1.234        0.798       92.402       47.346        0.263      350.345       31.440      862.262
07/10/2013  14:13:00     -405.760     -161.233      -25.301      184.121      166.337       80.221    33900.371    27667.840     6435.424       12.963        3.400      436.620       93.716        0.046      349.861       30.596      862.207
07/10/2013  14:14:00     -331.386     -199.134      -10.448      169.005      166.537       74.813    28562.617    27734.702     5597.057       10.573        3.095      386.615       90.029        0.054      350.064       30.950      862.138
07/10/2013  14:15:00     -126.559     -177.719        7.346      127.738      129.374       65.704    16316.904    16737.672     4317.043        4.251        1.869      218.177       56.327        0.067      350.336       31.423      862.156
07/10/2013  14:16:00       34.703      -72.783       26.433       79.595      107.909       53.686     6335.441    11644.261     2882.158        1.403        1.043       80.633       57.131        0.502      350.513       31.733      862.197
07/10/2013  14:17:00     -237.976     -173.341       -1.557       89.805      106.761       55.225     8064.941    11397.941     3049.754        5.459        1.126      294.414       53.688        0.033      350.157       31.109      862.191
07/10/2013  14:18:00     -247.329     -190.199       -5.388      154.300      138.363       64.036    23808.416    19144.336     4100.633        7.221        2.353      312.006       82.743        0.070      350.380       31.499      862.190
07/10/2013  14:19:00     -286.759     -266.269      -11.091      136.596      106.611       63.153    18658.584    11365.816     3988.346        9.363        1.701      391.318       64.097        0.027      350.176       31.145      862.213
07/10/2013  14:20:00      -59.331     -299.939       -4.977      118.763      114.402       66.952    14104.681    13087.768     4482.573        6.259        1.584      305.750       47.639        0.024      350.025       30.882      862.262
07/10/2013  14:21:00       -6.002     -110.067       32.357      157.165      153.084       69.159    24700.714    23434.855     4783.008        3.305        2.646      110.231       76.792        0.485      350.214       31.211      862.238
07/10/2013  14:22:00      114.806     -192.757       45.477      117.886      194.223       95.776    13897.168    37722.590     9173.094        5.659        3.040      224.357      124.242        0.307      350.087       30.990      862.159
07/10/2013  14:23:00      -35.677      -91.963       19.521      124.076       73.613       58.540    15394.787     5418.898     3426.978        1.717        1.212       98.641       50.638        0.264      350.373       31.487      862.176
07/10/2013  14:24:00      -61.112      -39.614       10.966      104.968       70.416       48.141    11018.341     4958.410     2317.553        1.186        0.915       72.828       29.479        0.164      350.355       31.458      862.228
07/10/2013  14:25:00      -96.250      -40.036       16.574       93.914       66.440       42.343     8819.792     4414.280     1792.930        1.308        0.751      104.245       36.020        0.119      350.294       31.351      862.272
07/10/2013  14:26:00     -203.262     -131.905        1.081      143.327      120.066       52.963    20542.748    14415.761     2805.087        4.823        1.888      242.311       54.486        0.051      350.284       31.335      862.318
07/10/2013  14:27:00     -192.717     -143.349        1.729      146.305      167.653       67.453    21405.208    28107.586     4549.970        5.587        2.703      240.185       68.613        0.082      349.736       30.380      862.315
07/10/2013  14:28:00     -383.936      -32.085      -19.680      191.704      131.270       72.543    36750.250    17231.888     5262.469       10.402        2.962      385.275       87.841        0.052      349.846       30.570      862.162
07/10/2013  14:29:00     -272.195     -203.370        2.304      175.684      169.915       95.672    30864.699    28871.249     9153.075        9.216        3.444      339.779       91.011        0.072      350.063       30.948      862.102
07/10/2013  14:30:00     -249.173     -281.352        0.598      127.989      174.754       91.135    16381.216    30539.121     8305.532        9.823        2.761      375.827       71.621        0.036      350.109       31.028      862.176
07/10/2013  14:31:00     -378.629     -354.858       -6.636      238.091      210.748       97.708    56687.469    44414.817     9546.828       18.997        5.532      518.926      100.476        0.037      349.937       30.728      862.122
07/10/2013  14:32:00     -310.877     -256.516       16.483      274.302      181.130      109.965    75241.436    32807.932    12092.234       14.141        6.007      403.045      147.405        0.134      350.107       31.025      862.082
07/10/2013  14:33:00     -333.213     -342.526      -12.894      226.679      189.529       96.818    51383.416    35921.159     9373.759       16.258        4.834      477.865      106.099        0.049      350.037       30.900      862.077
07/10/2013  14:34:00     -586.849     -332.884      -14.984      243.956      177.722      106.733    59514.428    31585.154    11391.835       27.894        5.125      674.687      119.843        0.032      350.037       30.901      862.041
07/10/2013  14:35:00     -461.341     -296.094       -5.061      249.480      157.844      112.837    62240.288    24914.833    12732.250       20.019        4.994      548.185      125.586        0.052      350.179       31.148      862.063
07/10/2013  14:36:00     -486.637     -374.947      -11.136      281.071      231.272      123.811    79000.635    53486.529    15329.060       26.264        7.391      614.329      149.856        0.060      349.916       30.691      862.083
07/10/2013  14:37:00     -260.874     -195.014        9.493      216.481      185.687      101.439    46863.908    34479.610    10289.835        9.889        4.582      325.708      119.846        0.135      350.236       31.248      862.073
07/10/2013  14:38:00     -213.655     -167.749        0.227      251.454      172.403      103.142    63229.110    29722.856    10638.235        8.867        5.180      271.640      101.921        0.141      350.247       31.269      862.068
07/10/2013  14:39:00     -526.205     -242.630      -30.313      318.292      214.841      104.941   101309.955    46156.752    11012.561       24.755        7.924      579.449      122.457        0.045      350.120       31.044      862.084
07/10/2013  14:40:00     -439.603     -179.062       18.448      228.824      228.627      106.264    52360.313    52270.180    11292.011       17.077        5.796      474.673      106.619        0.050      350.145       31.090      862.062
07/10/2013  14:41:00     -476.216     -388.959      -27.641      236.342      165.194      115.105    55857.517    27289.207    13249.139       23.760        4.820      614.875      118.662        0.037      349.970       30.785      862.053
07/10/2013  14:42:00     -488.271     -276.859      -26.781      175.184      166.738       93.484    30689.551    27801.644     8739.203       19.149        3.362      561.301       81.216        0.021      349.947       30.746      862.023
07/10/2013  14:43:00     -267.857     -177.311        3.845      246.273      151.534       95.002    60650.173    22962.465     9025.458        9.790        4.632      321.226      115.713        0.130      350.031       30.892      862.023
07/10/2013  14:44:00     -619.110     -306.206      -38.902      210.550      146.256       84.171    44331.113    21390.939     7084.799       27.567        3.640      690.695       92.559        0.018      349.896       30.658      862.005
07/10/2013  14:45:00     -338.770     -316.075       -5.737      177.324      131.980       88.083    31443.840    17418.756     7758.624       13.565        2.831      463.323       85.591        0.034      350.109       31.027      862.011
07/10/2013  14:46:00     -292.280     -220.268       -1.443      165.892      140.300       81.282    27519.998    19683.977     6606.775        9.387        2.691      365.986       80.353        0.048      350.333       31.416      862.035
07/10/2013  14:47:00     -311.479     -181.041       -4.456      180.610      130.905       94.419    32620.121    17136.022     8914.862        9.423        2.934      360.271      100.012        0.077      350.452       31.623      862.054
07/10/2013  14:48:00     -303.408     -152.404        6.516      190.551      134.725       89.344    36309.622    18150.792     7982.404        8.887        3.122      339.534       94.811        0.078      350.351       31.447      862.040
07/10/2013  14:49:00     -396.925     -352.461      -15.317      211.714      204.405       98.160    44822.725    41781.221     9635.411       18.911        4.812      530.828       91.672        0.030      350.010       30.857      862.036
07/10/2013  14:50:00     -285.502     -218.126       16.701      235.712      175.736      114.083    55560.313    30882.985    13015.032       11.439        4.973      359.292      135.549        0.142      350.075       30.968      862.033
07/10/2013  14:51:00     -207.330     -223.214       21.500      199.252      179.128       97.939    39701.174    32086.820     9592.099        8.731        4.069      304.648      101.197        0.110      350.060       30.942      862.024
07/10/2013  14:52:00     -249.594     -171.347        1.857      174.293      184.997       87.405    30378.108    34224.021     7639.612        8.194        3.612      302.749       89.838        0.088      350.211       31.205      861.993
07/10/2013  14:53:00     -300.590     -236.880        7.601      255.693      201.303      103.591    65379.055    40523.028    10731.017       13.156        5.832      382.710      131.463        0.118      350.243       31.261      862.000
07/10/2013  14:54:00     -341.774     -140.453       -6.812      237.669      183.366       98.974    56486.457    33623.199     9795.763       11.822        4.995      369.508      122.890        0.111      350.189       31.166      861.973
07/10/2013  14:55:00     -275.244     -203.559      -25.510      161.023      153.683       90.053    25928.439    23618.443     8109.613        8.774        2.883      342.338       92.918        0.074      350.199       31.184      861.941
07/10/2013  14:56:00     -248.359     -239.391        5.190      216.505      180.909       89.233    46874.499    32728.056     7962.535       10.327        4.378      344.950       99.068        0.082      350.284       31.333      861.925
07/10/2013  14:57:00     -360.534     -270.883       -6.098      255.991      161.745      100.025    65531.443    26161.347    10005.090       15.253        5.085      450.957      122.971        0.074      350.481       31.673      861.931
07/10/2013  14:58:00     -359.629     -165.502      -16.582      286.634      174.100       92.683    82158.859    30310.934     8590.052       13.901        6.053      395.884      135.320        0.117      350.310       31.376      861.906
07/10/2013  14:59:00     -475.846     -439.587      -11.870      289.962      283.394      114.887    84078.218    80312.073    13199.044       29.866        8.879      647.817      135.247        0.044      350.226       31.230      861.957
07/10/2013  15:00:00     -317.279     -218.780       26.401      212.153      199.409      107.701    45008.986    39763.921    11599.482       12.278        4.819      385.397      116.072        0.091      350.480       31.671      862.009
07/10/2013  15:01:00     -433.942     -252.230      -21.713      188.587      166.809       84.383    35565.037    27825.402     7120.492       16.144        3.526      501.921       73.885        0.022      350.233       31.243      862.021
07/10/2013  15:02:00     -394.378     -227.511      -19.965      252.032      205.890      113.307    63520.375    42390.709    12838.469       16.320        5.937      455.297      126.371        0.077      350.251       31.273      862.001
07/10/2013  15:03:00     -492.408     -299.117      -25.571      264.734      217.540      117.375    70084.130    47323.861    13776.989       23.186        6.559      576.139      133.547        0.054      350.037       30.902      862.000
07/10/2013  15:04:00     -216.436     -245.017       27.234      236.886      171.371      135.093    56114.811    29368.142    18250.203       10.566        5.187      326.922      146.743        0.201      350.218       31.218      861.955
07/10/2013  15:05:00     -524.847     -200.812       -3.734      253.929      204.627      101.902    64480.009    41872.386    10384.031       21.625        5.837      561.952      105.490        0.035      350.185       31.160      861.988
07/10/2013  15:06:00     -474.207     -275.373      -15.314      240.692      206.871      107.398    57932.647    42795.484    11534.233       20.658        5.613      548.363      108.324        0.039      350.125       31.055      862.005
07/10/2013  15:07:00     -409.272     -253.344      -11.863      236.590      191.737      112.289    55974.767    36762.947    12608.929       16.857        5.267      481.339      104.880        0.047      350.221       31.222      862.006
07/10/2013  15:08:00     -269.107     -293.728      -10.551      199.776      166.982      115.381    39910.484    27882.878    13312.685       11.994        4.055      398.365      126.106        0.100      350.176       31.144      861.994
07/10/2013  15:09:00     -330.333      -25.192        3.395      285.977      184.796       98.142    81783.009    34149.645     9631.844       11.764        6.278      331.293      114.502        0.119      350.353       31.451      861.911
07/10/2013  15:10:00     -345.735     -109.963       31.011      264.609      257.832      122.763    70018.122    66477.180    15070.710       14.205        7.578      362.801      123.777        0.116      350.413       31.556      861.844
07/10/2013  15:11:00     -537.994     -164.029      -34.712      256.146      218.701       91.399    65610.794    47829.982     8353.720       21.965        6.090      562.444      121.069        0.046      350.256       31.282      861.852
07/10/2013  15:12:00     -325.521     -228.467       12.615      261.530      216.541      130.028    68397.797    46890.069    16907.270       14.523        6.610      397.695      152.639        0.147      350.430       31.585      861.802
07/10/2013  15:13:00     -357.635     -170.488        4.033      253.578      218.386      121.613    64301.913    47692.235    14789.628       14.186        6.339      396.193      140.778        0.126      350.407       31.546      861.809
07/10/2013  15:14:00     -598.936     -149.350      -30.614      258.253      183.113       99.646    66694.727    33530.543     9929.413       24.604        5.508      617.276      109.442        0.031      350.319       31.392      861.834
07/10/2013  15:15:00     -329.877      -77.701        3.101      242.389      158.540      108.854    58752.353    25135.009    11849.134       10.528        4.787      338.905      109.098        0.104      350.323       31.399      861.875
07/10/2013  15:16:00     -361.690      -77.329        3.179      242.826      173.442       90.498    58964.359    30082.150     8189.877       11.700        4.862      369.864      117.983        0.102      350.410       31.549      861.904
07/10/2013  15:17:00     -293.973     -185.506       -8.339      179.763      125.255       79.159    32314.914    15688.720     6266.115        8.758        2.713      347.610       89.207        0.066      350.290       31.343      861.903
07/10/2013  15:18:00     -299.215      -95.699        9.027      186.161      136.070       81.656    34655.851    18515.069     6667.717        7.929        2.992      314.146      103.728        0.109      350.250       31.273      861.890
07/10/2013  15:19:00     -479.666      -94.413        2.294      252.687      189.809      103.923    63850.646    36027.541    10799.962       17.482        5.534      488.869      119.813        0.060      350.093       31.001      861.841
07/10/2013  15:20:00     -477.539      -93.573       -9.917      265.473      197.932      107.918    70475.695    39176.973    11646.353       17.907        6.065      486.621      123.711        0.065      350.144       31.088      861.831
07/10/2013  15:21:00     -265.885      -91.660       13.414      268.821      136.030       97.138    72264.893    18504.286     9435.785        8.972        5.010      281.240      108.290        0.148      350.557       31.807      861.820
07/10/2013  15:22:00     -528.113      -26.517      -12.683      321.912      193.546      107.713   103627.396    37460.096    11602.061       21.620        7.634      528.779      139.768        0.070      350.314       31.384      861.787
07/10/2013  15:23:00     -488.533     -120.467       -4.714      309.211      229.007      113.732    95611.747    52444.018    12935.015       20.706        8.050      503.167      130.680        0.067      350.450       31.621      861.770
07/10/2013  15:24:00     -434.717     -325.172      -18.770      220.939      183.005      100.433    48813.853    33490.737    10086.886       19.371        4.620      542.877      118.698        0.048      350.158       31.112      861.784
07/10/2013  15:25:00     -268.810     -220.487       15.950      213.960      179.182       84.650    45778.670    32106.144     7165.564       10.307        4.253      347.669       91.607        0.069      350.379       31.496      861.769
07/10/2013  15:26:00     -276.459     -180.531       24.044      208.362      204.286      113.677    43414.687    41732.908    12922.485       10.382        4.904      330.184      122.014        0.137      350.434       31.592      861.768
07/10/2013  15:27:00     -235.885     -112.795        6.958      187.514      148.447       97.234    35161.610    22036.575     9454.535        6.752        3.333      261.466       95.400        0.133      350.604       31.888      861.721
07/10/2013  15:28:00     -131.380     -119.022       13.844      170.795      124.564       72.776    29170.768    15516.138     5296.407        4.079        2.499      177.277       70.677        0.159      350.678       32.017      861.765
07/10/2013  15:29:00     -404.357     -145.016       -2.284      312.099      149.726       87.818    97405.740    22417.818     7712.034       15.601        6.377      429.574      107.950        0.063      350.467       31.649      861.769
07/10/2013  15:30:00     -137.771      -59.386       28.276      199.504      160.014      111.385    39801.705    25604.556    12406.696        5.054        3.891      150.026      102.142        0.464      350.591       31.866      861.773
07/10/2013  15:31:00     -569.137     -328.768      -24.021      254.919      165.279      112.023    64983.569    27317.006    12549.055       26.870        5.242      657.272      116.991        0.032      350.259       31.288      861.763
07/10/2013  15:32:00     -464.903     -108.254      -10.322      285.090      169.668      101.071    81276.358    28787.126    10215.383       17.410        6.014      477.340      127.439        0.071      350.287       31.336      861.794
07/10/2013  15:33:00     -171.484     -111.421       21.643      157.836      141.734       87.702    24912.239    20088.441     7691.711        4.748        2.635      204.503       89.746        0.193      350.464       31.645      861.819
07/10/2013  15:34:00     -303.251     -163.382        2.275      265.203      160.282       96.679    70332.674    25690.282     9346.756       11.199        5.268      344.463      125.040        0.132      350.535       31.769      861.800
07/10/2013  15:35:00     -554.691     -187.864      -12.443      253.779      242.855      104.466    64403.866    58978.478    10913.150       23.869        6.715      585.640      119.956        0.042      350.070       30.959      861.830
07/10/2013  15:36:00     -452.380     -221.733      -20.670      186.346      180.501       94.334    34724.988    32580.668     8898.865       16.521        3.810      503.799       85.417        0.029      350.044       30.915      861.831
07/10/2013  15:37:00     -425.965      -48.020      -16.755      291.822      168.559       91.081    85160.201    28412.294     8295.760       15.293        6.093      428.663      115.705        0.073      350.226       31.233      861.804
07/10/2013  15:38:00     -443.140     -300.643       -4.672      291.400      224.879      109.023    84913.749    50570.394    11886.078       21.705        7.369      535.500      127.357        0.057      350.240       31.254      861.779
07/10/2013  15:39:00     -419.675     -140.917       -9.691      269.480      201.275       94.166    72619.584    40511.536     8867.213       15.901        6.100      442.702      114.195        0.067      350.215       31.211      861.836
07/10/2013  15:40:00     -512.624     -118.058      -13.579      255.183      201.182      120.248    65118.146    40474.317    14459.569       19.845        6.003      526.042      130.239        0.061      350.238       31.251      861.829
07/10/2013  15:41:00     -631.731     -260.869      -50.952      275.904      205.877      112.462    76123.070    42385.421    12647.744       30.042        6.558      683.474      108.082        0.025      350.020       30.872      861.786
07/10/2013  15:42:00     -406.924     -245.712        4.727      267.530      222.027      125.307    71572.090    49295.971    15701.838       18.125        6.828      475.354      150.042        0.100      350.190       31.168      861.768
07/10/2013  15:43:00     -365.257     -297.217       -6.925      190.853      155.233      107.093    36424.956    24097.189    11468.972       14.688        3.600      470.904       97.495        0.043      350.236       31.247      861.789
07/10/2013  15:44:00     -436.202     -203.180       -2.752      283.733      217.616      101.301    80504.424    47356.925    10261.828       18.482        6.906      481.201      111.636        0.054      350.268       31.304      861.790
07/10/2013  15:45:00     -329.258     -169.765       24.194      244.685      177.784       97.419    59870.899    31607.006     9490.404       11.937        5.048      370.447      111.122        0.090      350.141       31.082      861.800
07/10/2013  15:46:00     -233.376      -46.901       16.170      167.496      120.252       73.242    28054.791    14460.619     5364.430        5.239        2.394      238.042       81.929        0.118      350.362       31.469      861.780
07/10/2013  15:47:00     -299.732      -76.859       -7.607      161.583      104.438       76.038    26109.114    10907.315     5781.794        6.929        2.140      309.429       81.850        0.070      350.443       31.607      861.790
07/10/2013  15:48:00     -391.049     -117.586        8.761      223.130      171.671       90.353    49787.194    29470.865     8163.628       12.710        4.371      408.345       95.618        0.055      350.597       31.876      861.783
07/10/2013  15:49:00     -538.928     -201.820      -34.274      294.682      221.531      110.137    86837.244    49076.193    12130.207       24.017        7.402      575.478      127.867        0.049      350.117       31.040      861.750
07/10/2013  15:50:00     -367.238     -243.992        2.104      250.199      232.444      116.401    62599.441    54030.374    13549.127       16.226        6.509      440.904      134.240        0.093      350.039       30.906      861.729
07/10/2013  15:51:00     -386.866     -276.490      -17.393      242.052      154.619       81.666    58589.161    23907.164     6669.313       15.777        4.458      475.512      104.903        0.049      350.191       31.170      861.711
07/10/2013  15:52:00     -284.591     -271.282       13.657      213.877      211.665      114.127    45743.180    44802.242    13025.064       12.915        5.179      393.174      126.390        0.103      350.175       31.141      861.678
07/10/2013  15:53:00     -253.634     -227.107        3.743      211.288      159.392      103.955    44642.717    25405.783    10806.587        9.837        4.043      340.452      118.373        0.121      350.425       31.577      861.668
07/10/2013  15:54:00     -428.160     -236.460      -13.713      186.647      150.239       82.598    34837.048    22571.714     6822.360       15.181        3.212      489.115       92.146        0.035      350.128       31.060      861.711
07/10/2013  15:55:00     -349.795     -181.207      -11.556      205.427      137.620       82.319    42200.451    18939.227     6776.496       11.161        3.396      393.944       96.199        0.060      350.135       31.072      861.716
07/10/2013  15:56:00      -94.111     -234.648        6.950       96.349      157.433       70.245     9283.206    24785.064     4934.404        5.148        1.950      252.817       65.850        0.068      350.023       30.878      861.694
07/10/2013  15:57:00      -86.141     -181.795       -4.808      154.122      103.150       53.571    23753.734    10639.855     2869.896        3.887        1.863      201.171       44.946        0.050      350.275       31.316      861.718
07/10/2013  15:58:00     -395.097     -279.120       -8.101      246.800      200.728       94.560    60910.304    40291.853     8941.524       17.209        5.507      483.745      108.930        0.051      350.231       31.239      861.710
07/10/2013  15:59:00     -373.020     -266.122       -1.583      209.442      161.741       91.620    43866.110    26160.129     8394.251       14.418        3.921      458.219      114.772        0.063      349.960       30.770      861.700
07/10/2013  16:00:00     -317.951     -167.328      -18.440      140.173      103.102       62.103    19648.410    10630.028     3856.829        8.178        1.707      359.293       56.786        0.025      350.159       31.113      861.696
07/10/2013  16:01:00     -458.365      -40.489      -14.129      148.746      117.229       87.404    22125.428    13742.744     7639.440       12.771        2.175      460.150       83.390        0.033      350.045       30.916      861.725
07/10/2013  16:02:00     -194.218      -86.475        8.700      156.360      112.065       57.885    24448.506    12558.541     3350.638        4.281        2.018      212.600       57.183        0.072      350.296       31.353      861.728
07/10/2013  16:03:00     -123.796       30.592       10.105      152.539      112.919       74.491    23268.283    12750.807     5548.856        2.896        2.078      127.520       83.131        0.425      350.329       31.411      861.681
07/10/2013  16:04:00     -173.388     -116.385        2.382      202.135      141.931       73.501    40858.573    20144.278     5402.355        5.500        3.320      208.827       96.712        0.214      350.224       31.228      861.605
07/10/2013  16:05:00     -168.229      -67.340       21.390      164.273      145.120       69.600    26985.754    21059.918     4844.155        4.308        2.644      181.206       82.348        0.207      350.415       31.561      861.551
07/10/2013  16:06:00     -330.566       25.669      -14.546      186.324      183.810       86.316    34716.527    33785.965     7450.473        9.303        3.798      331.561       79.458        0.057      350.398       31.530      861.512
07/10/2013  16:07:00     -206.400     -118.014        0.730      176.872      142.227       68.569    31283.736    20228.530     4701.735        5.636        2.811      237.756       69.831        0.086      350.754       32.149      861.511
07/10/2013  16:08:00     -239.711      -52.421        3.072      199.254      171.662      100.915    39702.313    29467.788    10183.917        6.977        3.968      245.376      108.316        0.195      350.702       32.058      861.531
07/10/2013  16:09:00     -380.143     -266.581      -22.410      229.864      166.716       97.363    52837.374    27794.336     9479.555       15.308        4.506      464.300      107.335        0.053      350.382       31.501      861.533
07/10/2013  16:10:00     -381.200     -227.666       -2.951      217.085      157.358       97.948    47125.736    24761.532     9593.859       13.930        4.074      444.011      111.084        0.063      350.280       31.324      861.532
07/10/2013  16:11:00     -641.387     -385.968      -34.209      213.640      190.943      103.419    45641.840    36459.410    10695.496       32.714        4.640      748.565      105.337        0.020      350.101       31.013      861.532
07/10/2013  16:12:00     -306.071     -226.309       -3.616      193.168      221.307       95.676    37314.040    48976.921     9153.977       12.016        4.772      380.651      103.676        0.074      350.222       31.224      861.580
07/10/2013  16:13:00     -283.950     -138.836        7.349      203.468      179.613      107.937    41399.271    32260.910    11650.366        9.262        4.266      316.074      115.988        0.135      350.312       31.379      861.584
07/10/2013  16:14:00     -326.846     -326.907       14.807      266.461      193.704      141.069    71001.523    37521.166    19900.461       17.114        6.421      462.273      163.287        0.125      350.034       30.896      861.577
07/10/2013  16:15:00     -207.990     -124.456       -6.975      174.794      148.365       80.372    30552.847    22012.154     6459.587        5.890        2.951      242.382       80.055        0.109      350.233       31.242      861.553
07/10/2013  16:16:00     -339.463     -219.602       -5.509      201.216      219.208      107.484    40487.978    48052.142    11552.843       13.177        5.005      404.302      101.216        0.063      350.265       31.298      861.523
07/10/2013  16:17:00     -339.887     -176.859        7.774      265.572      223.322      117.994    70528.536    49872.496    13922.631       14.057        6.716      383.148      144.482        0.142      350.216       31.213      861.556
07/10/2013  16:18:00     -524.522     -317.295      -12.894      197.575      196.590       96.558    39035.813    38647.433     9323.430       23.147        4.350      613.025      100.023        0.027      350.004       30.844      861.513
07/10/2013  16:19:00     -490.242     -365.608       -8.153      309.702      208.863      120.027    95915.558    43623.650    14406.503       26.398        7.697      611.561      139.464        0.052      349.775       30.446      861.525
07/10/2013  16:20:00     -300.457     -219.043        3.506      269.163      162.463       95.593    72448.630    26394.221     9137.944       12.310        5.399      371.825      123.533        0.110      349.901       30.666      861.518
07/10/2013  16:21:00     -587.212     -174.197      -28.331      271.903      148.979       96.526    73931.460    22194.666     9317.181       24.068        5.272      612.505      133.875        0.048      349.882       30.632      861.461
07/10/2013  16:22:00     -600.683     -198.480      -28.299      257.182      180.365       93.048    66142.542    32531.651     8657.955       25.415        5.367      632.625      121.404        0.037      349.956       30.761      861.471
07/10/2013  16:23:00     -583.239      -60.068      -23.770      225.654      199.819      100.516    50919.596    39927.769    10103.419       22.263        5.048      586.324       89.397        0.023      350.029       30.888      861.445
07/10/2013  16:24:00     -488.600     -289.279      -23.767      304.908      222.275      113.077    92969.094    49406.009    12786.372       23.904        7.758      567.813      147.466        0.067      349.894       30.653      861.464
07/10/2013  16:25:00     -362.488     -234.939      -27.404      185.081      178.516       90.371    34255.103    31867.916     8166.903       13.080        3.714      431.965       98.180        0.052      349.900       30.663      861.473
07/10/2013  16:26:00     -147.136      -60.229       35.267      198.384      103.929       82.602    39356.315    10801.202     6823.137        4.174        2.849      158.986       83.926        0.279      350.258       31.287      861.452
07/10/2013  16:27:00     -297.915     -102.356        1.427      204.257      200.212       96.142    41720.750    40085.037     9243.286        9.512        4.552      315.008      102.499        0.106      350.234       31.245      861.441
07/10/2013  16:28:00     -373.751     -195.860      -26.071      224.444      217.782       98.516    50375.054    47429.146     9705.448       14.310        5.375      421.961       92.509        0.048      350.135       31.072      861.435
07/10/2013  16:29:00     -440.446     -133.262      -23.262      297.653      190.058       85.237    88597.112    36122.095     7265.404       17.211        6.599      460.165      114.248        0.062      350.205       31.195      861.425
07/10/2013  16:30:00     -402.494     -184.484      -21.378      243.951      209.699      102.259    59511.960    43973.819    10456.948       15.520        5.697      442.760      109.827        0.062      350.100       31.012      861.422
07/10/2013  16:31:00     -376.663     -148.397       -2.333      285.914      155.114      105.531    81747.025    24060.467    11136.890       14.040        5.847      404.842      139.201        0.118      350.203       31.192      861.409
07/10/2013  16:32:00     -195.204     -151.401        9.758      125.745      130.485       61.338    15811.734    17026.211     3762.317        4.885        1.830      247.036       55.257        0.050      350.365       31.473      861.436
07/10/2013  16:33:00     -428.651     -293.115      -16.193      279.902      152.449      103.050    78345.252    23240.828    10619.211       19.104        5.610      519.286      122.855        0.056      350.033       30.896      861.405
07/10/2013  16:34:00     -325.710     -187.877       13.972      244.099      157.095       85.732    59584.143    24678.889     7350.042       11.658        4.581      376.011       93.671        0.062      350.077       30.971      861.407
07/10/2013  16:35:00     -327.160     -215.803        3.624      223.766      177.382       92.432    50071.220    31464.508     8543.718       12.183        4.504      391.924       91.875        0.055      350.076       30.970      861.368
07/10/2013  16:36:00     -386.806     -246.790      -15.582      201.125      196.207       99.250    40451.241    38497.062     9850.507       14.977        4.440      458.829      104.477        0.052      350.059       30.940      861.365
07/10/2013  16:37:00     -389.210     -277.141       24.209      305.778      188.294      114.944    93500.175    35454.545    13212.159       18.549        7.108      477.799      146.420        0.094      349.953       30.757      861.303
07/10/2013  16:38:00     -374.611     -257.701       -4.829      176.028      183.840       93.703    30985.804    33796.997     8780.206       14.015        3.678      454.691       90.580        0.040      349.921       30.702      861.307
07/10/2013  16:39:00     -506.189     -159.467       15.493      354.915      196.921      120.436   125964.982    38777.994    14504.790       23.054        8.962      530.714      146.302        0.076      349.867       30.607      861.289
07/10/2013  16:40:00     -249.311     -149.442       30.122      256.846      192.056      112.379    65969.972    36885.509    12629.068       10.042        5.774      290.670      136.816        0.222      349.868       30.609      861.268
07/10/2013  16:41:00     -415.453     -267.474      -19.726      199.537      204.271      100.521    39814.938    41726.842    10104.479       16.807        4.582      494.109       99.787        0.041      349.803       30.496      861.330
07/10/2013  16:42:00     -280.541     -162.958       18.066      241.184      177.294      110.071    58169.533    31433.089    12115.639       10.363        5.086      324.436      125.235        0.149      349.861       30.597      861.308
07/10/2013  16:43:00     -563.889     -124.665      -24.627      229.300      253.636      104.048    52578.400    64331.442    10825.997       23.090        6.387      577.505      105.950        0.034      349.805       30.499      861.304
07/10/2013  16:44:00     -549.631     -151.739      -24.411      228.658      194.842       99.010    52284.382    37963.450     9802.911       21.286        5.003      570.192      109.543        0.037      349.893       30.653      861.298
07/10/2013  16:45:00     -507.162      -69.940      -10.797      248.910      159.645       96.633    61956.431    25486.608     9337.961       17.948        4.839      511.962      107.498        0.044      349.892       30.650      861.269
07/10/2013  16:46:00     -444.728     -189.341       -5.055      223.493      151.388       87.634    49949.195    22918.370     7679.705       15.709        4.027      483.356      108.373        0.050      349.951       30.752      861.322
07/10/2013  16:47:00     -244.352     -101.586       12.169      189.217      145.536       87.205    35803.174    21180.774     7604.780        6.737        3.229      264.628       79.609        0.091      350.018       30.868      861.333
07/10/2013  16:48:00     -444.168     -277.050       15.550      353.832      236.024      138.393   125196.910    55707.553    19152.566       23.713       10.003      523.490      180.191        0.118      349.931       30.718      861.269
07/10/2013  16:49:00     -563.077     -268.837      -19.439      292.940      217.306      113.067    85813.646    47221.978    12784.185       26.773        7.291      623.962      113.932        0.033      349.642       30.216      861.280
07/10/2013  16:50:00     -398.355     -327.402       -7.205      267.790      232.072      118.578    71711.720    53857.282    14060.845       20.275        6.981      515.634      145.787        0.080      349.622       30.182      861.290
07/10/2013  16:51:00     -305.833     -150.766        2.603      203.886      194.320       88.728    41569.570    37760.105     7872.730       10.172        4.360      340.975      105.551        0.096      349.772       30.441      861.302
07/10/2013  16:52:00     -324.004     -177.276      -13.837      239.797      164.092      110.979    57502.461    26926.238    12316.240       11.665        4.837      369.330      117.581        0.101      349.693       30.305      861.330
07/10/2013  16:53:00     -368.126      -86.778        9.650      242.942      208.622      104.627    59020.838    43522.947    10946.706       12.829        5.675      378.216      113.568        0.090      349.621       30.181      861.311
07/10/2013  16:54:00     -286.889      -43.942       20.701      308.026      189.658       96.754    94880.010    35970.217     9361.241       11.241        7.011      290.235      114.685        0.156      349.654       30.238      861.305
07/10/2013  16:55:00     -507.594     -395.605        1.611      263.381      211.530      124.053    69369.607    44744.879    15389.085       27.180        6.475      643.549      126.192        0.038      349.462       29.903      861.294
07/10/2013  16:56:00     -457.869     -358.113      -20.426      232.298      175.642      100.280    53962.508    30849.958    10056.023       21.657        4.743      581.282      107.477        0.034      349.549       30.056      861.299
07/10/2013  16:57:00     -147.162     -150.436       14.321      173.153      154.038       89.390    29981.982    23727.699     7990.625        5.308        3.085      210.446      102.334        0.236      349.781       30.459      861.297
07/10/2013  16:58:00     -221.154     -113.243        4.845      142.548      112.170       73.941    20319.937    12582.209     5467.219        5.006        1.918      248.461       83.570        0.113      349.899       30.661      861.278
07/10/2013  16:59:00     -255.699     -143.929        7.565      145.925      120.662       68.803    21294.033    14559.332     4733.825        6.336        2.029      293.424       70.285        0.057      350.034       30.897      861.287
07/10/2013  17:00:00     -349.715     -269.649       -7.818      243.040      182.662       98.903    59068.580    33365.333     9781.785       14.862        5.111      441.600      105.126        0.057      350.025       30.880      861.335
07/10/2013  17:01:00     -255.469      -94.893       13.148      265.599      167.665       90.196    70542.632    28111.666     8135.252        9.059        5.339      272.524      130.136        0.228      349.830       30.543      861.352
07/10/2013  17:02:00     -300.999      -55.184       -2.116      276.984      145.722       83.927    76720.179    21234.774     7043.792        9.930        5.250      306.016      103.478        0.114      349.935       30.727      861.322
07/10/2013  17:03:00     -327.784      -95.250      -17.016      149.175      147.630       79.198    22253.048    21794.506     6272.381        8.355        2.516      341.343       60.900        0.032      349.802       30.494      861.298
07/10/2013  17:04:00     -534.421     -302.035      -43.592      204.507      147.962       93.217    41823.165    21892.755     8689.451       22.555        3.620      613.866       99.158        0.026      349.664       30.254      861.217
07/10/2013  17:05:00     -361.809     -138.920      -11.065      134.916      114.333       64.344    18202.454    13072.078     4140.133        9.286        1.771      387.562       60.264        0.024      349.926       30.710      861.241
07/10/2013  17:06:00     -481.685     -273.501      -11.103      303.449      226.408      121.728    92081.251    51260.640    14817.741       23.252        7.908      553.916      146.904        0.070      349.834       30.550      861.249
07/10/2013  17:07:00     -476.133     -189.214       -8.970      263.626      195.778      105.746    69498.670    38328.884    11182.187       19.077        5.950      512.352      100.445        0.038      349.767       30.433      861.259
07/10/2013  17:08:00     -433.652     -131.686      -14.014      252.848      219.083      100.201    63932.030    47997.547    10040.283       16.376        6.098      453.206      100.395        0.049      349.796       30.483      861.284
07/10/2013  17:09:00     -259.002     -142.479       -3.903      138.798      134.844       72.034    19264.905    18183.039     5188.847        6.501        2.132      295.604       63.442        0.046      349.889       30.646      861.273
07/10/2013  17:10:00     -339.092     -187.339       -6.738      172.956      150.786       86.960    29913.691    22736.275     7562.023       10.516        3.011      387.401       93.463        0.058      349.961       30.770      861.270
07/10/2013  17:11:00     -436.416     -100.162      -18.853      166.250      213.205       85.153    27639.112    45456.292     7250.979       14.058        4.017      447.762       76.403        0.029      349.862       30.597      861.276
07/10/2013  17:12:00     -334.040     -202.006        2.963      173.510      135.668       78.351    30105.856    18405.876     6138.866       10.351        2.733      390.371       83.940        0.046      349.686       30.291      861.261
07/10/2013  17:13:00     -431.329     -165.173      -21.532      178.383      163.898       87.690    31820.604    26862.712     7689.507       14.007        3.319      461.873       94.105        0.042      349.767       30.433      861.218
07/10/2013  17:14:00     -359.444      -35.025       -9.734      223.821      174.312       86.912    50095.668    30384.814     7553.626       10.926        4.402      361.146      113.160        0.098      349.827       30.539      861.193
07/10/2013  17:15:00     -470.101      -68.691      -43.426      200.999      170.217       98.068    40400.629    28973.847     9617.303       15.328        3.950      475.093       90.725        0.036      349.709       30.332      861.129
07/10/2013  17:16:00     -721.166     -175.900      -18.181      296.609      200.743      121.012    87977.029    40297.676    14643.964       34.711        7.146      742.308      122.460        0.027      349.665       30.256      861.085
07/10/2013  17:17:00     -292.484     -212.490       24.170      230.946      211.255      112.215    53336.192    44628.499    12592.258       12.090        5.528      361.523      124.602        0.119      349.833       30.547      861.216
07/10/2013  17:18:00     -479.366      -50.646       -3.146      203.028      158.320       81.066    41220.221    25065.107     6571.661       15.260        3.643      482.034       78.571        0.027      349.616       30.170      861.189
07/10/2013  17:19:00     -488.657      -45.402      -22.351      185.140      163.750       88.900    34276.832    26814.014     7903.159       15.516        3.450      490.761       93.659        0.036      349.639       30.211      861.205
07/10/2013  17:20:00     -456.057     -167.978       -3.642      218.823      202.650      103.246    47883.646    41067.003    10659.793       16.789        4.981      486.009      116.836        0.058      349.658       30.245      861.225
07/10/2013  17:21:00     -361.441     -235.062      -15.680      198.185      189.460      106.548    39277.163    35895.261    11352.507       13.631        4.326      431.154      110.966        0.066      349.728       30.364      861.177
07/10/2013  17:22:00     -419.504     -276.778      -12.646      238.617      173.745       99.225    56937.880    30187.422     9845.503       17.484        4.849      502.583      109.602        0.048      349.650       30.230      861.220
07/10/2013  17:23:00     -334.919     -223.155        9.162      226.306      174.504      103.871    51214.542    30451.752    10789.270       12.724        4.623      402.453      111.422        0.077      349.533       30.028      861.144
07/10/2013  17:24:00     -250.779     -219.428       26.755      187.103      139.017       96.927    35007.511    19325.860     9394.835        8.773        3.186      333.225      104.845        0.099      349.642       30.215      861.144
07/10/2013  17:25:00     -273.154     -157.914       -2.698      163.778      121.368       66.504    26823.257    14730.207     4422.787        7.276        2.299      315.515       62.067        0.039      349.833       30.548      861.152
07/10/2013  17:26:00     -481.275     -187.062       -9.685      200.081      187.790       92.980    40032.254    35265.139     8645.369       17.531        4.197      516.351       97.157        0.035      349.679       30.281      861.131
07/10/2013  17:27:00     -506.567      -79.736      -27.861      245.170      143.539       89.763    60108.134    20603.337     8057.392       17.624        4.438      512.804      108.096        0.044      349.824       30.532      861.104
07/10/2013  17:28:00     -415.285     -161.812       -9.650      256.914      222.857       95.997    66004.681    49665.130     9215.404       16.179        6.244      445.695      111.306        0.062      349.768       30.435      861.112
07/10/2013  17:29:00     -358.906     -275.246       18.306      289.176      213.049      125.711    83622.783    45389.805    15803.215       17.483        7.241      452.298      152.060        0.113      349.865       30.603      861.114
07/10/2013  17:30:00     -302.717      -98.305       16.827      260.978      192.722       98.106    68109.467    37141.774     9624.723       10.821        5.744      318.279      121.468        0.146      349.877       30.625      861.162
07/10/2013  17:31:00     -264.449     -240.025        7.283      260.464      183.909      105.226    67841.553    33822.560    11072.409       12.014        5.637      357.135      138.163        0.150      349.698       30.313      861.180
07/10/2013  17:32:00     -425.374      -57.314       -9.401      279.268      195.627       99.744    77990.348    38269.937     9948.945       15.524        6.310      429.218      123.354        0.083      349.635       30.204      861.134
07/10/2013  17:33:00     -758.203     -106.406      -33.896      282.373      198.412      105.209    79734.235    39367.396    11068.937       35.873        6.509      765.633      117.583        0.024      349.574       30.098      861.047
07/10/2013  17:34:00     -525.424     -122.647      -36.603      313.530      250.077      120.351    98301.030    62538.338    14484.386       23.385        8.766      539.549      149.841        0.077      349.713       30.339      861.028
07/10/2013  17:35:00     -410.239     -144.682       -9.097      349.046      194.051      120.204   121832.922    37655.899    14448.916       18.159        8.697      435.005      141.956        0.106      349.734       30.375      861.034
07/10/2013  17:36:00     -411.131     -170.827      -21.633      250.323      196.011      121.504    62661.794    38420.295    14763.172       15.724        5.792      445.209      128.786        0.084      349.655       30.238      861.051
07/10/2013  17:37:00     -466.449     -288.349      -22.180      253.222      207.049      112.290    64121.326    42869.153    12608.940       21.038        5.980      548.380      129.663        0.056      349.589       30.124      861.103
07/10/2013  17:38:00     -510.089     -187.763      -36.462      254.125      186.894       97.394    64579.444    34929.411     9485.560       20.286        5.450      543.549      116.121        0.046      349.631       30.196      861.128
07/10/2013  17:39:00     -398.815      -83.686        5.688      259.491      188.837      102.650    67335.475    35659.464    10537.013       13.979        5.677      407.500      123.581        0.092      349.671       30.265      861.114
07/10/2013  17:40:00     -544.103     -127.875      -28.570      314.443      222.642       98.892    98874.254    49569.363     9779.615       23.569        7.911      558.928      118.641        0.045      349.537       30.035      861.127
07/10/2013  17:41:00     -503.100     -181.060        2.056      259.321      180.447       99.872    67247.177    32561.026     9974.437       19.782        5.489      534.689       95.199        0.032      349.497       29.965      861.124
07/10/2013  17:42:00     -437.653     -160.054      -16.975      185.020      258.702       99.205    34232.271    66926.637     9841.539       16.420        5.550      466.001      112.212        0.058      349.452       29.886      861.112
07/10/2013  17:43:00     -348.341     -111.440      -18.320      209.915      141.093       79.592    44064.421    19907.359     6334.822       10.219        3.515      365.733       82.098        0.050      349.574       30.098      861.104
07/10/2013  17:44:00     -433.258     -195.094       -3.145      231.327      210.739      101.171    53512.039    44410.718    10235.565       16.695        5.408      475.157      114.061        0.058      349.541       30.040      861.130
07/10/2013  17:45:00     -397.020     -111.198       -9.826      216.994      169.396       95.924    47086.477    28695.050     9201.351       12.752        4.249      412.299      106.126        0.066      349.553       30.062      861.139
07/10/2013  17:46:00     -437.606     -146.680      -30.766      230.016      118.262       84.242    52907.568    13985.795     7096.780       14.396        3.700      461.535       96.058        0.043      349.560       30.075      861.148
07/10/2013  17:47:00     -464.334     -175.637      -24.163      269.123      198.816      104.012    72427.402    39527.981    10818.416       18.488        6.139      496.442      117.144        0.056      349.494       29.959      861.094
07/10/2013  17:48:00     -456.462     -160.047      -14.689      193.303      149.433       80.003    37365.950    22330.125     6400.414       15.013        3.305      483.707       85.554        0.031      349.595       30.136      861.097
07/10/2013  17:49:00     -308.008     -175.416      -13.192      187.181      220.702       87.547    35036.567    48709.324     7664.438       10.859        4.571      354.457       88.762        0.063      349.584       30.115      861.116
07/10/2013  17:50:00     -366.824      -45.334      -17.944      232.986      156.221       75.438    54282.538    24404.980     5690.888       11.064        4.219      369.615       61.236        0.027      349.688       30.296      861.098
07/10/2013  17:51:00     -423.164      -86.733        2.287      216.909      175.515      103.827    47049.336    30805.370    10779.948       13.760        4.432      431.961      112.381        0.068      349.573       30.097      861.121
07/10/2013  17:52:00     -403.199     -146.448        2.851      186.618      158.443       82.162    34826.323    25104.314     6750.583       12.534        3.334      428.971       91.016        0.045      349.572       30.095      861.125
07/10/2013  17:53:00     -337.175     -112.135      -13.180      151.329      178.617       76.867    22900.517    31904.184     5908.576        9.356        3.036      355.332       72.273        0.041      349.653       30.236      861.160
07/10/2013  17:54:00     -186.949      -87.308        7.442      142.283       95.037       63.942    20244.590     9031.960     4088.639        3.799        1.668      206.331       53.373        0.067      349.870       30.613      861.194
07/10/2013  17:55:00     -164.717     -119.421        6.967      130.347      114.579       60.241    16990.353    13128.370     3628.946        3.759        1.687      203.453       58.352        0.082      349.797       30.486      861.197
07/10/2013  17:56:00     -165.013      -40.602       13.316      126.651       91.855       54.457    16040.592     8437.308     2965.575        2.824        1.372      169.934       64.915        0.146      349.837       30.556      861.193
07/10/2013  17:57:00     -212.257      -99.672       -2.735      194.709      107.627       73.158    37911.479    11583.656     5352.113        5.491        2.742      234.494       90.591        0.149      349.914       30.689      861.227
07/10/2013  17:58:00     -236.551     -102.535       -3.945      206.264      124.362       71.517    42544.925    15465.924     5114.738        6.479        3.156      257.817       93.807        0.132      349.734       30.377      861.226
07/10/2013  17:59:00     -345.608     -182.619       -1.101      193.001      175.623       88.309    37249.267    30843.524     7798.541       11.433        3.795      390.889       98.900        0.064      349.628       30.193      861.228
07/10/2013  18:00:00     -403.883     -123.089       -0.998      183.617      172.403       93.976    33715.184    29722.833     8831.525       12.526        3.613      422.223       93.499        0.049      349.579       30.106      861.228
07/10/2013  18:01:00     -390.166     -220.895       -7.279      206.404      168.084       95.709    42602.654    28252.190     9160.265       14.053        4.001      448.358      114.793        0.066      349.547       30.052      861.211
07/10/2013  18:02:00     -414.950     -187.072      -16.936      210.453      168.778       96.663    44290.521    28486.163     9343.671       14.478        4.106      455.170      108.362        0.057      349.522       30.008      861.225
07/10/2013  18:03:00     -417.511     -198.166       -7.185      215.580      200.082       97.084    46474.856    40032.929     9425.331       15.477        4.797      462.153       98.006        0.045      349.507       29.981      861.180
07/10/2013  18:04:00     -351.426     -126.192       -7.352      283.118      140.247       91.997    80155.992    19669.205     8463.388       12.386        5.414      373.396      121.664        0.106      349.604       30.150      861.187
07/10/2013  18:05:00     -286.466     -213.915       12.633      215.933      159.811       98.259    46627.098    25539.630     9654.815       10.489        4.091      357.522      114.542        0.103      349.578       30.105      861.215
07/10/2013  18:06:00     -372.998     -242.053      -13.647      213.717      169.509       98.459    45675.076    28733.189     9694.132       14.099        4.205      444.654      114.605        0.066      349.482       29.940      861.224
07/10/2013  18:07:00     -269.937     -210.575        5.396      162.712      132.431       72.822    26475.323    17537.972     5303.076        8.327        2.466      342.356       83.663        0.060      349.541       30.043      861.277
07/10/2013  18:08:00     -187.782     -140.371       11.192      129.242       97.631       57.832    16703.440     9531.728     3344.545        4.233        1.479      234.449       62.139        0.070      349.726       30.363      861.310
07/10/2013  18:09:00     -389.452     -291.873      -15.843      188.201      162.836       84.699    35419.661    26515.523     7173.862       15.310        3.455      486.685       92.177        0.036      349.547       30.052      861.307
07/10/2013  18:10:00     -276.378     -148.596       -6.651      158.639      102.853       74.637    25166.230    10578.774     5570.748        6.990        2.066      313.792       74.277        0.056      349.529       30.020      861.331
07/10/2013  18:11:00     -191.651     -188.858       -6.559      132.173      136.289       75.053    17469.728    18574.730     5633.001        5.705        2.084      269.068       77.295        0.083      349.562       30.079      861.304
07/10/2013  18:12:00     -101.801     -202.200      -26.304      189.368      118.872       62.611    35860.260    14130.607     3920.132        5.291        2.696      226.381       48.624        0.046      349.704       30.324      861.351
07/10/2013  18:13:00     -216.107     -171.755       13.463      179.582      131.419       78.161    32249.712    17271.022     6109.098        6.600        2.781      276.048       68.747        0.062      349.691       30.302      861.337
07/10/2013  18:14:00     -267.274     -181.829        7.704      155.953      146.293       79.275    24321.318    21401.646     6284.535        7.827        2.600      323.260       66.597        0.042      349.621       30.179      861.333
07/10/2013  18:15:00     -222.498     -250.135        6.325      222.794      189.324       88.466    49637.347    35843.436     7826.146       10.269        4.665      334.773       94.736        0.080      349.527       30.015      861.303
07/10/2013  18:16:00     -214.210     -195.253        5.294      177.604      166.973       86.651    31543.155    27880.034     7508.438        7.547        3.347      289.845       91.155        0.099      349.570       30.094      861.326
07/10/2013  18:17:00     -212.704     -383.650       -5.166      201.616      185.461      100.633    40648.908    34395.804    10126.983       13.880        4.259      438.668       97.897        0.050      349.505       29.977      861.340
07/10/2013  18:18:00     -290.259     -245.357        2.338      175.313      171.661       71.445    30734.477    29467.605     5104.433       10.487        3.265      380.066       67.627        0.032      349.553       30.061      861.331
07/10/2013  18:19:00      -77.260     -202.512       13.192       97.725      134.402       71.515     9550.182    18063.947     5114.412        3.993        1.636      216.749       56.096        0.067      349.692       30.302      861.362
07/10/2013  18:20:00      -97.120     -156.968      -11.746      135.155      106.445       61.035    18266.841    11330.487     3725.322        3.376        1.666      184.584       50.090        0.074      349.716       30.346      861.350
07/10/2013  18:21:00     -343.916     -178.595      -15.436      204.852      148.218       68.454    41964.318    21968.442     4685.955       10.950        3.431      387.524       91.877        0.056      349.636       30.205      861.364
07/10/2013  18:22:00     -215.830     -151.297       20.361      178.691      130.904       70.465    31930.386    17135.893     4965.271        6.195        2.702      263.578       80.178        0.093      349.598       30.141      861.369
07/10/2013  18:23:00     -260.835     -283.184       18.855      240.311      189.624      116.292    57749.328    35957.396    13523.888       12.789        5.362      385.004      110.273        0.082      349.458       29.896      861.342
07/10/2013  18:24:00     -275.145     -274.921       -3.361      222.415      164.605       82.732    49468.552    27094.689     6844.522       11.734        4.170      388.955       93.648        0.058      349.407       29.809      861.377
07/10/2013  18:25:00     -138.457     -112.005       18.318      126.281      126.027       72.571    15946.889    15882.820     5266.598        3.457        1.855      178.089       79.986        0.202      349.503       29.976      861.391
07/10/2013  18:26:00      -62.986     -217.388        1.950      158.993      132.367       72.112    25278.865    17521.073     5200.076        4.960        2.400      226.329       31.074        0.019      349.366       29.736      861.397
07/10/2013  18:27:00     -138.022     -179.290      -21.187      121.291       96.006       58.921    14711.622     9217.077     3471.714        3.952        1.370      226.263       41.297        0.033      349.388       29.775      861.401
07/10/2013  18:28:00        3.777     -115.451        9.223      107.663      109.803       54.888    11591.251    12056.602     3012.662        2.004        1.333      115.512       46.736        0.164      349.467       29.916      861.376
07/10/2013  18:29:00       19.308     -143.694       16.796      142.696      107.353       79.536    20362.150    11524.772     6326.023        2.975        1.911      144.986       74.246        0.262      349.383       29.768      861.421
07/10/2013  18:30:00      -19.655     -168.366       -9.068      122.257      112.861       82.914    14946.699    12737.575     6874.725        3.168        1.728      169.509       72.559        0.183      349.387       29.774      861.438
07/10/2013  18:31:00     -125.684     -252.486       -0.380      224.391      125.623       85.257    50351.325    15781.053     7268.690        7.646        3.670      282.038       55.787        0.039      349.355       29.719      861.473
07/10/2013  18:32:00     -216.892     -217.263       -5.503      141.158      158.453       68.008    19925.457    25107.445     4625.072        7.196        2.483      306.994       72.892        0.056      349.257       29.549      861.434
07/10/2013  18:33:00     -219.299     -179.613        5.818      214.527      148.433       81.880    46021.814    22032.312     6704.293        7.756        3.738      283.466       60.286        0.045      349.346       29.703      861.408
07/10/2013  18:34:00     -181.157     -143.576       -3.289      183.422      112.007       74.612    33643.556    12545.545     5566.896        5.259        2.588      231.153       54.609        0.056      349.394       29.787      861.435
07/10/2013  18:35:00     -178.403     -114.220       19.924      169.728       94.174       70.193    28807.662     8868.705     4927.121        4.393        2.130      211.834       57.352        0.073      349.364       29.735      861.420
07/10/2013  18:36:00      -75.818     -272.228       28.333      172.853      145.359       57.064    29878.155    21129.286     3256.354        6.745        2.713      282.588       63.878        0.051      349.347       29.705      861.457
07/10/2013  18:37:00        6.012     -108.695       11.204       87.775       78.795       44.660     7704.365     6208.623     1994.535        1.394        0.795      108.861       30.723        0.080      349.369       29.745      861.466
07/10/2013  18:38:00     -159.525     -140.889       -3.152      104.916      148.619       53.055    11007.372    22087.527     2814.800        4.060        1.795      212.833       52.233        0.060      349.526       30.018      861.484
07/10/2013  18:39:00     -339.959     -318.372      -29.320      276.974      176.407       96.975    76714.322    31119.565     9404.188       16.749        5.862      465.761      104.190        0.050      349.283       29.593      861.515
07/10/2013  18:40:00     -190.879     -145.598        3.113      156.165      140.464       75.538    24387.405    19730.232     5706.027        5.372        2.491      240.070       72.546        0.091      349.356       29.721      861.543
07/10/2013  18:41:00      -79.685      -88.008       -1.644      115.147       84.703       56.483    13258.804     7174.540     3190.381        1.886        1.181      118.723       37.960        0.102      349.426       29.843      861.551
07/10/2013  18:42:00      -80.296     -143.934       16.399      101.917      122.656       61.735    10387.174    15044.398     3811.266        2.833        1.462      164.816       59.443        0.130      349.251       29.538      861.526
07/10/2013  18:43:00     -139.769      -80.010       21.307      129.383      100.080       65.705    16739.982    10015.993     4317.168        2.873        1.554      161.050       72.990        0.205      349.298       29.623      861.517
07/10/2013  18:44:00     -104.424      -67.384       -0.266      111.664      118.698       53.370    12468.751    14089.129     2848.363        2.242        1.470      124.278       51.028        0.169      349.294       29.615      861.502
07/10/2013  18:45:00      -45.569      -28.631       17.189       86.668       45.917       39.573     7511.316     2108.359     1566.051        0.719        0.559       53.817       37.721        0.491      349.355       29.722      861.513
07/10/2013  18:46:00      -42.664     -159.856       20.902      187.811      120.938       73.755    35273.099    14626.060     5439.727        4.156        2.767      165.451       84.641        0.262      349.297       29.620      861.536
07/10/2013  18:47:00      -14.491      -42.104       22.741       69.063       83.623       41.212     4769.635     6992.762     1698.458        0.798        0.673       44.528       41.651        0.875      349.239       29.521      861.521
07/10/2013  18:48:00      -60.622     -123.749       10.057      140.032      112.137       75.528    19608.877    12574.791     5704.504        2.848        1.894      137.800       78.554        0.325      349.402       29.802      861.545
07/10/2013  18:49:00      -68.950     -188.531       -4.697      125.357      154.964       64.731    15714.430    24013.956     4190.120        4.211        2.196      200.743       57.700        0.083      349.224       29.493      861.563
07/10/2013  18:50:00      -27.179     -176.932        4.798      102.292      127.554       65.757    10463.618    16270.008     4324.020        3.156        1.553      179.007       62.973        0.124      349.278       29.585      861.527
07/10/2013  18:51:00      -61.703     -113.513       -9.166       74.137       81.919       43.470     5496.333     6710.712     1889.626        1.543        0.705      129.199       47.719        0.136      349.379       29.763      861.552
07/10/2013  18:52:00     -107.269     -102.531        0.158      102.116       79.074       50.917    10427.755     6252.628     2592.529        2.064        0.964      148.389       51.536        0.121      349.429       29.850      861.575
07/10/2013  18:53:00     -145.015     -180.350        9.885      113.076      155.104       58.211    12786.225    24057.142     3388.524        4.693        2.012      231.421       47.292        0.042      349.280       29.589      861.578
07/10/2013  18:54:00     -165.089     -213.109       -3.845      133.491      143.290       66.870    17819.818    20531.991     4471.619        5.775        2.141      269.574       72.578        0.072      349.200       29.451      861.544
07/10/2013  18:55:00     -215.213     -312.915       -8.950      177.533      179.169       76.385    31517.997    32101.410     5834.635       10.687        3.473      379.779       61.873        0.027      349.158       29.378      861.559
07/10/2013  18:56:00     -276.929     -541.419      -15.191      163.492      265.129       89.799    26729.593    70293.316     8063.936       23.755        5.254      608.132       98.779        0.026      349.074       29.231      861.563
07/10/2013  18:57:00     -379.511     -187.023      -11.632      208.801      154.758       93.031    43598.062    23950.094     8654.841       12.766        3.810      423.091      113.854        0.072      349.054       29.197      861.540
07/10/2013  18:58:00     -103.801     -191.391       32.065      142.053      139.070       69.230    20179.019    19340.515     4792.836        4.636        2.216      217.727       67.228        0.095      349.111       29.296      861.543
07/10/2013  18:59:00      -51.438     -122.917        7.650      137.381      146.799       75.031    18873.470    21549.995     5629.670        3.192        2.303      133.246       74.169        0.310      349.061       29.211      861.534
07/10/2013  19:00:00     -133.693     -243.825      -14.553      150.821      180.323       69.586    22746.976    32516.235     4842.259        6.881        3.005      278.073       68.945        0.061      349.110       29.294      861.543
07/10/2013  19:01:00     -199.171     -393.882      -17.573      178.533      213.979       89.659    31874.163    45786.821     8038.658       14.039        4.285      441.375       92.449        0.044      349.025       29.147      861.567
07/10/2013  19:02:00     -177.914     -161.666        9.114      143.141      139.942       78.145    20489.407    19583.644     6106.606        5.202        2.309      240.394       79.897        0.110      349.138       29.343      861.541
07/10/2013  19:03:00      -64.681     -191.753        7.151      110.149      102.822       65.341    12132.868    10572.280     4269.472        3.398        1.349      202.368       53.607        0.070      349.160       29.380      861.542
07/10/2013  19:04:00     -243.477     -253.194      -15.017      156.884      178.164       75.171    24612.742    31742.386     5650.665        9.280        3.100      351.267       81.041        0.053      349.083       29.247      861.561
07/10/2013  19:05:00     -161.204     -214.460        0.625      160.065      139.923       75.445    25620.916    19578.396     5691.896        6.143        2.545      268.290       58.086        0.047      348.982       29.072      861.549
07/10/2013  19:06:00     -182.052     -272.506      -17.983      174.592      195.155       94.780    30482.497    38085.583     8983.222        9.262        3.878      327.724       86.806        0.070      349.022       29.141      861.542
07/10/2013  19:07:00      -49.447     -180.983      -18.579      110.769       77.899       54.308    12269.870     6068.267     2949.372        2.841        1.064      187.617       28.759        0.023      349.016       29.132      861.509
07/10/2013  19:08:00     -162.067     -228.145      -27.032      154.566      152.643       88.110    23890.715    23300.006     7763.322        6.699        2.748      279.850       53.733        0.037      348.996       29.097      861.509
07/10/2013  19:09:00     -205.518     -298.103       -8.553      209.344      157.622       83.775    43824.797    24844.648     7018.236       10.342        3.784      362.081       71.741        0.039      349.024       29.146      861.502
07/10/2013  19:10:00     -221.614     -217.522       19.585      182.312      156.939       84.010    33237.777    24629.843     7057.698        8.086        3.246      310.530       88.616        0.081      349.022       29.142      861.491
07/10/2013  19:11:00     -182.765     -184.670        1.008      142.400      131.525       73.581    20277.789    17298.726     5414.158        5.524        2.150      259.819       64.929        0.062      349.077       29.238      861.511
07/10/2013  19:12:00     -220.886     -237.792       -7.323      160.428      169.449       82.504    25737.183    28712.979     6806.970        8.331        3.063      324.554       81.733        0.063      349.060       29.206      861.504
07/10/2013  19:13:00     -279.293     -304.550      -12.869      191.233      160.307       82.928    36570.127    25698.388     6877.016       12.002        3.457      413.225       38.678        0.009      349.033       29.160      861.511
07/10/2013  19:14:00     -189.470     -242.297       19.657      144.362      165.999       83.394    20840.294    27555.635     6954.484        7.516        2.768      307.582       74.135        0.058      348.982       29.072      861.524
07/10/2013  19:15:00     -381.604     -323.256      -18.351      183.183      131.923       91.171    33555.989    17403.788     8312.185       15.485        2.964      500.116       89.058        0.032      348.922       28.969      861.521
07/10/2013  19:16:00     -228.682     -170.146        1.546      127.463      122.670       61.024    16246.911    15047.957     3723.987        5.813        1.751      285.035       70.223        0.061      348.962       29.039      861.548
07/10/2013  19:17:00     -117.683     -206.587       27.293      137.588      140.232       71.611    18930.340    19664.909     5128.109        5.049        2.186      237.755       77.831        0.107      348.970       29.052      861.551
07/10/2013  19:18:00        0.214      -88.284       13.614       90.947       75.776       60.830     8271.437     5742.066     3700.314        1.284        0.886       88.284       56.263        0.406      349.018       29.137      861.506
07/10/2013  19:19:00     -125.011      -62.251       -1.345       91.727       66.874       45.872     8413.793     4472.139     2104.204        1.724        0.750      139.653       37.653        0.073      349.061       29.210      861.505
07/10/2013  19:20:00     -168.486      -85.635        9.142      117.961       87.972       45.972    13914.800     7739.069     2113.468        2.978        1.188      189.000       42.178        0.050      348.944       29.007      861.510
07/10/2013  19:21:00     -408.322     -304.198       -0.967      225.222      159.245       94.177    50725.069    25358.874     8869.387       17.209        4.248      509.179      102.292        0.040      348.823       28.797      861.475
07/10/2013  19:22:00     -543.302     -335.006       -4.444      187.319      148.943       90.248    35088.575    22184.026     8144.711       23.641        3.271      638.284       93.267        0.021      348.772       28.706      861.445
07/10/2013  19:23:00     -214.408     -226.459       10.146      170.841      135.679       85.755    29186.691    18408.718     7353.898        7.614        2.747      311.857       77.255        0.061      348.868       28.874      861.483
07/10/2013  19:24:00     -236.151     -220.239       -6.528      139.428      103.398       63.910    19440.126    10691.239     4084.535        6.926        1.711      322.912       66.042        0.042      348.911       28.950      861.513
07/10/2013  19:25:00     -226.632     -117.085       17.122      126.718      118.556       79.511    16057.576    14055.628     6321.981        5.089        1.822      255.090       66.934        0.069      348.918       28.960      861.483
07/10/2013  19:26:00     -279.131     -254.171       -0.793      193.351      160.014       88.751    37384.531    25604.471     7876.662       10.668        3.543      377.514       92.089        0.060      348.862       28.863      861.496
07/10/2013  19:27:00     -331.386     -257.672      -12.271      206.940      158.174       92.760    42824.129    25018.864     8604.371       12.639        3.822      419.775       83.228        0.039      348.839       28.824      861.501
07/10/2013  19:28:00     -283.235     -241.585        8.112      185.923      152.445       83.988    34567.499    23239.582     7054.027       10.174        3.243      372.271       98.522        0.070      348.851       28.844      861.515
07/10/2013  19:29:00     -274.840     -290.238      -12.508      143.348      172.791       73.176    20548.568    29856.606     5354.707       10.783        2.788      399.719       75.916        0.036      348.830       28.808      861.510
07/10/2013  19:30:00     -295.990     -126.146       -7.384      164.047      163.427       77.565    26911.362    26708.384     6016.347        8.159        2.982      321.750       78.537        0.060      348.831       28.810      861.512
07/10/2013  19:31:00     -303.998     -157.655        3.833      214.463      164.031       78.460    45994.416    26906.282     6155.978        9.815        3.953      342.446      102.231        0.089      348.830       28.810      861.512
07/10/2013  19:32:00     -372.720     -267.774       -2.554      194.612      183.074       83.726    37873.836    33516.083     7009.992       14.450        3.920      458.937       81.946        0.032      348.801       28.757      861.505
07/10/2013  19:33:00     -302.115     -194.754       -2.534      176.279      127.503       66.749    31074.199    16257.027     4455.478        9.049        2.589      359.447       59.668        0.028      348.805       28.765      861.495
07/10/2013  19:34:00     -203.628     -130.581       22.052      166.822      113.131       69.674    27829.470    12798.676     4854.466        5.223        2.274      241.901       67.668        0.078      348.840       28.826      861.520
07/10/2013  19:35:00     -249.320     -114.500        4.323      147.466      105.470       67.651    21746.206    11123.917     4576.602        5.636        1.872      274.355       81.931        0.089      348.821       28.794      861.529
07/10/2013  19:36:00     -235.411     -243.270        6.059      183.717      127.981       75.734    33751.885    16379.190     5735.605        8.524        2.793      338.524       67.119        0.039      348.790       28.740      861.505
07/10/2013  19:37:00     -184.836     -144.633       -0.424      128.155      131.435       76.098    16423.612    17275.112     5790.957        4.728        1.974      234.698       79.896        0.116      348.837       28.821      861.538
07/10/2013  19:38:00     -243.901     -152.833       13.122      158.456      147.248       81.131    25108.271    21681.916     6582.167        6.818        2.669      287.829       84.540        0.086      348.801       28.761      861.559
07/10/2013  19:39:00     -307.655     -106.326        6.867      209.287      137.857       84.628    43801.194    19004.439     7161.922        8.797        3.498      325.510       89.422        0.075      348.766       28.699      861.554
07/10/2013  19:40:00     -332.994     -160.087       -6.965      234.819      142.259       82.011    55139.981    20237.600     6725.738       10.932        4.105      369.477       96.936        0.069      348.769       28.702      861.547
07/10/2013  19:41:00     -211.041     -123.642       -9.563      102.626      118.294       54.356    10532.106    13993.502     2954.587        4.369        1.374      244.592       40.692        0.028      348.787       28.735      861.595
07/10/2013  19:42:00     -124.697     -103.110       14.856       97.401      100.047       51.945     9486.929    10009.370     2698.321        2.429        1.110      161.805       44.759        0.077      348.838       28.823      861.573
07/10/2013  19:43:00     -153.404     -177.527       -5.179      112.291       95.487       45.726    12609.173     9117.767     2090.905        3.944        1.191      234.625       55.734        0.056      348.813       28.779      861.585
07/10/2013  19:44:00      -81.471     -110.935       -5.483      101.157       85.071       50.337    10232.672     7237.124     2533.832        1.948        1.000      137.638       30.908        0.050      348.796       28.753      861.570
07/10/2013  19:45:00      -90.936      -33.078        2.540       95.589       62.778       46.397     9137.257     3941.058     2152.661        1.230        0.762       96.765       46.833        0.234      348.801       28.759      861.572
07/10/2013  19:46:00     -166.843      -95.552       -1.659      104.666      114.113       53.134    10955.019    13021.678     2823.250        3.188        1.340      192.267       51.829        0.073      348.773       28.712      861.576
07/10/2013  19:47:00     -162.006     -205.036        1.966      106.831      115.521       64.557    11412.901    13345.050     4167.648        4.860        1.446      261.316       54.777        0.044      348.764       28.695      861.572
07/10/2013  19:48:00     -209.296     -166.646       -5.878      113.345      117.877       63.526    12847.087    13894.926     4035.593        5.119        1.539      267.536       61.560        0.053      348.715       28.610      861.568
07/10/2013  19:49:00     -214.291     -164.493       -7.394      119.274      111.805       54.524    14226.265    12500.449     2972.882        5.136        1.485      270.146       50.396        0.035      348.697       28.580      861.566
07/10/2013  19:50:00     -261.211     -118.673        1.876      183.105      146.378       58.360    33527.427    21426.404     3405.842        7.033        2.918      286.905       79.798        0.077      348.671       28.535      861.533
07/10/2013  19:51:00     -198.451      -78.746        6.478      147.711      123.672       63.581    21818.514    15294.776     4042.542        4.338        2.058      213.503       70.176        0.108      348.663       28.521      861.512
07/10/2013  19:52:00     -274.918     -164.331      -10.798      139.958      135.366       66.468    19588.357    18324.030     4417.988        7.251        2.117      320.289       64.002        0.040      348.666       28.526      861.496
07/10/2013  19:53:00     -211.024     -175.268       -3.397      117.617      115.517       55.727    13833.709    13344.201     3105.482        5.277        1.514      274.317       53.912        0.039      348.643       28.486      861.505
07/10/2013  19:54:00     -237.341     -213.661       -3.222      151.770      124.036       71.288    23034.246    15384.841     5081.918        7.274        2.175      319.346       82.371        0.067      348.618       28.443      861.522
07/10/2013  19:55:00     -312.815     -134.064      -10.359      145.771      125.973       66.350    21249.131    15869.252     4402.269        7.872        2.076      340.333       73.554        0.047      348.603       28.415      861.512
07/10/2013  19:56:00     -165.879     -158.376        2.114      118.941       96.648       56.022    14147.073     9340.865     3138.434        3.961        1.331      229.345       54.933        0.057      348.608       28.425      861.531
07/10/2013  19:57:00     -119.071      -59.625       18.712      115.553       91.100       57.449    13352.591     8299.285     3300.434        2.151        1.248      133.166       66.561        0.250      348.559       28.341      861.544
07/10/2013  19:58:00     -154.811      -71.705       -2.132       80.907       56.565       41.383     6545.989     3199.580     1712.525        2.028        0.573      170.611       40.400        0.056      348.607       28.425      861.547
07/10/2013  19:59:00     -107.209      -52.562        0.888       56.160       70.421       28.460     3153.918     4959.134      809.947        1.159        0.446      119.401       21.184        0.031      348.647       28.496      861.546
07/10/2013  20:00:00     -126.814     -104.352        3.543       97.824       93.064       47.268     9569.445     8660.955     2234.230        2.372        1.023      164.229       56.033        0.116      348.589       28.394      861.555
07/10/2013  20:01:00     -150.458     -173.740       -3.419      108.387      103.095       57.161    11747.812    10628.484     3267.436        3.923        1.282      229.833       49.085        0.046      348.589       28.394      861.557
07/10/2013  20:02:00     -316.914     -220.524      -28.007      137.124      109.597       49.191    18802.934    12011.585     2419.799        9.154        1.662      386.090       56.351        0.021      348.599       28.410      861.553
07/10/2013  20:03:00     -285.600     -124.711       -9.842      135.520       89.296       55.282    18365.773     7973.736     3056.057        6.330        1.470      311.641       56.116        0.032      348.568       28.354      861.550
07/10/2013  20:04:00     -186.533      -73.254        7.833      135.153       85.797       57.271    18266.268     7361.067     3280.008        3.456        1.445      200.402       63.445        0.100      348.531       28.292      861.552
07/10/2013  20:05:00     -201.724      -94.584        7.590      103.186      104.018       50.523    10647.419    10819.775     2552.545        3.685        1.201      222.797       56.625        0.065      348.539       28.306      861.565
07/10/2013  20:06:00     -160.544       -5.090       11.368      114.960       85.817       51.140    13215.880     7364.534     2615.327        2.456        1.160      160.625       56.385        0.123      348.509       28.255      861.587
07/10/2013  20:07:00     -191.480      -36.993       -2.400       76.749       67.801       49.659     5890.402     4596.929     2466.053        2.549        0.648      195.021       46.075        0.056      348.518       28.268      861.571
07/10/2013  20:08:00     -220.447     -210.431      -21.332      111.248      108.142       61.520    12376.202    11694.690     3784.680        6.059        1.393      304.759       50.887        0.028      348.504       28.245      861.573
07/10/2013  20:09:00     -226.572     -147.861       -1.922      125.431      120.885       56.997    15732.822    14613.159     3248.665        5.339        1.680      270.551       48.793        0.033      348.467       28.182      861.546
07/10/2013  20:10:00     -181.865      -90.574        7.047      108.618      109.197       51.668    11797.791    11923.890     2669.605        3.385        1.320      203.171       52.845        0.068      348.495       28.230      861.542
07/10/2013  20:11:00     -238.703      -52.768       -6.603      116.548       93.875       60.262    13583.470     8812.502     3631.472        4.291        1.301      244.466       60.343        0.061      348.478       28.199      861.531
07/10/2013  20:12:00     -192.739     -146.951      -13.252      110.358       88.639       59.562    12178.863     7856.835     3547.573        4.125        1.179      242.369       62.171        0.066      348.487       28.215      861.546
07/10/2013  20:13:00     -153.174     -123.289        8.550      107.319      102.347       65.313    11517.346    10474.973     4265.756        3.249        1.313      196.628       65.107        0.110      348.435       28.126      861.539
07/10/2013  20:14:00     -114.484     -149.101       14.847      101.602       92.238       61.254    10323.009     8507.906     3752.035        2.907        1.129      187.984       67.380        0.128      348.455       28.160      861.550
07/10/2013  20:15:00     -204.575     -148.413        7.825      126.226       89.695       60.044    15932.984     8045.204     3605.333        4.576        1.379      252.740       60.239        0.057      348.461       28.171      861.528
07/10/2013  20:16:00     -217.906     -142.755       -1.310      112.075       63.752       41.392    12560.710     4064.367     1713.294        4.310        0.917      260.503       42.334        0.026      348.450       28.152      861.524
07/10/2013  20:17:00     -150.796     -115.582       -9.797       80.265       59.265       41.944     6442.546     3512.356     1759.260        2.395        0.586      189.996       35.755        0.035      348.433       28.123      861.525
07/10/2013  20:18:00     -176.881     -139.259       -7.049       82.184       90.635       54.102     6754.170     8214.777     2926.978        3.431        0.895      225.122       48.631        0.047      348.437       28.129      861.522
07/10/2013  20:19:00     -198.469      -73.993        5.953       90.949       62.849       44.830     8271.768     3950.024     2009.767        2.956        0.712      211.813       47.843        0.051      348.383       28.035      861.519
07/10/2013  20:20:00     -195.486     -100.094        8.640       99.734       64.480       38.079     9946.826     4157.694     1450.035        3.193        0.778      219.622       37.957        0.030      348.404       28.072      861.513
07/10/2013  20:21:00     -137.240     -142.544       -4.070       88.793       67.300       43.927     7884.167     4529.296     1929.541        2.675        0.717      197.873       42.851        0.047      348.373       28.018      861.523
07/10/2013  20:22:00     -114.751     -124.107        5.771       71.565       82.175       40.309     5121.524     6752.752     1624.795        2.105        0.675      169.027       41.335        0.060      348.381       28.031      861.517
07/10/2013  20:23:00     -211.727     -157.596       -3.281       72.401       60.050       36.089     5241.942     3605.947     1302.442        3.991        0.508      263.941       32.125        0.015      348.352       27.979      861.520
07/10/2013  20:24:00     -183.215     -105.935       -3.111       88.996       69.106       43.128     7920.228     4775.603     1859.993        2.967        0.728      211.637       44.887        0.045      348.370       28.013      861.524
07/10/2013  20:25:00     -124.116      -78.168        5.509       71.835       55.174       39.813     5160.334     3044.209     1585.097        1.567        0.489      146.680       31.135        0.045      348.323       27.935      861.511
07/10/2013  20:26:00     -112.628      -55.503        8.648       62.412       47.589       29.480     3895.212     2264.716      869.079        1.143        0.351      125.561       27.306        0.047      348.297       27.890      861.505
07/10/2013  20:27:00      -69.244      -93.972        3.731       56.942       50.981       31.588     3242.344     2599.086      997.777        1.024        0.342      116.729       29.205        0.063      348.285       27.869      861.498
07/10/2013  20:28:00      -79.561      -72.655        4.453       74.292       36.761       29.058     5519.294     1351.357      844.345        0.967        0.386      107.744       31.401        0.085      348.258       27.823      861.484
07/10/2013  20:29:00     -136.072     -103.413        0.744       73.014       37.695       29.608     5331.010     1420.940      876.649        1.842        0.381      170.909       33.543        0.039      348.289       27.873      861.483
07/10/2013  20:30:00      -63.535      -94.873        6.662       59.817       49.366       26.750     3578.079     2436.970      715.586        0.990        0.337      114.182       23.338        0.042      348.193       27.709      861.474
07/10/2013  20:31:00      -76.248      -75.224       -6.512       49.161       59.452       30.599     2416.822     3534.592      936.276        0.920        0.344      107.109       22.016        0.042      348.265       27.833      861.465
07/10/2013  20:32:00     -132.557      -95.971      -12.101       47.552       37.911       29.063     2261.193     1437.273      844.660        1.573        0.227      163.651       26.912        0.027      348.207       27.734      861.464
07/10/2013  20:33:00     -102.457      -52.411       -0.004       41.628       42.769       25.014     1732.915     1829.174      625.723        0.872        0.209      115.084       21.357        0.034      348.177       27.682      861.454
07/10/2013  20:34:00     -130.895      -66.087       -7.210       36.815       35.800       23.031     1355.365     1281.626      530.411        1.236        0.158      146.632       18.705        0.016      348.220       27.757      861.446
07/10/2013  20:35:00      -68.895      -71.611        5.065       47.355       48.536       28.489     2242.534     2355.747      811.617        0.765        0.270       99.371       29.369        0.087      348.175       27.679      861.439
07/10/2013  20:36:00      -77.238      -62.686       -1.237       61.554       56.959       31.099     3788.928     3244.281      967.166        0.895        0.400       99.474       33.194        0.111      348.145       27.626      861.441
07/10/2013  20:37:00      -91.543      -13.224        7.073       55.492       40.365       26.576     3079.308     1629.347      706.298        0.701        0.271       92.494       30.668        0.110      348.028       27.424      861.443
07/10/2013  20:38:00      -74.392      -20.870       -6.466       40.087       27.298       19.018     1606.933      745.195      361.666        0.436        0.136       77.264       15.530        0.040      348.113       27.572      861.440
07/10/2013  20:39:00      -96.037      -41.569       -2.915       31.324       35.548       21.103      981.220     1263.634      445.345        0.682        0.135      104.647       12.686        0.015      348.130       27.600      861.443
07/10/2013  20:40:00      -54.828      -20.509        8.971       49.137       45.262       24.230     2414.468     2048.678      587.111        0.428        0.253       58.538       18.791        0.103      347.985       27.353      861.455
07/10/2013  20:41:00      -75.389      -21.483        3.716       35.591       36.509       22.493     1266.753     1332.906      505.950        0.463        0.155       78.391       21.334        0.074      348.067       27.494      861.465
07/10/2013  20:42:00      -97.347       -7.357       -3.459       33.480       39.055       24.602     1120.890     1525.273      605.249        0.640        0.163       97.625       15.043        0.024      348.056       27.473      861.481
07/10/2013  20:43:00      -90.162      -33.576       -3.056       30.583       45.336       21.076      935.326     2055.329      444.191        0.635        0.172       96.211       15.571        0.026      347.989       27.358      861.495
07/10/2013  20:44:00      -77.624      -32.849       -0.890       43.353       21.323       17.468     1879.460      454.691      305.142        0.487        0.132       84.288       17.834        0.045      347.955       27.300      861.498
07/10/2013  20:45:00      -68.728      -38.194       -2.650       28.384       26.000       15.337      805.668      675.989      235.234        0.395        0.086       78.628        8.595        0.012      348.003       27.383      861.509
07/10/2013  20:46:00      -46.161      -49.608        5.896       38.943       42.422       22.733     1516.566     1799.656      516.779        0.423        0.192       67.763       17.680        0.068      347.680       26.826      861.513
07/10/2013  20:47:00      -75.742      -23.743        2.105       25.128       25.994       18.371      631.396      675.710      337.512        0.397        0.082       79.376       16.348        0.042      347.988       27.356      861.516
07/10/2013  20:48:00      -60.423      -25.400        6.563       47.070       31.266       19.789     2215.581      977.532      391.587        0.396        0.179       65.545       22.032        0.113      347.632       26.742      861.532
07/10/2013  20:49:00      -93.744      -36.594        5.279       47.677       35.896       25.660     2273.093     1288.535      658.430        0.719        0.211      100.633       26.395        0.069      347.864       27.141      861.537
07/10/2013  20:50:00     -106.144      -47.902       -3.809       39.565       45.966       17.757     1565.375     2112.890      315.302        0.878        0.200      116.453       19.268        0.027      347.932       27.260      861.534
07/10/2013  20:51:00     -104.529      -28.031        2.176       42.504       39.549       25.989     1806.604     1564.091      675.430        0.788        0.202      108.222       22.297        0.042      347.902       27.207      861.532
07/10/2013  20:52:00      -99.505      -29.309        8.768       55.791       54.035       26.791     3112.656     2919.791      717.770        0.879        0.338      103.732       27.717        0.071      347.841       27.104      861.533
07/10/2013  20:53:00     -101.527      -60.522        3.429       47.496       40.159       24.179     2255.910     1612.749      584.627        0.922        0.223      118.197       23.426        0.039      347.951       27.294      861.540
07/10/2013  20:54:00     -108.391      -34.188        1.788       52.139       52.169       28.011     2718.490     2721.616      784.634        0.957        0.311      113.655       26.238        0.053      347.994       27.365      861.544
07/10/2013  20:55:00      -90.632      -13.231        4.573       60.345       45.579       27.981     3641.539     2077.442      782.935        0.745        0.325       91.593       26.843        0.086      347.867       27.148      861.550
07/10/2013  20:56:00     -146.900      -54.689        3.299       56.587       67.843       27.687     3202.053     4602.693      766.579        1.657        0.429      156.750       29.133        0.035      347.980       27.341      861.567
07/10/2013  20:57:00     -133.023      -26.607       -2.151       54.432       41.539       26.369     2962.802     1725.455      695.310        1.189        0.269      135.658       24.718        0.033      347.956       27.300      861.580
07/10/2013  20:58:00     -172.163      -44.663       -5.926       59.774       39.287       28.550     3572.933     1543.486      815.087        1.880        0.297      177.862       26.272        0.022      347.944       27.276      861.587
07/10/2013  20:59:00     -163.016      -52.058       -6.376       35.354       39.079       20.255     1249.919     1527.187      410.266        1.626        0.159      171.126       16.047        0.009      347.927       27.250      861.594
07/10/2013  21:00:00     -155.444      -62.885       -0.717       63.079       57.246       28.581     3978.943     3277.086      816.847        1.809        0.404      167.682       28.041        0.028      347.898       27.199      861.590
07/10/2013  21:01:00     -175.015      -59.899       -4.821       64.675       50.080       24.513     4182.825     2507.961      600.883        2.077        0.365      184.982       30.208        0.027      347.949       27.287      861.594
07/10/2013  21:02:00     -112.474      -60.887        1.808       69.245       58.557       34.608     4794.888     3428.892     1197.746        1.289        0.471      127.897       38.326        0.090      347.895       27.196      861.587
07/10/2013  21:03:00     -168.770      -87.440       -0.878       63.535       48.121       36.061     4036.663     2315.642     1300.430        2.189        0.383      190.076       30.540        0.026      347.968       27.318      861.587
07/10/2013  21:04:00     -175.385      -76.042       -8.554       39.188       48.630       26.040     1535.711     2364.841      678.079        2.060        0.229      191.160       22.515        0.014      347.970       27.322      861.595
07/10/2013  21:05:00     -216.434      -48.137       -5.667       70.015       54.621       34.033     4902.153     2983.504     1158.239        2.912        0.452      221.722       32.800        0.022      347.958       27.303      861.599
07/10/2013  21:06:00     -194.748      -72.399       -1.970       52.061       69.341       32.619     2710.351     4808.193     1063.971        2.588        0.429      207.770       25.782        0.015      347.913       27.224      861.615
07/10/2013  21:07:00     -174.809      -86.360       -5.452       45.610       42.350       26.205     2080.244     1793.523      686.693        2.130        0.228      194.978       18.385        0.009      347.861       27.136      861.616
07/10/2013  21:08:00     -210.816      -78.379       -1.360       65.686       56.991       35.404     4314.631     3248.006     1253.467        2.970        0.441      224.915       36.516        0.026      347.838       27.094      861.625
07/10/2013  21:09:00     -218.945      -94.569       -2.206       66.143       60.781       39.519     4374.898     3694.303     1561.733        3.326        0.482      238.496       40.936        0.029      347.857       27.126      861.630
07/10/2013  21:10:00     -151.093      -36.450        7.356       70.308       59.671       36.394     4943.169     3560.682     1324.541        1.702        0.491      155.428       37.603        0.059      347.801       27.033      861.646
07/10/2013  21:11:00      -98.495      -45.941        2.665       62.121       36.461       25.871     3859.004     1329.417      669.300        0.884        0.293      108.682       27.959        0.066      347.804       27.040      861.649
07/10/2013  21:12:00     -114.328      -54.130        2.955       60.482       67.628       31.549     3658.022     4573.572      995.348        1.262        0.461      126.495       32.381        0.066      347.754       26.951      861.675
07/10/2013  21:13:00     -107.506      -56.489        2.480       53.033       44.188       22.997     2812.532     1952.610      528.881        1.002        0.265      121.444       22.877        0.035      347.741       26.930      861.679
07/10/2013  21:14:00     -130.677      -18.028        8.629       55.441       41.088       23.962     3073.649     1688.222      574.166        1.140        0.267      131.915       25.115        0.036      347.695       26.850      861.702
07/10/2013  21:15:00     -149.521      -61.108       -3.490       51.832       42.840       25.228     2686.575     1835.254      636.442        1.563        0.258      161.527       26.243        0.026      347.654       26.778      861.704
07/10/2013  21:16:00     -162.309      -67.859      -11.049       36.281       50.545       27.544     1316.346     2554.771      758.696        1.785        0.231      175.923       16.353        0.009      347.634       26.744      861.706
07/10/2013  21:17:00     -121.097      -28.751        3.380       72.676       40.922       26.648     5281.782     1674.617      710.123        1.158        0.383      124.464       32.294        0.067      347.543       26.587      861.696
07/10/2013  21:18:00     -129.428      -47.029        1.401       62.661       55.027       30.257     3926.421     3027.977      915.457        1.342        0.393      137.707       32.042        0.054      347.499       26.513      861.690
07/10/2013  21:19:00     -134.042      -48.490       -1.135       70.534       38.326       28.961     4975.110     1468.879      838.749        1.380        0.364      142.543       30.629        0.046      347.436       26.403      861.696
07/10/2013  21:20:00     -159.055      -55.882        0.659       63.043       44.374       26.737     3974.361     1969.037      714.850        1.754        0.333      168.586       29.471        0.031      347.433       26.397      861.697
07/10/2013  21:21:00     -208.769      -40.202      -11.120       62.939       43.584       28.375     3961.280     1899.569      805.167        2.599        0.333      212.604       24.097        0.013      347.474       26.466      861.713
07/10/2013  21:22:00     -182.622      -72.855       -9.551       44.602       49.793       25.484     1989.322     2479.363      649.458        2.193        0.256      196.618       26.556        0.018      347.463       26.449      861.706
07/10/2013  21:23:00     -143.858      -29.178       -0.534       49.868       51.235       27.476     2486.861     2625.073      754.911        1.371        0.293      146.787       23.625        0.026      347.471       26.465      861.705
07/10/2013  21:24:00     -157.842      -52.218       -0.614       62.540       50.114       28.028     3911.235     2511.436      785.573        1.742        0.360      166.255       26.214        0.025      347.455       26.434      861.709
07/10/2013  21:25:00     -155.080      -64.727        2.811       63.547       65.538       34.950     4038.261     4295.280     1221.499        1.890        0.478      168.046       36.023        0.046      347.507       26.525      861.719
07/10/2013  21:26:00     -122.347      -96.290        2.871       75.791       74.603       39.657     5744.302     5565.675     1572.646        1.856        0.644      155.694       36.566        0.055      347.515       26.537      861.734
07/10/2013  21:27:00     -183.075      -85.264      -13.077       52.894       36.429       31.158     2797.811     1327.044      970.796        2.303        0.255      201.956       30.841        0.023      347.498       26.509      861.744
07/10/2013  21:28:00     -145.063      -59.670        1.051       66.040       36.601       29.462     4361.247     1339.606      868.036        1.559        0.328      156.856       31.543        0.040      347.435       26.401      861.742
07/10/2013  21:29:00     -171.209      -52.243       -5.863       50.730       46.656       30.061     2573.504     2176.791      903.634        1.886        0.283      179.003       22.572        0.016      347.392       26.326      861.766
07/10/2013  21:30:00     -144.428      -68.496       -6.429       39.454       42.131       24.897     1556.586     1774.999      619.885        1.477        0.198      159.847       19.850        0.015      347.375       26.297      861.783
07/10/2013  21:31:00     -117.060      -50.981       -4.733       81.578       44.851       22.449     6654.986     2011.617      503.978        1.275        0.459      127.680       20.612        0.026      347.377       26.301      861.796
07/10/2013  21:32:00     -119.524      -83.136       -5.571       51.173       36.881       28.424     2618.634     1360.225      807.948        1.301        0.239      145.594       25.266        0.030      347.345       26.247      861.818
07/10/2013  21:33:00      -70.123      -36.913        5.634       42.957       32.685       24.544     1845.312     1068.309      602.387        0.491        0.176       79.245       25.387        0.103      347.338       26.236      861.824
07/10/2013  21:34:00      -69.997      -21.131        6.750       42.418       33.584       21.368     1799.326     1127.909      456.609        0.439        0.169       73.117       22.092        0.091      347.336       26.232      861.827
07/10/2013  21:35:00      -55.285      -49.378        6.544       51.742       48.246       24.089     2677.253     2327.703      580.295        0.556        0.279       74.125       23.611        0.101      347.354       26.260      861.851
07/10/2013  21:36:00      -77.652      -60.696       -2.844       42.720       34.047       24.971     1825.024     1159.220      623.547        0.666        0.180       98.559       18.212        0.034      347.371       26.292      861.866
07/10/2013  21:37:00      -28.270      -62.496        6.669       31.232       33.354       22.272      975.425     1112.496      496.038        0.367        0.129       68.593       19.413        0.080      347.379       26.304      861.868
07/10/2013  21:38:00      -36.346     -108.179       -8.166       29.885       36.662       23.017      893.107     1344.121      529.781        0.793        0.138      114.122       24.953        0.048      347.387       26.319      861.891
07/10/2013  21:39:00      -46.031     -108.792        5.955       40.391       32.318       26.800     1631.460     1044.421      718.233        0.869        0.170      118.130       29.444        0.062      347.367       26.283      861.896
07/10/2013  21:40:00      -30.684      -96.549        2.721       36.350       35.860       17.495     1321.326     1285.969      306.075        0.659        0.146      101.307       14.776        0.021      347.377       26.300      861.895
07/10/2013  21:41:00      -23.555     -107.868       -7.605       36.743       41.150       21.255     1350.081     1693.342      451.779        0.787        0.175      110.410       18.616        0.028      347.314       26.195      861.887
07/10/2013  21:42:00      -68.675      -56.294        1.494       47.048       33.801       17.281     2213.469     1142.541      298.647        0.577        0.183       88.799       16.065        0.033      347.312       26.188      861.881
07/10/2013  21:43:00     -127.193      -81.033       -1.333       62.648       36.503       21.886     3924.733     1332.499      479.010        1.424        0.287      150.813       18.244        0.015      347.312       26.189      861.858
07/10/2013  21:44:00     -135.572     -106.008       -2.212       46.651       46.410       29.377     2176.336     2153.853      862.992        1.741        0.260      172.097       29.703        0.030      347.337       26.233      861.847
07/10/2013  21:45:00     -167.963      -69.441       -8.028       44.275       32.586       23.963     1960.284     1061.832      574.231        1.835        0.180      181.752       18.137        0.010      347.330       26.218      861.834
07/10/2013  21:46:00     -184.956      -64.802       -5.836       51.795       43.714       26.641     2682.769     1910.916      709.727        2.187        0.265      195.980       18.890        0.009      347.316       26.196      861.821
07/10/2013  21:47:00     -154.282      -72.637       -3.537       55.781       41.157       30.813     3111.500     1693.906      949.423        1.742        0.288      170.526       29.731        0.030      347.247       26.076      861.815
07/10/2013  21:48:00     -133.576      -68.942        1.155       72.150       42.554       30.847     5205.659     1810.883      951.518        1.528        0.398      150.318       31.459        0.044      347.293       26.156      861.834
07/10/2013  21:49:00      -97.159      -84.291        8.744       61.838       48.536       36.521     3823.881     2355.784     1333.810        1.207        0.376      128.627       36.010        0.078      347.310       26.185      861.853
07/10/2013  21:50:00     -124.896      -82.795        0.658       49.706       36.064       29.541     2470.642     1300.625      872.645        1.355        0.232      149.846       22.749        0.023      347.329       26.219      861.847
07/10/2013  21:51:00     -154.016      -89.816        0.171       80.750       44.899       28.303     6520.616     2015.956      801.064        2.056        0.467      178.292       33.809        0.036      347.360       26.270      861.830
07/10/2013  21:52:00     -119.369      -68.603       -3.999       48.263       52.261       25.395     2329.326     2731.229      644.905        1.234        0.285      137.679       21.951        0.025      347.377       26.302      861.807
07/10/2013  21:53:00     -141.066      -70.033       -3.272       49.614       36.230       25.166     2461.587     1312.580      633.319        1.461        0.220      157.494       21.656        0.019      347.344       26.244      861.782
07/10/2013  21:54:00     -107.830      -18.356       -0.669       45.789       33.242       22.681     2096.652     1105.004      514.427        0.784        0.186      109.381       26.157        0.057      347.289       26.151      861.765
07/10/2013  21:55:00     -105.358      -43.919        4.389       59.089       36.417       24.344     3491.482     1326.225      592.651        0.923        0.271      114.146       27.346        0.057      347.270       26.117      861.742
07/10/2013  21:56:00     -175.816      -42.899        1.160       72.162       59.270       37.931     5207.420     3512.988     1438.756        2.145        0.508      180.974       31.066        0.029      347.237       26.057      861.739
07/10/2013  21:57:00     -170.118      -44.922        6.040       71.390       59.398       34.473     5096.548     3528.088     1188.370        2.040        0.491      175.950       38.613        0.048      347.158       25.924      861.728
07/10/2013  21:58:00     -188.593      -92.081        2.816       79.816       46.350       35.810     6370.552     2148.300     1282.358        2.693        0.490      209.872       37.972        0.033      347.161       25.926      861.716
07/10/2013  21:59:00     -189.475      -54.488        3.639       62.161       57.368       31.027     3863.953     3291.033      962.704        2.350        0.406      197.154       33.592        0.029      347.136       25.885      861.706
07/10/2013  22:00:00     -157.593      -69.033       -0.081       72.826       48.592       28.201     5303.596     2361.194      795.277        1.903        0.423      172.050       33.962        0.039      347.103       25.829      861.701
07/10/2013  22:01:00     -157.981      -54.563       -2.851       58.714       50.266       30.845     3447.364     2526.665      951.384        1.743        0.346      167.138       31.674        0.036      347.128       25.871      861.687
07/10/2013  22:02:00     -120.466      -66.478        7.343       64.558       62.466       39.499     4167.799     3902.037     1560.195        1.431        0.482      137.592       37.957        0.076      347.106       25.835      861.688
07/10/2013  22:03:00     -136.019      -33.359       -6.378       48.149       39.314       21.367     2318.301     1545.603      456.569        1.199        0.216      140.050       17.937        0.016      347.129       25.876      861.704
07/10/2013  22:04:00      -98.918      -73.810       -4.518       33.585       53.194       26.446     1127.970     2829.597      699.376        0.995        0.233      123.421       22.819        0.034      347.181       25.964      861.706
07/10/2013  22:05:00      -90.376      -37.830       -7.083       64.554       38.978       24.533     4167.281     1519.271      601.854        0.797        0.314       97.974       33.464        0.117      347.167       25.941      861.707
07/10/2013  22:06:00     -177.299      -35.060       -1.978       53.978       44.504       30.068     2913.573     1980.646      904.066        1.923        0.290      180.733       25.697        0.020      347.165       25.936      861.704
07/10/2013  22:07:00     -124.638      -15.839        2.287       68.301       59.636       40.946     4665.055     3556.459     1676.540        1.284        0.495      125.641       39.571        0.099      347.169       25.943      861.708
07/10/2013  22:08:00     -125.291      -47.878       -6.078       56.232       37.796       26.265     3162.089     1428.519      689.868        1.165        0.264      134.128       26.417        0.039      347.184       25.968      861.706
07/10/2013  22:09:00     -165.783      -29.440       -9.428       71.641       54.283       31.390     5132.421     2946.646      985.315        1.875        0.453      168.377       27.940        0.028      347.209       26.011      861.692
07/10/2013  22:10:00     -140.597      -24.404       -0.880       61.908       37.890       30.620     3832.583     1435.632      937.603        1.328        0.310      142.699       29.592        0.043      347.161       25.928      861.686
07/10/2013  22:11:00     -163.146      -48.434       -2.323       73.695       52.058       36.939     5431.018     2710.006     1364.495        1.923        0.475      170.184       34.152        0.040      347.180       25.961      861.679
07/10/2013  22:12:00     -119.211      -70.335        1.137       73.270       90.050       40.567     5368.500     8108.987     1645.671        1.714        0.756      138.413       42.081        0.092      347.237       26.060      861.660
07/10/2013  22:13:00     -166.148      -78.279        0.084       80.413       46.075       34.372     6466.201     2122.887     1181.441        2.175        0.489      183.664       30.211        0.027      347.219       26.027      861.682
07/10/2013  22:14:00     -150.965      -32.019       -0.855       59.413       45.169       34.129     3529.849     2040.278     1164.807        1.527        0.337      154.324       34.307        0.049      347.188       25.975      861.679
07/10/2013  22:15:00     -145.123      -67.623        4.296       69.700       76.152       36.167     4858.125     5799.197     1308.064        1.881        0.598      160.105       27.528        0.030      347.248       26.078      861.649
07/10/2013  22:16:00     -199.868     -100.144      -12.628       75.396       81.394       34.766     5684.485     6625.020     1208.696        3.182        0.676      223.553       27.556        0.015      347.272       26.116      861.638
07/10/2013  22:17:00     -209.833      -40.989       -5.406       98.844       73.862       44.880     9770.053     5455.659     2014.241        3.149        0.862      213.799       52.369        0.060      347.230       26.046      861.643
07/10/2013  22:18:00     -192.998      -41.885       -1.348       99.255       68.483       44.307     9851.616     4689.922     1963.087        2.775        0.825      197.491       45.925        0.054      347.242       26.067      861.658
07/10/2013  22:19:00     -134.496      -48.695       -1.863       93.831       73.824       30.199     8804.329     5449.921      912.003        1.781        0.758      143.040       26.968        0.036      347.213       26.018      861.655
07/10/2013  22:20:00     -173.332      -18.256       -6.628       69.387       71.836       37.534     4814.551     5160.361     1408.820        2.090        0.569      174.291       30.601        0.031      347.229       26.044      861.654
07/10/2013  22:21:00     -230.984      -59.491       -0.663      100.621       79.922       48.831    10124.651     6387.577     2384.512        3.789        0.945      238.522       47.145        0.039      347.299       26.165      861.657
07/10/2013  22:22:00     -230.558      -22.917       -9.216       84.930       67.300       49.580     7213.050     4529.274     2458.137        3.398        0.710      231.695       41.406        0.032      347.273       26.119      861.681
07/10/2013  22:23:00     -227.448      -40.207        0.451      110.430       92.984       54.798    12194.755     8645.942     3002.786        3.859        1.192      230.975       55.608        0.058      347.307       26.179      861.695
07/10/2013  22:24:00     -264.296      -41.638      -10.925       74.270       55.287       43.916     5516.088     3056.598     1928.653        4.110        0.525      267.556       43.187        0.026      347.327       26.212      861.711
07/10/2013  22:25:00     -137.108      -59.536        4.656       81.138       70.349       44.763     6583.425     4948.918     2003.731        1.795        0.677      149.476       47.926        0.103      347.301       26.170      861.723
07/10/2013  22:26:00     -218.762      -15.996        0.283       92.341       60.676       48.768     8526.867     3681.634     2378.315        3.135        0.729      219.346       48.543        0.049      347.282       26.135      861.710
07/10/2013  22:27:00     -114.047      -20.971        1.111       83.611       58.520       34.922     6990.874     3424.581     1219.569        1.254        0.582      115.959       35.384        0.093      347.298       26.164      861.705
07/10/2013  22:28:00     -185.054      -56.778      -12.974       97.507       70.237       48.012     9507.709     4933.194     2305.171        2.719        0.837      193.569       42.356        0.048      347.313       26.191      861.699
07/10/2013  22:29:00     -146.144      -51.374       -0.590       93.874       65.986       41.006     8812.244     4354.149     1681.493        1.942        0.742      154.911       44.690        0.083      347.252       26.084      861.698
07/10/2013  22:30:00     -181.858      -57.170       -2.378       82.298       79.728       47.147     6772.924     6356.595     2222.812        2.585        0.768      190.633       46.481        0.059      347.245       26.071      861.675
07/10/2013  22:31:00     -210.118      -24.367      -14.554      103.914       68.294       41.799    10798.124     4664.068     1747.118        3.108        0.860      211.526       46.978        0.049      347.266       26.106      861.663
07/10/2013  22:32:00     -213.347      -55.933      -16.448       77.620       65.300       33.085     6024.882     4264.037     1094.640        3.015        0.569      220.557       24.451        0.012      347.322       26.204      861.650
07/10/2013  22:33:00     -124.552      -51.226        3.245       85.520       48.253       34.549     7313.754     2328.315     1193.610        1.449        0.542      134.675       41.461        0.095      347.202       26.000      861.654
07/10/2013  22:34:00      -54.265      -33.375       12.069       51.807       45.086       30.276     2683.978     2032.770      916.647        0.492        0.282       63.707       20.893        0.108      347.221       26.033      861.658
07/10/2013  22:35:00     -176.883      -56.846       -3.443       62.715       49.261       31.481     3933.125     2426.607      991.063        2.094        0.368      185.794       29.837        0.026      347.309       26.181      861.671
07/10/2013  22:36:00      -82.731       -4.866        6.030       57.466       60.920       23.904     3302.297     3711.225      571.411        0.724        0.379       82.874       14.801        0.032      347.284       26.141      861.664
07/10/2013  22:37:00        4.964       -5.992       13.711       29.856       41.610       21.256      891.374     1731.361      451.801        0.166        0.154        7.781       23.336        8.993      347.216       26.023      861.663
07/10/2013  22:38:00     -126.429        9.501       -2.913       69.745       67.552       38.978     4864.411     4563.253     1519.295        1.351        0.547      126.785       30.875        0.059      347.351       26.254      861.672
07/10/2013  22:39:00        7.576      -52.144       27.773       49.724       57.182       34.283     2472.456     3269.769     1175.339        0.523        0.346       52.692       33.833        0.412      347.339       26.236      861.691
07/10/2013  22:40:00       28.516      -34.646       12.577       30.339       36.675       30.153      920.475     1345.080      909.231        0.267        0.159       44.872       26.285        0.343      347.321       26.204      861.712
07/10/2013  22:41:00       37.994      -40.861       15.617       40.691       72.028       47.818     1655.782     5187.987     2286.569        0.624        0.457       55.796       44.311        0.631      347.278       26.132      861.736
07/10/2013  22:42:00       -9.579       94.539      117.940       36.434       50.652       29.699     1327.445     2565.584      882.042        1.386        0.239       95.023       26.330        0.077      347.267       26.112      861.743
07/10/2013  22:43:00       14.736       24.191       71.133       43.940       73.012       46.859     1930.721     5330.809     2195.761        0.766        0.473       28.325       52.571        3.445      347.251       26.086      861.757
07/10/2013  22:44:00       53.359      -32.145       25.396       60.536       46.121       37.197     3664.665     2127.140     1383.628        0.585        0.359       62.294       36.950        0.352      347.275       26.126      861.771
07/10/2013  22:45:00       71.465      -49.593       28.178       60.987      111.630       55.667     3719.431    12461.333     3098.771        1.382        0.964       86.987       69.000        0.629      347.302       26.171      861.768
07/10/2013  22:46:00       60.487      -59.217        2.120       46.685       43.286       38.766     2179.503     1873.658     1502.839        0.636        0.278       84.648       29.479        0.121      347.278       26.132      861.772
07/10/2013  22:47:00       26.263      -37.413        9.790       29.076       65.807       37.852      845.397     4330.524     1432.737        0.440        0.330       45.710       41.017        0.805      347.197       25.991      861.781
07/10/2013  22:48:00       42.627      -97.940       -4.041       28.431       30.425       26.075      808.347      925.653      679.893        0.692        0.121      106.814       18.867        0.031      347.158       25.927      861.769
07/10/2013  22:49:00        1.575      -47.897        8.516       53.323       50.307       25.502     2843.304     2530.829      650.374        0.420        0.301       47.923       24.647        0.265      347.115       25.851      861.763
07/10/2013  22:50:00     -100.706      -60.529       -8.110       43.712       43.261       29.797     1910.768     1871.501      887.867        0.927        0.234      117.496       26.178        0.050      347.012       25.672      861.768
07/10/2013  22:51:00      -45.195        7.316       29.282       62.237       42.610       24.983     3873.453     1815.575      624.170        0.463        0.316       45.783       25.256        0.304      346.973       25.605      861.768
07/10/2013  22:52:00        6.820      -36.774        4.241       38.434       28.905       20.950     1477.196      835.509      438.911        0.208        0.138       37.401       21.823        0.340      347.035       25.712      861.756
07/10/2013  22:53:00     -102.473      -85.689       -0.878       78.258       52.880       37.514     6124.288     2796.250     1407.278        1.408        0.516      133.579       18.916        0.020      347.012       25.671      861.761
07/10/2013  22:54:00     -212.496     -122.631       -7.761       97.184       72.688       43.341     9444.669     5283.579     1878.412        3.843        0.830      245.342       43.565        0.032      347.210       26.012      861.739
07/10/2013  22:55:00     -211.737     -141.086       -1.839       70.610       64.168       42.831     4985.837     4117.488     1834.485        3.784        0.547      254.437       33.536        0.017      347.275       26.122      861.699
07/10/2013  22:56:00     -233.404     -102.132       -0.275      112.137       68.214       46.593    12574.770     4653.187     2170.894        4.215        0.970      254.771       47.957        0.035      347.449       26.424      861.651
07/10/2013  22:57:00     -121.261      -85.766       -0.817       93.656       83.870       43.795     8771.496     7034.135     1918.011        1.989        0.886      148.527       33.172        0.050      347.435       26.399      861.620
07/10/2013  22:58:00     -123.819      -77.959       -1.649       90.934       90.853       51.835     8268.990     8254.308     2686.909        2.031        0.961      146.317       43.074        0.087      347.480       26.478      861.617
07/10/2013  22:59:00     -215.515     -175.840       -7.606       97.350       82.687       47.920     9476.994     6837.196     2296.346        4.801        0.931      278.149       40.860        0.022      347.522       26.548      861.641
07/10/2013  23:00:00     -320.084     -128.304       -9.691      119.437      110.534       55.962    14265.123    12217.780     3131.792        7.431        1.481      344.841       59.497        0.030      347.513       26.535      861.651
07/10/2013  23:01:00     -156.194      -18.630       20.248      131.159       85.872       60.638    17202.632     7373.964     3676.935        2.670        1.413      157.301       62.182        0.156      347.401       26.340      861.639
07/10/2013  23:02:00     -142.185      -56.598       -1.858      106.978       78.733       51.516    11444.389     6198.807     2653.912        2.186        1.015      153.036       59.647        0.152      347.386       26.315      861.640
07/10/2013  23:03:00     -215.154     -126.898        6.804      115.052       96.372       62.083    13236.954     9287.484     3854.268        4.440        1.319      249.789       59.675        0.057      347.518       26.543      861.655
07/10/2013  23:04:00     -284.857     -189.801      -10.605      149.099       96.522       60.134    22230.564     9316.484     3616.133        7.621        1.758      342.298       72.061        0.044      347.551       26.599      861.681
07/10/2013  23:05:00     -158.409     -109.531        1.181       99.548       70.282       45.898     9909.712     4939.508     2106.613        2.702        0.848      192.588       53.289        0.077      347.506       26.523      861.692
07/10/2013  23:06:00     -128.298      -91.522       -1.342       59.441       67.909       34.763     3533.218     4611.587     1208.495        1.709        0.468      157.596       29.855        0.036      347.425       26.383      861.685
07/10/2013  23:07:00     -155.808      -85.125        4.903       76.796       56.965       40.411     5897.594     3245.052     1633.035        2.116        0.539      177.545       40.199        0.051      347.378       26.302      861.692
07/10/2013  23:08:00     -188.352      -75.343        2.440       90.029       64.309       42.314     8105.136     4135.657     1790.516        2.759        0.702      202.862       38.858        0.037      347.357       26.264      861.699
07/10/2013  23:09:00     -150.875      -86.416       11.822       89.705       79.010       51.875     8046.945     6242.621     2690.996        2.367        0.849      173.871       57.365        0.109      347.300       26.168      861.687
07/10/2013  23:10:00     -149.561     -116.351       -0.674       80.220       73.585       39.449     6435.322     5414.708     1556.186        2.465        0.670      189.489       39.858        0.044      347.310       26.184      861.675
07/10/2013  23:11:00     -117.435      -63.964        4.045       84.680       54.908       42.847     7170.785     3014.884     1835.840        1.496        0.601      133.725       48.642        0.132      347.263       26.104      861.678
07/10/2013  23:12:00     -241.518     -128.880      -25.375      103.369       92.364       38.149    10685.117     8531.072     1455.340        4.812        1.034      273.754       34.294        0.016      347.399       26.338      861.686
07/10/2013  23:13:00     -264.611     -164.407       -4.104      113.930       77.415       51.246    12979.939     5993.154     2626.108        5.933        1.080      311.526       55.069        0.031      347.384       26.311      861.684
07/10/2013  23:14:00     -252.583     -121.692       -2.059      120.267       86.330       55.211    14464.073     7452.932     3048.307        5.178        1.248      280.369       63.218        0.051      347.433       26.394      861.686
07/10/2013  23:15:00     -134.467     -127.255        2.916       77.245       67.794       40.587     5966.737     4596.064     1647.280        2.324        0.611      185.136       32.922        0.032      347.376       26.295      861.689
07/10/2013  23:16:00     -187.004     -133.603       -0.515      106.128       80.768       51.743    11263.233     6523.481     2677.301        3.664        1.023      229.827       46.472        0.041      347.359       26.269      861.692
07/10/2013  23:17:00     -192.698     -117.463      -15.045      105.327       85.167       51.801    11093.788     7253.416     2683.374        3.609        1.052      225.677       50.377        0.050      347.351       26.254      861.665
07/10/2013  23:18:00     -252.096      -25.365       -3.107      106.218       73.629       58.445    11282.292     5421.175     3415.853        4.216        1.006      253.369       58.566        0.053      347.378       26.300      861.648
07/10/2013  23:19:00     -191.867      -96.710       -3.550      100.274      106.776       47.317    10054.906    11401.044     2238.933        3.493        1.185      214.862       42.416        0.039      347.355       26.262      861.636
07/10/2013  23:20:00     -346.493     -104.352      -13.928      110.297       97.871       51.562    12165.425     9578.693     2658.639        7.777        1.220      361.865       46.488        0.017      347.323       26.206      861.605
07/10/2013  23:21:00     -314.921     -113.632        4.627      124.282      116.742       66.275    15446.123    13628.696     4392.441        7.278        1.673      334.795       65.081        0.038      347.336       26.228      861.583
07/10/2013  23:22:00     -318.314     -128.439        8.025      141.857      100.938       65.512    20123.338    10188.440     4291.780        7.624        1.730      343.250       77.327        0.051      347.500       26.510      861.611
07/10/2013  23:23:00     -274.404      -69.743        3.198      112.545      101.350       57.869    12666.324    10271.770     3348.839        5.322        1.314      283.128       59.939        0.045      347.383       26.309      861.608
07/10/2013  23:24:00     -111.128     -102.122        3.076      115.000       84.991       48.407    13225.030     7223.438     2343.260        2.279        1.140      150.925       58.842        0.152      347.359       26.269      861.588
07/10/2013  23:25:00      -15.467      -87.237       16.446       45.959       48.455       32.489     2112.202     2347.850     1055.543        0.682        0.276       88.598       24.061        0.074      347.338       26.234      861.577
07/10/2013  23:26:00      -62.770      -76.017       -2.448       69.670       59.555       29.976     4853.952     3546.797      898.563        0.951        0.465       98.584       36.269        0.135      347.239       26.064      861.596
07/10/2013  23:27:00      -12.922     -137.641        2.114       54.619       57.598       30.213     2983.271     3317.558      912.799        1.316        0.361      138.246       33.174        0.058      347.294       26.158      861.645
07/10/2013  23:28:00      -42.402     -151.612       -5.644       56.730      114.039       29.757     3218.285    13004.836      885.455        2.096        0.855      157.429       46.018        0.085      347.389       26.322      861.671
07/10/2013  23:29:00       -5.653      -17.322       30.170       28.832       53.516       29.303      831.270     2863.913      858.665        0.290        0.228       18.221       27.518        2.281      347.249       26.082      861.669
07/10/2013  23:30:00        6.804       70.273       97.776       33.361       39.004       34.560     1112.957     1521.277     1194.360        0.919        0.191       70.602       25.848        0.134      347.213       26.021      861.643
07/10/2013  23:31:00       26.384       72.665       79.980       34.284       40.124       28.084     1175.427     1609.919      788.736        0.797        0.179       77.307       26.622        0.119      347.239       26.063      861.625
07/10/2013  23:32:00        7.667       75.640       99.121       30.230       45.966       25.735      913.860     2112.879      662.307        0.965        0.184       76.027       25.293        0.111      347.232       26.051      861.623
07/10/2013  23:33:00       -4.645       37.346       68.234       28.104       39.284       30.870      789.856     1543.260      952.953        0.468        0.164       37.633       24.870        0.437      347.169       25.942      861.630
07/10/2013  23:34:00        0.990       17.780       51.518       16.438       43.907       22.352      270.194     1927.795      499.626        0.283        0.135       17.808       25.599        2.066      347.171       25.947      861.645
07/10/2013  23:35:00       47.983       43.991       62.226       36.918       30.764       27.080     1362.932      946.428      733.315        0.558        0.152       65.097       21.462        0.109      347.119       25.857      861.648
07/10/2013  23:36:00       58.582       86.520       84.853       37.440       37.230       26.601     1401.777     1386.057      707.596        1.081        0.175      104.487       22.057        0.045      347.156       25.920      861.616
07/10/2013  23:37:00      -13.796       66.438       89.944       20.421       45.391       32.784      417.022     2060.346     1074.811        0.812        0.178       67.855       30.728        0.205      347.206       26.006      861.588
07/10/2013  23:38:00       -3.505       48.209       62.990       28.326       34.362       27.067      802.347     1180.741      732.622        0.451        0.136       48.336       14.716        0.093      347.189       25.977      861.566
07/10/2013  23:39:00       -4.248      -12.465       48.595       22.239       38.235       17.772      494.564     1461.925      315.832        0.240        0.114       13.169       10.279        0.609      347.138       25.891      861.539
07/10/2013  23:40:00      -50.032      -21.183        1.594       52.450       36.454       22.161     2750.971     1328.927      491.099        0.376        0.229       54.332       19.472        0.128      346.955       25.577      861.531
07/10/2013  23:41:00      -92.226      -52.026       -8.873       23.866       28.783       15.861      569.583      828.462      251.580        0.647        0.082      105.889       11.163        0.011      346.916       25.506      861.536
07/10/2013  23:42:00      -34.148      -40.863        4.292       36.646       17.734       15.581     1342.913      314.509      242.782        0.238        0.095       53.253       20.623        0.150      346.935       25.538      861.530
07/10/2013  23:43:00      -11.042      -32.455        6.319       13.568       25.915       13.188      184.082      671.584      173.919        0.112        0.051       34.282       15.347        0.200      347.037       25.719      861.498
07/10/2013  23:44:00      -49.567       -8.229        3.430       12.118       15.066       13.046      146.835      226.975      170.205        0.154        0.027       50.246        9.435        0.035      347.020       25.688      861.482
07/10/2013  23:45:00     -113.286       -6.847       -9.079       40.805       20.528        9.610     1665.063      421.414       92.343        0.757        0.109      113.493       12.038        0.011      347.011       25.672      861.482
07/10/2013  23:46:00      -63.724      -45.064        3.561       46.453       25.416       16.496     2157.915      645.950      272.112        0.459        0.154       78.048       21.170        0.074      346.827       25.355      861.479
07/10/2013  23:47:00      -24.496      -58.104        3.529       31.231       21.532       13.718      975.362      463.646      188.193        0.281        0.081       63.057       15.192        0.058      347.057       25.751      861.469
07/10/2013  23:48:00      -39.820      -78.534       -5.219       52.339       25.346       15.968     2739.348      642.433      254.988        0.571        0.182       88.053        8.507        0.009      347.056       25.750      861.464
07/10/2013  23:49:00      -96.255     -102.810      -11.853       42.197       84.331       30.061     1780.625     7111.773      903.666        1.488        0.490      140.837       23.315        0.027      347.171       25.946      861.445
07/10/2013  23:50:00      -58.691      -80.137       -3.729       46.329       28.903       16.197     2146.373      835.389      262.333        0.656        0.162       99.331       12.852        0.017      347.222       26.035      861.448
07/10/2013  23:51:00      -43.320      -46.213      -12.448       46.129       24.580       15.607     2127.894      604.187      243.588        0.357        0.149       63.342       10.555        0.028      347.132       25.880      861.439
07/10/2013  23:52:00       -5.873      -77.791       15.663       61.299       55.666       30.082     3757.506     3098.734      904.923        0.704        0.388       78.012       27.490        0.124      347.034       25.710      861.427
07/10/2013  23:53:00      -81.835      -53.269       -1.701       38.101       41.222       17.463     1451.679     1699.291      304.973        0.650        0.173       97.645       22.163        0.052      347.043       25.726      861.431
07/10/2013  23:54:00      -18.573      -85.196        6.262       40.393       49.617       22.531     1631.568     2461.876      507.668        0.612        0.230       87.197       10.168        0.014      347.049       25.736      861.442
07/10/2013  23:55:00      -35.102     -130.785        3.574       37.880       36.198       25.970     1434.901     1310.318      674.419        1.088        0.171      135.414       22.748        0.028      347.067       25.768      861.449
07/10/2013  23:56:00       20.382      -25.587        1.143       25.133       42.446       31.707      631.661     1801.676     1005.318        0.225        0.172       32.713       30.319        0.859      346.748       25.219      861.440
07/10/2013  23:57:00        8.416        2.755        7.891       35.712       34.733       34.152     1275.339     1206.394     1166.362        0.189        0.182        8.855       25.078        8.020      346.752       25.226      861.427
07/10/2013  23:58:00       36.116      -75.684      -16.575       39.110       41.328       23.010     1529.607     1708.045      529.459        0.554        0.188       83.859       24.709        0.087      346.786       25.284      861.437
07/10/2013  23:59:00       35.940      -67.740       -8.586       32.485       25.579       20.986     1055.264      654.261      440.419        0.405        0.107       76.684       12.945        0.028      346.841       25.378      861.426
